<?xml version='1.0' encoding='UTF-8'?><gpx version="1.1" creator="JPX - https://github.com/jenetics/jpx" xmlns="http://www.topografix.com/GPX/1/1"><trk><trkseg><trkpt lat="45.85473266800555" lon="11.821711731473778"><ele>810.9999999999999</ele><time>2026-04-06T07:27:58.967Z</time></trkpt><trkpt lat="45.85482289749985" lon="11.821703065614358"><ele>811.0</ele><time>2026-04-06T07:28:32.967Z</time></trkpt><trkpt lat="45.854845439212994" lon="11.821600443109713"><ele>811.0</ele><time>2026-04-06T07:30:39.965Z</time></trkpt><trkpt lat="45.85485992329715" lon="11.82149680503147"><ele>811.0</ele><time>2026-04-06T07:30:47.965Z</time></trkpt><trkpt lat="45.85490073957433" lon="11.821405870773763"><ele>810.9999999999999</ele><time>2026-04-06T07:30:55.965Z</time></trkpt><trkpt lat="45.85483248821553" lon="11.821378714604668"><ele>811.0</ele><time>2026-04-06T07:31:18.965Z</time></trkpt><trkpt lat="45.854770706993826" lon="11.821422616261524"><ele>810.9999999999999</ele><time>2026-04-06T07:32:08.964Z</time></trkpt><trkpt lat="45.85485827061173" lon="11.82140247398505"><ele>811.0</ele><time>2026-04-06T07:32:24.964Z</time></trkpt><trkpt lat="45.854887166840825" lon="11.821311643755296"><ele>811.0</ele><time>2026-04-06T07:32:37.964Z</time></trkpt><trkpt lat="45.8549076264615" lon="11.821207793783936"><ele>811.0</ele><time>2026-04-06T07:32:51.964Z</time></trkpt><trkpt lat="45.85486803874967" lon="11.821070869070164"><ele>810.9999999999999</ele><time>2026-04-06T07:33:03.964Z</time></trkpt><trkpt lat="45.854854227292265" lon="11.820978218400183"><ele>811.0</ele><time>2026-04-06T07:33:12.964Z</time></trkpt><trkpt lat="45.854827853884956" lon="11.82088129392157"><ele>812.8571428571428</ele><time>2026-04-06T07:33:20.964Z</time></trkpt><trkpt lat="45.85474850536619" lon="11.820847153878622"><ele>814.7142857142858</ele><time>2026-04-06T07:33:26.964Z</time></trkpt><trkpt lat="45.854717296399166" lon="11.820763829071536"><ele>816.5714285714286</ele><time>2026-04-06T07:33:34.964Z</time></trkpt><trkpt lat="45.85472698059014" lon="11.820673334294575"><ele>818.4285714285713</ele><time>2026-04-06T07:33:41.964Z</time></trkpt><trkpt lat="45.85468237325746" lon="11.820596492186128"><ele>820.2857142857142</ele><time>2026-04-06T07:33:51.964Z</time></trkpt><trkpt lat="45.854628480244145" lon="11.820535219707192"><ele>822.1428571428571</ele><time>2026-04-06T07:34:02.963Z</time></trkpt><trkpt lat="45.85462694692739" lon="11.82044334798188"><ele>824.0</ele><time>2026-04-06T07:34:13.963Z</time></trkpt><trkpt lat="45.854625771743834" lon="11.820346941037366"><ele>823.9999999999999</ele><time>2026-04-06T07:34:21.963Z</time></trkpt><trkpt lat="45.85459282664989" lon="11.820257434546324"><ele>824.0</ele><time>2026-04-06T07:34:28.963Z</time></trkpt><trkpt lat="45.854530493309554" lon="11.82029174898726"><ele>824.0</ele><time>2026-04-06T07:34:32.963Z</time></trkpt><trkpt lat="45.854531035028934" lon="11.820196531937393"><ele>824.0</ele><time>2026-04-06T07:34:40.963Z</time></trkpt><trkpt lat="45.85455108258469" lon="11.82010853353037"><ele>824.0</ele><time>2026-04-06T07:34:48.963Z</time></trkpt><trkpt lat="45.854505272725746" lon="11.820037283338197"><ele>823.9999999999999</ele><time>2026-04-06T07:34:57.963Z</time></trkpt><trkpt lat="45.854462198125354" lon="11.819953784050316"><ele>824.0</ele><time>2026-04-06T07:35:08.963Z</time></trkpt><trkpt lat="45.8544668486217" lon="11.819862614324116"><ele>826.7142857142857</ele><time>2026-04-06T07:35:16.963Z</time></trkpt><trkpt lat="45.85448855354626" lon="11.81976417055841"><ele>829.4285714285714</ele><time>2026-04-06T07:35:22.963Z</time></trkpt><trkpt lat="45.8544835207839" lon="11.819668692203294"><ele>832.1428571428571</ele><time>2026-04-06T07:35:31.963Z</time></trkpt><trkpt lat="45.85448689669519" lon="11.819562504282132"><ele>834.8571428571429</ele><time>2026-04-06T07:35:41.963Z</time></trkpt><trkpt lat="45.85450849189242" lon="11.81946587120781"><ele>837.5714285714286</ele><time>2026-04-06T07:35:50.963Z</time></trkpt><trkpt lat="45.85456221498738" lon="11.8194040648764"><ele>840.2857142857142</ele><time>2026-04-06T07:35:59.962Z</time></trkpt><trkpt lat="45.85460888390841" lon="11.819333492265685"><ele>843.0</ele><time>2026-04-06T07:36:06.962Z</time></trkpt><trkpt lat="45.85465641349495" lon="11.819266964667632"><ele>843.0</ele><time>2026-04-06T07:36:15.963Z</time></trkpt><trkpt lat="45.85471742543394" lon="11.81921589254622"><ele>843.0</ele><time>2026-04-06T07:36:25.963Z</time></trkpt><trkpt lat="45.854770053604696" lon="11.819148369441875"><ele>843.0</ele><time>2026-04-06T07:36:38.963Z</time></trkpt><trkpt lat="45.854821688263556" lon="11.81908212768613"><ele>843.0</ele><time>2026-04-06T07:36:46.963Z</time></trkpt><trkpt lat="45.85489505967733" lon="11.819073591099817"><ele>843.0</ele><time>2026-04-06T07:36:51.963Z</time></trkpt><trkpt lat="45.85493066971907" lon="11.818987572486694"><ele>843.0</ele><time>2026-04-06T07:37:00.963Z</time></trkpt><trkpt lat="45.854933161531456" lon="11.819079815774224"><ele>843.0</ele><time>2026-04-06T07:37:08.962Z</time></trkpt><trkpt lat="45.854865123189775" lon="11.819109184697332"><ele>843.0</ele><time>2026-04-06T07:37:14.962Z</time></trkpt><trkpt lat="45.854838786963356" lon="11.819192909442558"><ele>843.0</ele><time>2026-04-06T07:37:26.962Z</time></trkpt><trkpt lat="45.854825240957574" lon="11.819294425756995"><ele>843.0</ele><time>2026-04-06T07:37:33.962Z</time></trkpt><trkpt lat="45.85480866830067" lon="11.819388381814264"><ele>843.0</ele><time>2026-04-06T07:37:41.962Z</time></trkpt><trkpt lat="45.85479658319349" lon="11.81948468214017"><ele>843.0</ele><time>2026-04-06T07:37:49.962Z</time></trkpt><trkpt lat="45.85476224962582" lon="11.819565399594843"><ele>843.0</ele><time>2026-04-06T07:37:55.962Z</time></trkpt><trkpt lat="45.854747725093496" lon="11.819663600900956"><ele>843.0</ele><time>2026-04-06T07:38:05.962Z</time></trkpt><trkpt lat="45.85476285362" lon="11.81975214503493"><ele>843.4285714285714</ele><time>2026-04-06T07:38:16.961Z</time></trkpt><trkpt lat="45.854748508442455" lon="11.819852342345893"><ele>843.8571428571429</ele><time>2026-04-06T07:38:24.961Z</time></trkpt><trkpt lat="45.85475808457918" lon="11.819942831109957"><ele>844.2857142857142</ele><time>2026-04-06T07:38:32.961Z</time></trkpt><trkpt lat="45.854760873078334" lon="11.82003569333419"><ele>844.7142857142858</ele><time>2026-04-06T07:38:38.961Z</time></trkpt><trkpt lat="45.85482093701069" lon="11.82007403355665"><ele>845.1428571428572</ele><time>2026-04-06T07:38:45.961Z</time></trkpt><trkpt lat="45.85489424496129" lon="11.820103016543202"><ele>845.5714285714286</ele><time>2026-04-06T07:38:57.961Z</time></trkpt><trkpt lat="45.854959672520096" lon="11.820145865838727"><ele>846.0</ele><time>2026-04-06T07:39:04.961Z</time></trkpt><trkpt lat="45.85500175679161" lon="11.820221105239527"><ele>842.8571428571428</ele><time>2026-04-06T07:39:13.961Z</time></trkpt><trkpt lat="45.85506397722727" lon="11.82024155065418"><ele>839.7142857142858</ele><time>2026-04-06T07:39:20.961Z</time></trkpt><trkpt lat="45.85511517317464" lon="11.82033911286119"><ele>836.5714285714286</ele><time>2026-04-06T07:39:33.961Z</time></trkpt><trkpt lat="45.85515340918009" lon="11.820411547961573"><ele>833.4285714285713</ele><time>2026-04-06T07:39:40.961Z</time></trkpt><trkpt lat="45.85518111497282" lon="11.820509970709658"><ele>830.2857142857142</ele><time>2026-04-06T07:39:47.961Z</time></trkpt><trkpt lat="45.85522357464251" lon="11.820584820804967"><ele>827.1428571428571</ele><time>2026-04-06T07:39:53.961Z</time></trkpt><trkpt lat="45.85522233218349" lon="11.820487610869716"><ele>824.0</ele><time>2026-04-06T07:40:12.96Z</time></trkpt><trkpt lat="45.855199403146734" lon="11.820389313505128"><ele>823.9999999999999</ele><time>2026-04-06T07:40:18.96Z</time></trkpt><trkpt lat="45.85513938894239" lon="11.820311726704048"><ele>824.0</ele><time>2026-04-06T07:40:27.96Z</time></trkpt><trkpt lat="45.85509033452852" lon="11.820251047025204"><ele>824.0</ele><time>2026-04-06T07:40:36.96Z</time></trkpt><trkpt lat="45.855049629345594" lon="11.820181237179822"><ele>824.0</ele><time>2026-04-06T07:40:43.96Z</time></trkpt><trkpt lat="45.85499539575427" lon="11.82012539715831"><ele>824.0</ele><time>2026-04-06T07:40:53.96Z</time></trkpt><trkpt lat="45.854963263066836" lon="11.820044489780024"><ele>823.9999999999999</ele><time>2026-04-06T07:41:01.96Z</time></trkpt><trkpt lat="45.85497644755654" lon="11.819954096944443"><ele>824.0</ele><time>2026-04-06T07:41:09.96Z</time></trkpt><trkpt lat="45.85501341601944" lon="11.819859220677701"><ele>827.1428571428571</ele><time>2026-04-06T07:41:14.96Z</time></trkpt><trkpt lat="45.85503668433466" lon="11.819759679597473"><ele>830.2857142857142</ele><time>2026-04-06T07:41:22.96Z</time></trkpt><trkpt lat="45.85503847221577" lon="11.819653419895783"><ele>833.4285714285713</ele><time>2026-04-06T07:41:37.96Z</time></trkpt><trkpt lat="45.85506008898308" lon="11.819566656933215"><ele>836.5714285714286</ele><time>2026-04-06T07:41:47.96Z</time></trkpt><trkpt lat="45.85507959804003" lon="11.81948045539074"><ele>839.7142857142858</ele><time>2026-04-06T07:41:53.96Z</time></trkpt><trkpt lat="45.855113908582354" lon="11.819403227793366"><ele>842.8571428571428</ele><time>2026-04-06T07:42:01.96Z</time></trkpt><trkpt lat="45.855177357009865" lon="11.819374161758812"><ele>846.0</ele><time>2026-04-06T07:42:10.96Z</time></trkpt><trkpt lat="45.85523729714807" lon="11.819408205628344"><ele>853.8571428571429</ele><time>2026-04-06T07:42:18.959Z</time></trkpt><trkpt lat="45.855297543865184" lon="11.819339789067676"><ele>861.7142857142858</ele><time>2026-04-06T07:42:26.959Z</time></trkpt><trkpt lat="45.855344107339036" lon="11.81927883854797"><ele>869.5714285714287</ele><time>2026-04-06T07:42:34.959Z</time></trkpt><trkpt lat="45.85538571991699" lon="11.819210212379557"><ele>877.4285714285714</ele><time>2026-04-06T07:42:41.959Z</time></trkpt><trkpt lat="45.855408257603656" lon="11.81912543747439"><ele>885.2857142857144</ele><time>2026-04-06T07:42:49.949Z</time></trkpt><trkpt lat="45.85535800363753" lon="11.819040498662138"><ele>893.1428571428572</ele><time>2026-04-06T07:43:03.938Z</time></trkpt><trkpt lat="45.85538354147849" lon="11.818933123998626"><ele>901.0</ele><time>2026-04-06T07:43:10.935Z</time></trkpt><trkpt lat="45.85541334504109" lon="11.818844822139436"><ele>901.0</ele><time>2026-04-06T07:43:17.933Z</time></trkpt><trkpt lat="45.8554323282837" lon="11.818754500230355"><ele>901.0000000000001</ele><time>2026-04-06T07:43:23.932Z</time></trkpt><trkpt lat="45.85545248851426" lon="11.818662855655733"><ele>901.0</ele><time>2026-04-06T07:43:30.931Z</time></trkpt><trkpt lat="45.8554784220747" lon="11.818568969815555"><ele>901.0</ele><time>2026-04-06T07:43:41.93Z</time></trkpt><trkpt lat="45.855467050452276" lon="11.818479484957509"><ele>901.0000000000001</ele><time>2026-04-06T07:43:48.93Z</time></trkpt><trkpt lat="45.85548618085783" lon="11.818375227747326"><ele>901.0</ele><time>2026-04-06T07:43:58.93Z</time></trkpt><trkpt lat="45.85551515749557" lon="11.818286682560275"><ele>901.0</ele><time>2026-04-06T07:44:07.93Z</time></trkpt><trkpt lat="45.855566436069346" lon="11.818217490304631"><ele>900.5714285714287</ele><time>2026-04-06T07:44:14.929Z</time></trkpt><trkpt lat="45.85561292340851" lon="11.818148688587632"><ele>900.1428571428572</ele><time>2026-04-06T07:44:19.929Z</time></trkpt><trkpt lat="45.8556545091829" lon="11.818078506770549"><ele>899.7142857142858</ele><time>2026-04-06T07:44:29.928Z</time></trkpt><trkpt lat="45.85567824876063" lon="11.81799074317533"><ele>899.2857142857142</ele><time>2026-04-06T07:44:38.929Z</time></trkpt><trkpt lat="45.85566390613353" lon="11.817898996918778"><ele>898.8571428571428</ele><time>2026-04-06T07:44:47.929Z</time></trkpt><trkpt lat="45.855595744128514" lon="11.817901198181033"><ele>898.4285714285713</ele><time>2026-04-06T07:44:52.929Z</time></trkpt><trkpt lat="45.8555355322686" lon="11.817833202034457"><ele>898.0</ele><time>2026-04-06T07:45:00.929Z</time></trkpt><trkpt lat="45.855515303699285" lon="11.817681366114204"><ele>899.5714285714286</ele><time>2026-04-06T07:45:13.928Z</time></trkpt><trkpt lat="45.85548412229373" lon="11.817595752890977"><ele>901.1428571428571</ele><time>2026-04-06T07:45:24.928Z</time></trkpt><trkpt lat="45.85551439358784" lon="11.817512733340834"><ele>902.7142857142857</ele><time>2026-04-06T07:45:38.928Z</time></trkpt><trkpt lat="45.85550153527063" lon="11.817418830797203"><ele>904.2857142857142</ele><time>2026-04-06T07:45:43.928Z</time></trkpt><trkpt lat="45.85548175039117" lon="11.817330452612287"><ele>905.8571428571429</ele><time>2026-04-06T07:45:51.928Z</time></trkpt><trkpt lat="45.85547236890133" lon="11.817188204238077"><ele>907.4285714285713</ele><time>2026-04-06T07:46:04.928Z</time></trkpt><trkpt lat="45.855506149056296" lon="11.81709807045836"><ele>909.0</ele><time>2026-04-06T07:46:12.928Z</time></trkpt><trkpt lat="45.855520254159075" lon="11.81699402997049"><ele>909.0</ele><time>2026-04-06T07:46:21.928Z</time></trkpt><trkpt lat="45.855529209750436" lon="11.816889057346557"><ele>909.0</ele><time>2026-04-06T07:46:34.927Z</time></trkpt><trkpt lat="45.85548743018555" lon="11.816772614289974"><ele>909.0</ele><time>2026-04-06T07:46:44.927Z</time></trkpt><trkpt lat="45.855442522449465" lon="11.816709051219693"><ele>909.0</ele><time>2026-04-06T07:46:52.927Z</time></trkpt><trkpt lat="45.85538957313594" lon="11.81665812544521"><ele>909.0</ele><time>2026-04-06T07:47:02.927Z</time></trkpt><trkpt lat="45.85537542620353" lon="11.816564890980255"><ele>909.0</ele><time>2026-04-06T07:47:07.927Z</time></trkpt><trkpt lat="45.855352903693976" lon="11.816456092210643"><ele>909.0</ele><time>2026-04-06T07:47:21.926Z</time></trkpt><trkpt lat="45.85532743931998" lon="11.816364914381836"><ele>909.0</ele><time>2026-04-06T07:47:29.926Z</time></trkpt><trkpt lat="45.8553417398352" lon="11.816453727620031"><ele>909.0</ele><time>2026-04-06T07:48:04.926Z</time></trkpt><trkpt lat="45.85539458043009" lon="11.816509907341786"><ele>909.0</ele><time>2026-04-06T07:48:11.926Z</time></trkpt><trkpt lat="45.85543644935702" lon="11.81659331343322"><ele>909.0</ele><time>2026-04-06T07:48:20.926Z</time></trkpt><trkpt lat="45.85548815156429" lon="11.81666188455721"><ele>909.0</ele><time>2026-04-06T07:48:27.926Z</time></trkpt><trkpt lat="45.85552476477183" lon="11.816748203001135"><ele>909.0</ele><time>2026-04-06T07:48:35.925Z</time></trkpt><trkpt lat="45.85556445224609" lon="11.816831848131775"><ele>909.0</ele><time>2026-04-06T07:48:45.925Z</time></trkpt><trkpt lat="45.85558666337623" lon="11.81693440697426"><ele>909.0</ele><time>2026-04-06T07:48:53.925Z</time></trkpt><trkpt lat="45.85555476062431" lon="11.816841165135392"><ele>909.0</ele><time>2026-04-06T07:49:09.924Z</time></trkpt><trkpt lat="45.85556761066695" lon="11.8167456147988"><ele>909.0</ele><time>2026-04-06T07:49:17.924Z</time></trkpt><trkpt lat="45.85551736953955" lon="11.816671966684575"><ele>909.0</ele><time>2026-04-06T07:49:26.924Z</time></trkpt><trkpt lat="45.85550780917512" lon="11.816577384052996"><ele>909.0</ele><time>2026-04-06T07:49:34.924Z</time></trkpt><trkpt lat="45.85551329156325" lon="11.816477809826937"><ele>909.0</ele><time>2026-04-06T07:49:44.924Z</time></trkpt><trkpt lat="45.855481779254454" lon="11.816396830544212"><ele>909.0</ele><time>2026-04-06T07:49:49.924Z</time></trkpt><trkpt lat="45.8555382315788" lon="11.816451521519785"><ele>910.4285714285713</ele><time>2026-04-06T07:50:05.924Z</time></trkpt><trkpt lat="45.85556671096652" lon="11.816545812796301"><ele>911.8571428571429</ele><time>2026-04-06T07:50:13.924Z</time></trkpt><trkpt lat="45.85560071509173" lon="11.816634954721989"><ele>913.2857142857142</ele><time>2026-04-06T07:50:21.924Z</time></trkpt><trkpt lat="45.85562737106284" lon="11.816716882369075"><ele>914.7142857142857</ele><time>2026-04-06T07:50:26.924Z</time></trkpt><trkpt lat="45.85567918934417" lon="11.816777805365264"><ele>916.1428571428571</ele><time>2026-04-06T07:50:35.923Z</time></trkpt><trkpt lat="45.85569743883686" lon="11.816677456997569"><ele>917.5714285714286</ele><time>2026-04-06T07:50:52.922Z</time></trkpt><trkpt lat="45.855657721470806" lon="11.81658816025716"><ele>919.0</ele><time>2026-04-06T07:51:04.922Z</time></trkpt><trkpt lat="45.85561832408063" lon="11.816514597576756"><ele>919.0</ele><time>2026-04-06T07:51:10.922Z</time></trkpt><trkpt lat="45.85558099095739" lon="11.81640328228558"><ele>918.9999999999999</ele><time>2026-04-06T07:51:22.922Z</time></trkpt><trkpt lat="45.85559257404806" lon="11.81631355611798"><ele>919.0</ele><time>2026-04-06T07:51:32.922Z</time></trkpt><trkpt lat="45.85564761611789" lon="11.816370164677949"><ele>919.0</ele><time>2026-04-06T07:51:40.922Z</time></trkpt><trkpt lat="45.85571074045374" lon="11.816435956792528"><ele>918.9999999999999</ele><time>2026-04-06T07:51:53.922Z</time></trkpt><trkpt lat="45.85574525360895" lon="11.816522453714654"><ele>919.0</ele><time>2026-04-06T07:52:02.922Z</time></trkpt><trkpt lat="45.855754433384746" lon="11.816616859241563"><ele>919.0</ele><time>2026-04-06T07:52:08.921Z</time></trkpt><trkpt lat="45.85573251934952" lon="11.81652361113563"><ele>919.0</ele><time>2026-04-06T07:52:28.921Z</time></trkpt><trkpt lat="45.855730981854606" lon="11.816428086955218"><ele>918.9999999999999</ele><time>2026-04-06T07:52:37.921Z</time></trkpt><trkpt lat="45.8556966186996" lon="11.816350465950203"><ele>919.0</ele><time>2026-04-06T07:52:46.921Z</time></trkpt><trkpt lat="45.85568627984457" lon="11.816257928105552"><ele>919.0</ele><time>2026-04-06T07:52:55.921Z</time></trkpt><trkpt lat="45.85574870078923" lon="11.816177492215951"><ele>918.9999999999999</ele><time>2026-04-06T07:53:06.921Z</time></trkpt><trkpt lat="45.85579757797441" lon="11.81611946308711"><ele>919.0</ele><time>2026-04-06T07:53:12.921Z</time></trkpt><trkpt lat="45.85587293021123" lon="11.816080730344469"><ele>919.0</ele><time>2026-04-06T07:53:25.921Z</time></trkpt><trkpt lat="45.85592237346991" lon="11.815916352263818"><ele>919.0</ele><time>2026-04-06T07:53:48.921Z</time></trkpt><trkpt lat="45.85597144060061" lon="11.81585268966161"><ele>918.9999999999999</ele><time>2026-04-06T07:53:51.92Z</time></trkpt><trkpt lat="45.85597622016476" lon="11.81599408966742"><ele>919.0</ele><time>2026-04-06T07:54:13.92Z</time></trkpt><trkpt lat="45.85594341983251" lon="11.816077364041544"><ele>919.0</ele><time>2026-04-06T07:54:21.92Z</time></trkpt><trkpt lat="45.85593075146624" lon="11.816167964162092"><ele>918.9999999999999</ele><time>2026-04-06T07:54:29.92Z</time></trkpt><trkpt lat="45.855892462605546" lon="11.81625363038162"><ele>919.0</ele><time>2026-04-06T07:54:36.92Z</time></trkpt><trkpt lat="45.855875103578" lon="11.816355720854876"><ele>919.0</ele><time>2026-04-06T07:54:49.919Z</time></trkpt><trkpt lat="45.85591257205285" lon="11.816431124855525"><ele>919.0</ele><time>2026-04-06T07:54:56.918Z</time></trkpt><trkpt lat="45.85592844912696" lon="11.816534040608163"><ele>918.9999999999999</ele><time>2026-04-06T07:55:04.919Z</time></trkpt><trkpt lat="45.85593707916635" lon="11.81664058399052"><ele>919.0</ele><time>2026-04-06T07:55:12.919Z</time></trkpt><trkpt lat="45.85593895564301" lon="11.816549680124442"><ele>919.0</ele><time>2026-04-06T07:55:54.918Z</time></trkpt><trkpt lat="45.85594128617743" lon="11.816454216411291"><ele>918.9999999999999</ele><time>2026-04-06T07:56:03.918Z</time></trkpt><trkpt lat="45.855942536722544" lon="11.816363501388086"><ele>919.0</ele><time>2026-04-06T07:56:09.918Z</time></trkpt><trkpt lat="45.855958372189974" lon="11.816269329380928"><ele>919.0</ele><time>2026-04-06T07:56:21.918Z</time></trkpt><trkpt lat="45.85606158367148" lon="11.816191427281032"><ele>926.2857142857142</ele><time>2026-04-06T07:56:30.918Z</time></trkpt><trkpt lat="45.856063257805864" lon="11.816092305874431"><ele>933.5714285714284</ele><time>2026-04-06T07:56:35.918Z</time></trkpt><trkpt lat="45.85606857747459" lon="11.815996732378952"><ele>940.8571428571429</ele><time>2026-04-06T07:56:45.918Z</time></trkpt><trkpt lat="45.85612103128382" lon="11.81592340072284"><ele>948.1428571428571</ele><time>2026-04-06T07:56:55.917Z</time></trkpt><trkpt lat="45.85617516910286" lon="11.815870550851166"><ele>955.4285714285714</ele><time>2026-04-06T07:57:04.916Z</time></trkpt><trkpt lat="45.856229813649286" lon="11.815799209620891"><ele>962.7142857142858</ele><time>2026-04-06T07:57:14.916Z</time></trkpt><trkpt lat="45.85629480462337" lon="11.815806634714715"><ele>970.0000000000001</ele><time>2026-04-06T07:57:25.916Z</time></trkpt><trkpt lat="45.8563599648236" lon="11.815800776548034"><ele>969.9999999999999</ele><time>2026-04-06T07:57:34.916Z</time></trkpt><trkpt lat="45.85642356963592" lon="11.815795683400697"><ele>970.0</ele><time>2026-04-06T07:57:43.916Z</time></trkpt><trkpt lat="45.85653623276005" lon="11.815753899917173"><ele>970.0</ele><time>2026-04-06T07:58:05.916Z</time></trkpt><trkpt lat="45.85660483710324" lon="11.815739072653928"><ele>970.0</ele><time>2026-04-06T07:58:10.916Z</time></trkpt><trkpt lat="45.85668975110806" lon="11.81578807307997"><ele>969.9999999999999</ele><time>2026-04-06T07:58:18.915Z</time></trkpt><trkpt lat="45.856757955856224" lon="11.815751835926312"><ele>970.0</ele><time>2026-04-06T07:58:22.915Z</time></trkpt><trkpt lat="45.856837350214995" lon="11.815731667309802"><ele>973.5714285714287</ele><time>2026-04-06T07:58:31.915Z</time></trkpt><trkpt lat="45.856897573235365" lon="11.815785105592397"><ele>977.1428571428571</ele><time>2026-04-06T07:58:39.915Z</time></trkpt><trkpt lat="45.85695164693621" lon="11.815833109512168"><ele>980.7142857142858</ele><time>2026-04-06T07:58:49.915Z</time></trkpt><trkpt lat="45.85702039575041" lon="11.815826170675466"><ele>984.2857142857143</ele><time>2026-04-06T07:58:55.915Z</time></trkpt><trkpt lat="45.857073304876884" lon="11.815762224530262"><ele>987.8571428571429</ele><time>2026-04-06T07:59:04.915Z</time></trkpt><trkpt lat="45.857129858985274" lon="11.815680397802721"><ele>991.4285714285714</ele><time>2026-04-06T07:59:11.914Z</time></trkpt><trkpt lat="45.857195513290854" lon="11.81565408624283"><ele>995.0</ele><time>2026-04-06T07:59:24.914Z</time></trkpt><trkpt lat="45.85726287790369" lon="11.815592217365868"><ele>995.0</ele><time>2026-04-06T07:59:33.914Z</time></trkpt><trkpt lat="45.85733810721223" lon="11.815558500636364"><ele>995.0</ele><time>2026-04-06T07:59:43.914Z</time></trkpt><trkpt lat="45.85740147012863" lon="11.815537453181662"><ele>995.0</ele><time>2026-04-06T07:59:52.914Z</time></trkpt><trkpt lat="45.85741376322918" lon="11.815448795633564"><ele>995.0</ele><time>2026-04-06T07:59:55.914Z</time></trkpt><trkpt lat="45.85744256966759" lon="11.81535423181377"><ele>995.0</ele><time>2026-04-06T08:00:01.914Z</time></trkpt><trkpt lat="45.85749537370426" lon="11.815284669666887"><ele>995.0</ele><time>2026-04-06T08:00:10.914Z</time></trkpt><trkpt lat="45.857570679192435" lon="11.815263248041228"><ele>995.0</ele><time>2026-04-06T08:00:16.914Z</time></trkpt><trkpt lat="45.85760116070893" lon="11.815346208397415"><ele>998.8571428571429</ele><time>2026-04-06T08:00:22.914Z</time></trkpt><trkpt lat="45.857640868776805" lon="11.815439073937311"><ele>1002.7142857142857</ele><time>2026-04-06T08:00:29.913Z</time></trkpt><trkpt lat="45.8577041454475" lon="11.81544778463544"><ele>1006.5714285714286</ele><time>2026-04-06T08:00:34.913Z</time></trkpt><trkpt lat="45.85777392448763" lon="11.815407707599354"><ele>1010.4285714285714</ele><time>2026-04-06T08:00:46.913Z</time></trkpt><trkpt lat="45.8578100748231" lon="11.815332012130378"><ele>1014.2857142857142</ele><time>2026-04-06T08:00:52.913Z</time></trkpt><trkpt lat="45.857857378190026" lon="11.81525481334524"><ele>1018.1428571428571</ele><time>2026-04-06T08:00:57.913Z</time></trkpt><trkpt lat="45.857865786562016" lon="11.815144997563426"><ele>1022.0</ele><time>2026-04-06T08:01:01.913Z</time></trkpt><trkpt lat="45.85786877141275" lon="11.815039572022599"><ele>1022.0</ele><time>2026-04-06T08:01:13.912Z</time></trkpt><trkpt lat="45.85788865637398" lon="11.814951900898475"><ele>1022.0</ele><time>2026-04-06T08:01:18.913Z</time></trkpt><trkpt lat="45.85791499268745" lon="11.814864071251376"><ele>1022.0</ele><time>2026-04-06T08:01:35.913Z</time></trkpt><trkpt lat="45.85797965952957" lon="11.814881166424891"><ele>1022.0</ele><time>2026-04-06T08:01:39.912Z</time></trkpt><trkpt lat="45.85806018093688" lon="11.814812389806622"><ele>1022.0</ele><time>2026-04-06T08:01:48.912Z</time></trkpt><trkpt lat="45.85805168599004" lon="11.814716890556067"><ele>1022.0</ele><time>2026-04-06T08:01:58.912Z</time></trkpt><trkpt lat="45.8580153125402" lon="11.81462713801912"><ele>1022.0</ele><time>2026-04-06T08:02:06.912Z</time></trkpt><trkpt lat="45.85796267155451" lon="11.814551592096958"><ele>1022.0</ele><time>2026-04-06T08:02:13.912Z</time></trkpt><trkpt lat="45.85791406785308" lon="11.814487196778387"><ele>1022.0</ele><time>2026-04-06T08:02:21.912Z</time></trkpt><trkpt lat="45.8578479376263" lon="11.814474630301657"><ele>1022.0</ele><time>2026-04-06T08:02:27.912Z</time></trkpt><trkpt lat="45.857775358228864" lon="11.814400378408914"><ele>1022.0</ele><time>2026-04-06T08:02:38.912Z</time></trkpt><trkpt lat="45.85777510031756" lon="11.814301533860698"><ele>1022.0</ele><time>2026-04-06T08:02:47.912Z</time></trkpt><trkpt lat="45.8578141816018" lon="11.8142250956328"><ele>1022.0</ele><time>2026-04-06T08:02:53.912Z</time></trkpt><trkpt lat="45.857851683677985" lon="11.814146869553216"><ele>1022.0</ele><time>2026-04-06T08:02:58.912Z</time></trkpt><trkpt lat="45.85787547174706" lon="11.814018651069032"><ele>1022.0</ele><time>2026-04-06T08:03:08.911Z</time></trkpt><trkpt lat="45.857913525838704" lon="11.814091345394399"><ele>1022.0</ele><time>2026-04-06T08:03:26.911Z</time></trkpt><trkpt lat="45.85786512495602" lon="11.814181785251058"><ele>1022.0</ele><time>2026-04-06T08:03:35.911Z</time></trkpt><trkpt lat="45.857853258400155" lon="11.814283451689947"><ele>1022.0</ele><time>2026-04-06T08:03:46.91Z</time></trkpt><trkpt lat="45.85793100491928" lon="11.814346491905548"><ele>1022.0</ele><time>2026-04-06T08:03:58.91Z</time></trkpt><trkpt lat="45.8579720482772" lon="11.814419365167588"><ele>1022.0</ele><time>2026-04-06T08:04:01.91Z</time></trkpt><trkpt lat="45.85803911057605" lon="11.814466722658395"><ele>1022.0</ele><time>2026-04-06T08:04:07.91Z</time></trkpt><trkpt lat="45.85810689027543" lon="11.814548018104274"><ele>1022.0</ele><time>2026-04-06T08:04:18.91Z</time></trkpt><trkpt lat="45.858186635866396" lon="11.81457198679098"><ele>1022.0</ele><time>2026-04-06T08:04:24.91Z</time></trkpt><trkpt lat="45.85824977106278" lon="11.814634483461383"><ele>1022.0</ele><time>2026-04-06T08:04:38.91Z</time></trkpt><trkpt lat="45.85828873791848" lon="11.814713928448809"><ele>1022.0</ele><time>2026-04-06T08:04:46.91Z</time></trkpt><trkpt lat="45.85829093576157" lon="11.814805291353206"><ele>1022.0</ele><time>2026-04-06T08:04:53.91Z</time></trkpt><trkpt lat="45.85824300972302" lon="11.814869110451307"><ele>1022.0</ele><time>2026-04-06T08:04:59.91Z</time></trkpt><trkpt lat="45.85819974959021" lon="11.814960927830082"><ele>1022.0</ele><time>2026-04-06T08:05:07.909Z</time></trkpt><trkpt lat="45.858165777637666" lon="11.815057585063393"><ele>1022.0</ele><time>2026-04-06T08:05:15.909Z</time></trkpt><trkpt lat="45.85819043612413" lon="11.815150327836928"><ele>1022.0</ele><time>2026-04-06T08:05:23.908Z</time></trkpt><trkpt lat="45.85819891945147" lon="11.815247658698013"><ele>1022.0</ele><time>2026-04-06T08:05:31.908Z</time></trkpt><trkpt lat="45.85816927885364" lon="11.815346469776262"><ele>1022.0</ele><time>2026-04-06T08:05:38.908Z</time></trkpt><trkpt lat="45.858126356405435" lon="11.815420160396362"><ele>1022.0</ele><time>2026-04-06T08:05:51.908Z</time></trkpt><trkpt lat="45.858185794749694" lon="11.81547128634976"><ele>1022.0</ele><time>2026-04-06T08:06:01.908Z</time></trkpt><trkpt lat="45.858208312508154" lon="11.815605435946763"><ele>1022.0</ele><time>2026-04-06T08:06:13.908Z</time></trkpt><trkpt lat="45.858219237441055" lon="11.815695293835272"><ele>1024.0</ele><time>2026-04-06T08:06:18.908Z</time></trkpt><trkpt lat="45.858183662755856" lon="11.815785799519931"><ele>1026.0</ele><time>2026-04-06T08:06:24.908Z</time></trkpt><trkpt lat="45.85811547566984" lon="11.815837119627155"><ele>1028.0</ele><time>2026-04-06T08:06:30.908Z</time></trkpt><trkpt lat="45.85805132404517" lon="11.815879757280747"><ele>1030.0</ele><time>2026-04-06T08:06:37.908Z</time></trkpt><trkpt lat="45.85798810081845" lon="11.815891304505145"><ele>1032.0</ele><time>2026-04-06T08:06:44.908Z</time></trkpt><trkpt lat="45.85792849948116" lon="11.81593063784201"><ele>1034.0</ele><time>2026-04-06T08:06:51.908Z</time></trkpt><trkpt lat="45.85786384842534" lon="11.81597246978356"><ele>1036.0</ele><time>2026-04-06T08:06:57.907Z</time></trkpt><trkpt lat="45.85778947917121" lon="11.81595484084798"><ele>1036.0</ele><time>2026-04-06T08:07:09.907Z</time></trkpt><trkpt lat="45.857719865457746" lon="11.815958032720916"><ele>1036.0</ele><time>2026-04-06T08:07:20.907Z</time></trkpt><trkpt lat="45.857644446024935" lon="11.81594999869471"><ele>1036.0</ele><time>2026-04-06T08:07:31.906Z</time></trkpt><trkpt lat="45.85757823426231" lon="11.815926966578743"><ele>1036.0</ele><time>2026-04-06T08:07:39.907Z</time></trkpt><trkpt lat="45.85751593888123" lon="11.815909728795209"><ele>1036.0</ele><time>2026-04-06T08:07:46.906Z</time></trkpt><trkpt lat="45.85744677629883" lon="11.815915616460419"><ele>1036.0</ele><time>2026-04-06T08:07:58.906Z</time></trkpt><trkpt lat="45.85745774394578" lon="11.816009592384775"><ele>1036.0</ele><time>2026-04-06T08:08:13.906Z</time></trkpt><trkpt lat="45.85752127773497" lon="11.816005541443038"><ele>1038.4285714285713</ele><time>2026-04-06T08:08:21.906Z</time></trkpt><trkpt lat="45.857565645550984" lon="11.816070997768948"><ele>1040.857142857143</ele><time>2026-04-06T08:08:31.906Z</time></trkpt><trkpt lat="45.857647111811595" lon="11.816086378512514"><ele>1043.2857142857142</ele><time>2026-04-06T08:08:38.906Z</time></trkpt><trkpt lat="45.85771554880904" lon="11.816083443331381"><ele>1045.7142857142858</ele><time>2026-04-06T08:08:48.906Z</time></trkpt><trkpt lat="45.85778609788042" lon="11.816110829618093"><ele>1048.142857142857</ele><time>2026-04-06T08:08:56.906Z</time></trkpt><trkpt lat="45.85786644512981" lon="11.816134520793483"><ele>1050.5714285714284</ele><time>2026-04-06T08:09:06.905Z</time></trkpt><trkpt lat="45.857937388407244" lon="11.816153756122254"><ele>1053.0</ele><time>2026-04-06T08:09:17.905Z</time></trkpt><trkpt lat="45.85800353003125" lon="11.816144773170645"><ele>1049.6</ele><time>2026-04-06T08:09:25.905Z</time></trkpt><trkpt lat="45.8580754770593" lon="11.81614251394772"><ele>1046.1999999999998</ele><time>2026-04-06T08:09:33.905Z</time></trkpt><trkpt lat="45.85810064698198" lon="11.815920079293223"><ele>1042.8</ele><time>2026-04-06T08:10:19.903Z</time></trkpt><trkpt lat="45.85811795995017" lon="11.816021019974698"><ele>1039.3999999999999</ele><time>2026-04-06T08:10:27.903Z</time></trkpt><trkpt lat="45.85805137749788" lon="11.816155912608238"><ele>1036.0</ele><time>2026-04-06T08:10:46.903Z</time></trkpt><trkpt lat="45.857978322312746" lon="11.816155650125014"><ele>1038.4285714285713</ele><time>2026-04-06T08:10:59.903Z</time></trkpt><trkpt lat="45.85794903176975" lon="11.81623759315947"><ele>1040.857142857143</ele><time>2026-04-06T08:11:04.903Z</time></trkpt><trkpt lat="45.857886415995544" lon="11.816271105688703"><ele>1043.2857142857142</ele><time>2026-04-06T08:11:12.903Z</time></trkpt><trkpt lat="45.85782552437292" lon="11.81624608412789"><ele>1045.7142857142858</ele><time>2026-04-06T08:11:20.902Z</time></trkpt><trkpt lat="45.857771297032336" lon="11.8161937191803"><ele>1048.142857142857</ele><time>2026-04-06T08:11:27.902Z</time></trkpt><trkpt lat="45.857713810535365" lon="11.816241064338346"><ele>1050.5714285714284</ele><time>2026-04-06T08:11:36.902Z</time></trkpt><trkpt lat="45.857652197247276" lon="11.816262758161017"><ele>1053.0</ele><time>2026-04-06T08:11:42.902Z</time></trkpt><trkpt lat="45.85759282252299" lon="11.816305976781015"><ele>1052.9999999999998</ele><time>2026-04-06T08:11:50.902Z</time></trkpt><trkpt lat="45.85753460749548" lon="11.81625700218064"><ele>1053.0</ele><time>2026-04-06T08:11:58.902Z</time></trkpt><trkpt lat="45.857468288286334" lon="11.816242676898806"><ele>1053.0</ele><time>2026-04-06T08:12:06.902Z</time></trkpt><trkpt lat="45.85742374678444" lon="11.816307728319694"><ele>1053.0</ele><time>2026-04-06T08:12:14.902Z</time></trkpt><trkpt lat="45.85737326087286" lon="11.816364586053645"><ele>1053.0</ele><time>2026-04-06T08:12:22.902Z</time></trkpt><trkpt lat="45.857315808857514" lon="11.816433395668732"><ele>1052.9999999999998</ele><time>2026-04-06T08:12:34.902Z</time></trkpt><trkpt lat="45.857260579865375" lon="11.816499982382329"><ele>1053.0</ele><time>2026-04-06T08:12:42.902Z</time></trkpt><trkpt lat="45.8572057433368" lon="11.8165753280438"><ele>1052.9999999999998</ele><time>2026-04-06T08:12:50.901Z</time></trkpt><trkpt lat="45.857180167120035" lon="11.816667936211621"><ele>1053.0</ele><time>2026-04-06T08:12:56.902Z</time></trkpt><trkpt lat="45.857151269264655" lon="11.816755655548613"><ele>1053.0</ele><time>2026-04-06T08:13:03.905Z</time></trkpt><trkpt lat="45.85709554222241" lon="11.816836209007423"><ele>1053.0</ele><time>2026-04-06T08:13:15.908Z</time></trkpt><trkpt lat="45.85703812580957" lon="11.816879921928114"><ele>1053.0</ele><time>2026-04-06T08:13:22.908Z</time></trkpt><trkpt lat="45.85703393566241" lon="11.816981043342615"><ele>1052.9999999999998</ele><time>2026-04-06T08:13:49.909Z</time></trkpt><trkpt lat="45.85708477228185" lon="11.816923892495945"><ele>1053.0</ele><time>2026-04-06T08:14:01.908Z</time></trkpt><trkpt lat="45.8571436719971" lon="11.816884129345565"><ele>1052.9999999999998</ele><time>2026-04-06T08:14:08.908Z</time></trkpt><trkpt lat="45.85714231638648" lon="11.81679007193055"><ele>1053.0</ele><time>2026-04-06T08:14:16.908Z</time></trkpt><trkpt lat="45.85719027973937" lon="11.816712391443039"><ele>1053.0</ele><time>2026-04-06T08:14:25.908Z</time></trkpt><trkpt lat="45.85724964754967" lon="11.816682093653442"><ele>1053.0</ele><time>2026-04-06T08:14:35.908Z</time></trkpt><trkpt lat="45.85731126155923" lon="11.81664980578776"><ele>1053.0</ele><time>2026-04-06T08:14:43.908Z</time></trkpt><trkpt lat="45.85733741868435" lon="11.816558877575925"><ele>1052.9999999999998</ele><time>2026-04-06T08:14:47.908Z</time></trkpt><trkpt lat="45.85735907801244" lon="11.816469004029017"><ele>1053.0</ele><time>2026-04-06T08:14:52.908Z</time></trkpt><trkpt lat="45.857426258983175" lon="11.81645061652328"><ele>1052.9999999999998</ele><time>2026-04-06T08:14:58.908Z</time></trkpt><trkpt lat="45.85748359296914" lon="11.816495731082698"><ele>1053.0</ele><time>2026-04-06T08:15:07.908Z</time></trkpt><trkpt lat="45.85754746557712" lon="11.816513241962127"><ele>1053.0</ele><time>2026-04-06T08:15:13.908Z</time></trkpt><trkpt lat="45.85758282025149" lon="11.816590194702387"><ele>1053.0</ele><time>2026-04-06T08:15:24.908Z</time></trkpt><trkpt lat="45.85764951599086" lon="11.816634823761696"><ele>1053.0</ele><time>2026-04-06T08:15:31.908Z</time></trkpt><trkpt lat="45.85771295550657" lon="11.816651037612084"><ele>1052.9999999999998</ele><time>2026-04-06T08:15:34.908Z</time></trkpt><trkpt lat="45.85777806052786" lon="11.816695148322927"><ele>1053.0</ele><time>2026-04-06T08:15:40.908Z</time></trkpt><trkpt lat="45.85784537272713" lon="11.816690528040763"><ele>1056.142857142857</ele><time>2026-04-06T08:15:47.907Z</time></trkpt><trkpt lat="45.8579106982983" lon="11.816687629829566"><ele>1059.2857142857142</ele><time>2026-04-06T08:15:55.907Z</time></trkpt><trkpt lat="45.85797183302426" lon="11.816659779018329"><ele>1062.4285714285716</ele><time>2026-04-06T08:16:03.907Z</time></trkpt><trkpt lat="45.85803506514164" lon="11.816713119233636"><ele>1065.5714285714284</ele><time>2026-04-06T08:16:15.906Z</time></trkpt><trkpt lat="45.858096271835144" lon="11.81675115461903"><ele>1068.7142857142858</ele><time>2026-04-06T08:16:19.906Z</time></trkpt><trkpt lat="45.85819963284305" lon="11.816815760319308"><ele>1071.857142857143</ele><time>2026-04-06T08:16:34.906Z</time></trkpt><trkpt lat="45.858260525481576" lon="11.816845713448187"><ele>1075.0</ele><time>2026-04-06T08:16:43.906Z</time></trkpt><trkpt lat="45.858332139936806" lon="11.81681037577834"><ele>1075.0000000000002</ele><time>2026-04-06T08:16:54.906Z</time></trkpt><trkpt lat="45.858397011265154" lon="11.816794061713809"><ele>1075.0</ele><time>2026-04-06T08:17:01.906Z</time></trkpt><trkpt lat="45.85845831821362" lon="11.816757269550417"><ele>1075.0</ele><time>2026-04-06T08:17:08.906Z</time></trkpt><trkpt lat="45.8585215943107" lon="11.81675705319858"><ele>1075.0</ele><time>2026-04-06T08:17:18.906Z</time></trkpt><trkpt lat="45.858521146189545" lon="11.816850380157353"><ele>1075.0</ele><time>2026-04-06T08:17:49.906Z</time></trkpt><trkpt lat="45.85845256986942" lon="11.816855259032922"><ele>1075.0000000000002</ele><time>2026-04-06T08:17:56.905Z</time></trkpt><trkpt lat="45.8583993952359" lon="11.816907255433106"><ele>1075.0</ele><time>2026-04-06T08:18:06.905Z</time></trkpt><trkpt lat="45.85836349365417" lon="11.816989047062721"><ele>1082.3333333333333</ele><time>2026-04-06T08:18:12.905Z</time></trkpt><trkpt lat="45.85829732628198" lon="11.816971369846422"><ele>1089.6666666666665</ele><time>2026-04-06T08:18:18.905Z</time></trkpt><trkpt lat="45.858234162346314" lon="11.8169884649081"><ele>1097.0</ele><time>2026-04-06T08:18:23.905Z</time></trkpt><trkpt lat="45.858163730522534" lon="11.817022767423111"><ele>1104.3333333333333</ele><time>2026-04-06T08:18:29.905Z</time></trkpt><trkpt lat="45.85808908189422" lon="11.817021675688167"><ele>1111.6666666666667</ele><time>2026-04-06T08:18:36.905Z</time></trkpt><trkpt lat="45.85803278344679" lon="11.816975606295044"><ele>1119.0</ele><time>2026-04-06T08:18:46.904Z</time></trkpt><trkpt lat="45.85792778088388" lon="11.81708698015236"><ele>1119.0</ele><time>2026-04-06T08:19:33.904Z</time></trkpt><trkpt lat="45.857833967179715" lon="11.817084219328995"><ele>1119.0</ele><time>2026-04-06T08:19:47.904Z</time></trkpt><trkpt lat="45.8577636730289" lon="11.817054343751781"><ele>1119.0</ele><time>2026-04-06T08:19:57.904Z</time></trkpt><trkpt lat="45.85768876893067" lon="11.817077318787806"><ele>1119.0</ele><time>2026-04-06T08:20:08.904Z</time></trkpt><trkpt lat="45.85770439991024" lon="11.817188330606438"><ele>1119.0</ele><time>2026-04-06T08:20:36.903Z</time></trkpt><trkpt lat="45.85778056131409" lon="11.817196308846086"><ele>1119.0</ele><time>2026-04-06T08:20:45.903Z</time></trkpt><trkpt lat="45.85783976451664" lon="11.817164910837365"><ele>1119.0</ele><time>2026-04-06T08:20:51.903Z</time></trkpt><trkpt lat="45.85790249165421" lon="11.817132318805845"><ele>1119.0</ele><time>2026-04-06T08:20:57.903Z</time></trkpt><trkpt lat="45.85796857598289" lon="11.817156964303157"><ele>1119.0</ele><time>2026-04-06T08:21:03.903Z</time></trkpt><trkpt lat="45.858043936353965" lon="11.817143024362576"><ele>1119.0</ele><time>2026-04-06T08:21:10.903Z</time></trkpt><trkpt lat="45.85808870957317" lon="11.817216132240741"><ele>1119.0</ele><time>2026-04-06T08:21:17.903Z</time></trkpt><trkpt lat="45.8581254733793" lon="11.817294606849508"><ele>1119.0</ele><time>2026-04-06T08:21:25.903Z</time></trkpt><trkpt lat="45.85820108951459" lon="11.81729094844596"><ele>1119.0</ele><time>2026-04-06T08:21:34.903Z</time></trkpt><trkpt lat="45.85826485060779" lon="11.81728044864994"><ele>1119.0</ele><time>2026-04-06T08:21:41.903Z</time></trkpt><trkpt lat="45.85833359271951" lon="11.817279061569225"><ele>1119.0</ele><time>2026-04-06T08:21:50.903Z</time></trkpt><trkpt lat="45.858410126123495" lon="11.817275268230388"><ele>1119.0</ele><time>2026-04-06T08:21:59.903Z</time></trkpt><trkpt lat="45.85847853139312" lon="11.817279809268234"><ele>1119.0</ele><time>2026-04-06T08:22:10.902Z</time></trkpt><trkpt lat="45.85853636188955" lon="11.817333229555263"><ele>1119.0</ele><time>2026-04-06T08:22:15.901Z</time></trkpt><trkpt lat="45.85859202162366" lon="11.817395309646017"><ele>1119.0</ele><time>2026-04-06T08:22:21.901Z</time></trkpt><trkpt lat="45.85867650511952" lon="11.817394112756107"><ele>1119.0</ele><time>2026-04-06T08:22:33.901Z</time></trkpt><trkpt lat="45.858756310100766" lon="11.817360638620656"><ele>1120.857142857143</ele><time>2026-04-06T08:22:39.901Z</time></trkpt><trkpt lat="45.85882009519201" lon="11.817330325694845"><ele>1122.7142857142858</ele><time>2026-04-06T08:22:49.901Z</time></trkpt><trkpt lat="45.85889148663615" lon="11.817319529302456"><ele>1124.5714285714287</ele><time>2026-04-06T08:22:56.901Z</time></trkpt><trkpt lat="45.85895734642789" lon="11.817278662818243"><ele>1126.4285714285716</ele><time>2026-04-06T08:23:05.901Z</time></trkpt><trkpt lat="45.85903211380391" lon="11.817275946441887"><ele>1128.2857142857144</ele><time>2026-04-06T08:23:13.901Z</time></trkpt><trkpt lat="45.859108261076386" lon="11.817255336083756"><ele>1130.142857142857</ele><time>2026-04-06T08:23:21.901Z</time></trkpt><trkpt lat="45.859156960878664" lon="11.817189047314454"><ele>1132.0</ele><time>2026-04-06T08:23:30.901Z</time></trkpt><trkpt lat="45.85918140250343" lon="11.817098089928647"><ele>1132.0</ele><time>2026-04-06T08:23:37.901Z</time></trkpt><trkpt lat="45.859249260312275" lon="11.817148548797125"><ele>1132.0</ele><time>2026-04-06T08:23:47.901Z</time></trkpt><trkpt lat="45.85928981979985" lon="11.817074216892477"><ele>1132.0</ele><time>2026-04-06T08:23:54.9Z</time></trkpt><trkpt lat="45.859359760273016" lon="11.81704488091563"><ele>1132.0</ele><time>2026-04-06T08:24:02.9Z</time></trkpt><trkpt lat="45.859423588784374" lon="11.81698979755358"><ele>1132.0</ele><time>2026-04-06T08:24:09.9Z</time></trkpt><trkpt lat="45.85946320653189" lon="11.816904565936488"><ele>1132.0</ele><time>2026-04-06T08:24:17.9Z</time></trkpt><trkpt lat="45.85954275626778" lon="11.816916223464533"><ele>1132.0</ele><time>2026-04-06T08:24:23.9Z</time></trkpt><trkpt lat="45.85959706470514" lon="11.81686178461867"><ele>1134.5714285714287</ele><time>2026-04-06T08:24:30.899Z</time></trkpt><trkpt lat="45.85960299015497" lon="11.816771674038108"><ele>1137.1428571428573</ele><time>2026-04-06T08:24:39.899Z</time></trkpt><trkpt lat="45.85961346483576" lon="11.816674649820484"><ele>1139.7142857142858</ele><time>2026-04-06T08:24:42.899Z</time></trkpt><trkpt lat="45.85964381224873" lon="11.816587764484446"><ele>1142.2857142857142</ele><time>2026-04-06T08:24:50.899Z</time></trkpt><trkpt lat="45.859679971841885" lon="11.816503538297528"><ele>1144.8571428571427</ele><time>2026-04-06T08:24:58.899Z</time></trkpt><trkpt lat="45.85969664763298" lon="11.816405381506483"><ele>1147.4285714285713</ele><time>2026-04-06T08:25:05.899Z</time></trkpt><trkpt lat="45.85972098258149" lon="11.81626559373855"><ele>1150.0</ele><time>2026-04-06T08:25:19.899Z</time></trkpt><trkpt lat="45.859729058349956" lon="11.81615477151715"><ele>1150.0</ele><time>2026-04-06T08:25:27.899Z</time></trkpt><trkpt lat="45.859773998800264" lon="11.8160403962651"><ele>1150.0</ele><time>2026-04-06T08:25:43.898Z</time></trkpt><trkpt lat="45.85975871900013" lon="11.815946405605263"><ele>1150.0</ele><time>2026-04-06T08:25:53.898Z</time></trkpt><trkpt lat="45.85978806533456" lon="11.81583374623654"><ele>1150.0</ele><time>2026-04-06T08:26:01.898Z</time></trkpt><trkpt lat="45.859842590797115" lon="11.815782864282998"><ele>1150.0</ele><time>2026-04-06T08:26:08.898Z</time></trkpt><trkpt lat="45.85990593913283" lon="11.815722767416833"><ele>1150.0</ele><time>2026-04-06T08:26:19.898Z</time></trkpt><trkpt lat="45.859967354133616" lon="11.815660343191219"><ele>1148.5714285714284</ele><time>2026-04-06T08:26:29.898Z</time></trkpt><trkpt lat="45.860038949747086" lon="11.815649430105697"><ele>1147.142857142857</ele><time>2026-04-06T08:26:37.897Z</time></trkpt><trkpt lat="45.860054050334824" lon="11.81556008149302"><ele>1145.7142857142858</ele><time>2026-04-06T08:26:43.897Z</time></trkpt><trkpt lat="45.860052328364134" lon="11.815453705173844"><ele>1144.2857142857142</ele><time>2026-04-06T08:26:49.897Z</time></trkpt><trkpt lat="45.86008254681357" lon="11.815365796594989"><ele>1142.857142857143</ele><time>2026-04-06T08:26:54.897Z</time></trkpt><trkpt lat="45.86007333254338" lon="11.815270373613481"><ele>1141.4285714285713</ele><time>2026-04-06T08:27:01.897Z</time></trkpt><trkpt lat="45.860072218235736" lon="11.815174572191776"><ele>1140.0</ele><time>2026-04-06T08:27:09.897Z</time></trkpt><trkpt lat="45.86008663732499" lon="11.815072074660863"><ele>1139.2857142857142</ele><time>2026-04-06T08:27:16.897Z</time></trkpt><trkpt lat="45.86008974886274" lon="11.81496335345692"><ele>1138.5714285714287</ele><time>2026-04-06T08:27:23.897Z</time></trkpt><trkpt lat="45.860070793899595" lon="11.8148647416129"><ele>1137.857142857143</ele><time>2026-04-06T08:27:27.897Z</time></trkpt><trkpt lat="45.86003250588142" lon="11.814778170850499"><ele>1137.142857142857</ele><time>2026-04-06T08:27:37.897Z</time></trkpt><trkpt lat="45.86001733956359" lon="11.814687825339503"><ele>1136.4285714285713</ele><time>2026-04-06T08:27:43.897Z</time></trkpt><trkpt lat="45.8599748819213" lon="11.814613825189895"><ele>1135.7142857142858</ele><time>2026-04-06T08:27:50.897Z</time></trkpt><trkpt lat="45.859953218768645" lon="11.81452104590308"><ele>1135.0</ele><time>2026-04-06T08:27:58.897Z</time></trkpt><trkpt lat="45.85991620089599" lon="11.814434249078555"><ele>1135.0</ele><time>2026-04-06T08:28:07.897Z</time></trkpt><trkpt lat="45.85991144753144" lon="11.814342336282866"><ele>1135.0</ele><time>2026-04-06T08:28:14.896Z</time></trkpt><trkpt lat="45.85990501816281" lon="11.814245365106148"><ele>1135.0</ele><time>2026-04-06T08:28:24.896Z</time></trkpt><trkpt lat="45.85989279799745" lon="11.814152644586196"><ele>1135.0</ele><time>2026-04-06T08:28:28.896Z</time></trkpt><trkpt lat="45.859853781589294" lon="11.814079990373553"><ele>1135.0</ele><time>2026-04-06T08:28:35.896Z</time></trkpt><trkpt lat="45.85980245497086" lon="11.81400970736684"><ele>1135.0</ele><time>2026-04-06T08:28:42.896Z</time></trkpt><trkpt lat="45.85975425050043" lon="11.813947090733665"><ele>1135.0</ele><time>2026-04-06T08:28:48.896Z</time></trkpt><trkpt lat="45.85969999853342" lon="11.81388830847289"><ele>1138.4285714285716</ele><time>2026-04-06T08:28:55.896Z</time></trkpt><trkpt lat="45.85965785595894" lon="11.813819852659316"><ele>1141.857142857143</ele><time>2026-04-06T08:29:03.895Z</time></trkpt><trkpt lat="45.85963840473158" lon="11.813732408572713"><ele>1145.2857142857142</ele><time>2026-04-06T08:29:09.895Z</time></trkpt><trkpt lat="45.85958885426321" lon="11.813672278738144"><ele>1148.7142857142858</ele><time>2026-04-06T08:29:15.895Z</time></trkpt><trkpt lat="45.85954744523798" lon="11.813599963363021"><ele>1152.142857142857</ele><time>2026-04-06T08:29:21.894Z</time></trkpt><trkpt lat="45.85950067335394" lon="11.813525217404337"><ele>1155.5714285714287</ele><time>2026-04-06T08:29:28.894Z</time></trkpt><trkpt lat="45.8594827564482" lon="11.81343081476202"><ele>1159.0</ele><time>2026-04-06T08:29:38.894Z</time></trkpt><trkpt lat="45.859459012759984" lon="11.813346971560463"><ele>1163.7142857142858</ele><time>2026-04-06T08:29:45.894Z</time></trkpt><trkpt lat="45.85945248916666" lon="11.813256098339306"><ele>1168.4285714285716</ele><time>2026-04-06T08:29:53.894Z</time></trkpt><trkpt lat="45.85943521452395" lon="11.813156516290992"><ele>1173.142857142857</ele><time>2026-04-06T08:30:00.894Z</time></trkpt><trkpt lat="45.85939278909339" lon="11.813084688211411"><ele>1177.857142857143</ele><time>2026-04-06T08:30:05.894Z</time></trkpt><trkpt lat="45.85935179851995" lon="11.813006955149199"><ele>1182.5714285714284</ele><time>2026-04-06T08:30:13.893Z</time></trkpt><trkpt lat="45.85931315698314" lon="11.812930868499059"><ele>1187.2857142857142</ele><time>2026-04-06T08:30:18.893Z</time></trkpt><trkpt lat="45.85931459509424" lon="11.812832170429958"><ele>1192.0</ele><time>2026-04-06T08:30:26.893Z</time></trkpt><trkpt lat="45.859347138661505" lon="11.812716629736453"><ele>1193.857142857143</ele><time>2026-04-06T08:30:38.892Z</time></trkpt><trkpt lat="45.85933374205552" lon="11.812609941539023"><ele>1195.7142857142856</ele><time>2026-04-06T08:30:46.892Z</time></trkpt><trkpt lat="45.859284414254525" lon="11.812540360176769"><ele>1197.5714285714284</ele><time>2026-04-06T08:30:53.892Z</time></trkpt><trkpt lat="45.85923342295985" lon="11.812463139554396"><ele>1199.4285714285713</ele><time>2026-04-06T08:31:00.892Z</time></trkpt><trkpt lat="45.85929375980538" lon="11.812428096473054"><ele>1201.2857142857142</ele><time>2026-04-06T08:31:08.892Z</time></trkpt><trkpt lat="45.859292590080365" lon="11.812323469884744"><ele>1203.142857142857</ele><time>2026-04-06T08:31:17.892Z</time></trkpt><trkpt lat="45.85935346685467" lon="11.812290965920532"><ele>1205.0</ele><time>2026-04-06T08:31:24.892Z</time></trkpt><trkpt lat="45.85941419377187" lon="11.812248294065968"><ele>1205.0</ele><time>2026-04-06T08:31:31.892Z</time></trkpt><trkpt lat="45.85948122506807" lon="11.812215473857258"><ele>1205.0</ele><time>2026-04-06T08:31:37.892Z</time></trkpt><trkpt lat="45.85954433566884" lon="11.812195260284495"><ele>1205.0</ele><time>2026-04-06T08:31:47.892Z</time></trkpt><trkpt lat="45.859615063369375" lon="11.812160859516268"><ele>1205.0</ele><time>2026-04-06T08:31:56.892Z</time></trkpt><trkpt lat="45.8596834233595" lon="11.812146669968325"><ele>1205.0</ele><time>2026-04-06T08:32:02.892Z</time></trkpt><trkpt lat="45.85973744842484" lon="11.812081548726976"><ele>1205.0</ele><time>2026-04-06T08:32:08.892Z</time></trkpt><trkpt lat="45.85974903993261" lon="11.81198028031557"><ele>1205.0</ele><time>2026-04-06T08:32:19.891Z</time></trkpt><trkpt lat="45.85971795682277" lon="11.81189247508776"><ele>1205.0</ele><time>2026-04-06T08:32:26.891Z</time></trkpt><trkpt lat="45.85964191902572" lon="11.81185095305086"><ele>1205.0</ele><time>2026-04-06T08:32:34.891Z</time></trkpt><trkpt lat="45.8596089223957" lon="11.811760003132822"><ele>1205.0</ele><time>2026-04-06T08:32:38.89Z</time></trkpt><trkpt lat="45.85959177170034" lon="11.811666145904747"><ele>1205.0</ele><time>2026-04-06T08:32:48.89Z</time></trkpt><trkpt lat="45.859531829502245" lon="11.811609226241517"><ele>1205.0</ele><time>2026-04-06T08:32:55.89Z</time></trkpt><trkpt lat="45.85951561275559" lon="11.811505684138538"><ele>1205.0</ele><time>2026-04-06T08:33:02.89Z</time></trkpt><trkpt lat="45.85949577626149" lon="11.811409786089573"><ele>1205.0</ele><time>2026-04-06T08:33:09.89Z</time></trkpt><trkpt lat="45.859507463294904" lon="11.811304185202214"><ele>1205.2857142857142</ele><time>2026-04-06T08:33:17.89Z</time></trkpt><trkpt lat="45.85946223647598" lon="11.81121154733344"><ele>1205.5714285714284</ele><time>2026-04-06T08:33:25.89Z</time></trkpt><trkpt lat="45.85940605682467" lon="11.811154760668675"><ele>1205.8571428571427</ele><time>2026-04-06T08:33:32.89Z</time></trkpt><trkpt lat="45.85938901881021" lon="11.811049500404026"><ele>1206.142857142857</ele><time>2026-04-06T08:33:40.889Z</time></trkpt><trkpt lat="45.859338465549115" lon="11.810981961349261"><ele>1206.4285714285713</ele><time>2026-04-06T08:33:48.889Z</time></trkpt><trkpt lat="45.859272147108605" lon="11.810979119404141"><ele>1206.7142857142856</ele><time>2026-04-06T08:33:53.889Z</time></trkpt><trkpt lat="45.85921801701128" lon="11.81092148945773"><ele>1207.0</ele><time>2026-04-06T08:34:00.889Z</time></trkpt><trkpt lat="45.85917939907128" lon="11.810846664872962"><ele>1203.2857142857142</ele><time>2026-04-06T08:34:09.889Z</time></trkpt><trkpt lat="45.85912670913697" lon="11.810777627747534"><ele>1199.5714285714284</ele><time>2026-04-06T08:34:16.889Z</time></trkpt><trkpt lat="45.85910438780932" lon="11.810693035528182"><ele>1195.857142857143</ele><time>2026-04-06T08:34:23.889Z</time></trkpt><trkpt lat="45.859049958363315" lon="11.810643618093465"><ele>1192.142857142857</ele><time>2026-04-06T08:34:30.889Z</time></trkpt><trkpt lat="45.85899585864233" lon="11.810589545447593"><ele>1188.4285714285716</ele><time>2026-04-06T08:36:06.888Z</time></trkpt><trkpt lat="45.85892814240503" lon="11.81059247785701"><ele>1184.7142857142858</ele><time>2026-04-06T08:36:13.888Z</time></trkpt><trkpt lat="45.85887677492727" lon="11.810532767809942"><ele>1181.0</ele><time>2026-04-06T08:36:20.888Z</time></trkpt><trkpt lat="45.85886469401695" lon="11.81043496193671"><ele>1181.0</ele><time>2026-04-06T08:36:29.888Z</time></trkpt><trkpt lat="45.85884254630055" lon="11.81031315971847"><ele>1181.0</ele><time>2026-04-06T08:36:39.888Z</time></trkpt><trkpt lat="45.85891078392855" lon="11.810316586493288"><ele>1181.0</ele><time>2026-04-06T08:36:57.886Z</time></trkpt><trkpt lat="45.85893966929574" lon="11.810425974467213"><ele>1181.0</ele><time>2026-04-06T08:37:06.886Z</time></trkpt><trkpt lat="45.85900366906777" lon="11.81042982215451"><ele>1181.0</ele><time>2026-04-06T08:37:15.886Z</time></trkpt><trkpt lat="45.859064857612736" lon="11.810373692029023"><ele>1181.0</ele><time>2026-04-06T08:37:23.886Z</time></trkpt><trkpt lat="45.85912691015397" lon="11.81043824347032"><ele>1181.0</ele><time>2026-04-06T08:37:30.886Z</time></trkpt><trkpt lat="45.85917283470893" lon="11.810511333225383"><ele>1181.0</ele><time>2026-04-06T08:37:36.886Z</time></trkpt><trkpt lat="45.85918634797622" lon="11.810612534199617"><ele>1181.0</ele><time>2026-04-06T08:37:42.886Z</time></trkpt><trkpt lat="45.85925084968298" lon="11.810665328633675"><ele>1181.0</ele><time>2026-04-06T08:37:52.886Z</time></trkpt><trkpt lat="45.859319599568984" lon="11.810661732501972"><ele>1181.0</ele><time>2026-04-06T08:38:03.886Z</time></trkpt><trkpt lat="45.85939366889187" lon="11.8106853625863"><ele>1181.0</ele><time>2026-04-06T08:38:10.885Z</time></trkpt><trkpt lat="45.859441556380325" lon="11.810750004961752"><ele>1181.0</ele><time>2026-04-06T08:38:18.885Z</time></trkpt><trkpt lat="45.85947497068091" lon="11.810827662627311"><ele>1184.7142857142858</ele><time>2026-04-06T08:39:13.884Z</time></trkpt><trkpt lat="45.8595402427857" lon="11.810838737675024"><ele>1188.4285714285716</ele><time>2026-04-06T08:39:20.884Z</time></trkpt><trkpt lat="45.85961569191611" lon="11.810844825116405"><ele>1192.142857142857</ele><time>2026-04-06T08:39:28.884Z</time></trkpt><trkpt lat="45.859679992656666" lon="11.810857305048328"><ele>1195.857142857143</ele><time>2026-04-06T08:39:38.884Z</time></trkpt><trkpt lat="45.85975900303487" lon="11.81083166193621"><ele>1199.5714285714284</ele><time>2026-04-06T08:39:47.884Z</time></trkpt><trkpt lat="45.85978915783018" lon="11.81091199803825"><ele>1203.2857142857142</ele><time>2026-04-06T08:39:57.884Z</time></trkpt><trkpt lat="45.85982484753697" lon="11.810987762503201"><ele>1207.0</ele><time>2026-04-06T08:40:07.884Z</time></trkpt><trkpt lat="45.85985477801513" lon="11.811067950091301"><ele>1206.9999999999998</ele><time>2026-04-06T08:40:15.883Z</time></trkpt><trkpt lat="45.85983939418634" lon="11.811183950170317"><ele>1207.0</ele><time>2026-04-06T08:40:29.883Z</time></trkpt><trkpt lat="45.85987843554364" lon="11.811277708602358"><ele>1207.0</ele><time>2026-04-06T08:40:46.883Z</time></trkpt><trkpt lat="45.85992688691901" lon="11.811338598928769"><ele>1207.0</ele><time>2026-04-06T08:40:55.883Z</time></trkpt><trkpt lat="45.85997654473871" lon="11.811401061636042"><ele>1207.0</ele><time>2026-04-06T08:40:59.882Z</time></trkpt><trkpt lat="45.86003654244784" lon="11.811437402332668"><ele>1206.9999999999998</ele><time>2026-04-06T08:41:06.882Z</time></trkpt><trkpt lat="45.860103129703894" lon="11.811469282780056"><ele>1207.0</ele><time>2026-04-06T08:41:15.882Z</time></trkpt><trkpt lat="45.860176379061436" lon="11.811499043319191"><ele>1213.7142857142856</ele><time>2026-04-06T08:41:25.882Z</time></trkpt><trkpt lat="45.860242064248176" lon="11.811537153136877"><ele>1220.4285714285713</ele><time>2026-04-06T08:41:34.882Z</time></trkpt><trkpt lat="45.86029854212761" lon="11.811495791790737"><ele>1227.142857142857</ele><time>2026-04-06T08:41:41.882Z</time></trkpt><trkpt lat="45.86033841573306" lon="11.811571447074776"><ele>1233.8571428571427</ele><time>2026-04-06T08:41:51.882Z</time></trkpt><trkpt lat="45.86032196036464" lon="11.811669616993251"><ele>1240.5714285714284</ele><time>2026-04-06T08:41:59.882Z</time></trkpt><trkpt lat="45.86037790410495" lon="11.811717851966684"><ele>1247.2857142857142</ele><time>2026-04-06T08:42:05.881Z</time></trkpt><trkpt lat="45.860428975550555" lon="11.81177797998464"><ele>1254.0</ele><time>2026-04-06T08:42:17.881Z</time></trkpt><trkpt lat="45.86048431316116" lon="11.811831306664654"><ele>1254.0</ele><time>2026-04-06T08:42:25.881Z</time></trkpt><trkpt lat="45.860545414846584" lon="11.81187886714561"><ele>1254.0</ele><time>2026-04-06T08:42:32.881Z</time></trkpt><trkpt lat="45.86059768165336" lon="11.811932480291176"><ele>1254.0</ele><time>2026-04-06T08:42:40.881Z</time></trkpt><trkpt lat="45.86065156545783" lon="11.811981047724835"><ele>1254.0</ele><time>2026-04-06T08:42:46.881Z</time></trkpt><trkpt lat="45.86064311991288" lon="11.812070902506697"><ele>1254.0</ele><time>2026-04-06T08:42:58.881Z</time></trkpt><trkpt lat="45.86057401762128" lon="11.812092939723042"><ele>1254.0</ele><time>2026-04-06T08:43:09.88Z</time></trkpt><trkpt lat="45.860519923616735" lon="11.812160275258016"><ele>1254.0</ele><time>2026-04-06T08:43:15.88Z</time></trkpt><trkpt lat="45.860477571083834" lon="11.812235345895816"><ele>1254.0</ele><time>2026-04-06T08:43:21.88Z</time></trkpt><trkpt lat="45.860422485304774" lon="11.812299194209878"><ele>1254.0</ele><time>2026-04-06T08:43:29.88Z</time></trkpt><trkpt lat="45.86036889215603" lon="11.812360203082747"><ele>1254.0</ele><time>2026-04-06T08:43:37.88Z</time></trkpt><trkpt lat="45.860318032029646" lon="11.812432976018853"><ele>1254.0</ele><time>2026-04-06T08:43:46.88Z</time></trkpt><trkpt lat="45.86026805281336" lon="11.812491860921273"><ele>1254.0</ele><time>2026-04-06T08:43:52.88Z</time></trkpt><trkpt lat="45.86021138335765" lon="11.812555628890816"><ele>1254.0</ele><time>2026-04-06T08:44:01.88Z</time></trkpt><trkpt lat="45.86018979223614" lon="11.81264342148304"><ele>1254.0</ele><time>2026-04-06T08:44:17.879Z</time></trkpt><trkpt lat="45.860249675710214" lon="11.812598197860162"><ele>1254.0</ele><time>2026-04-06T08:44:27.879Z</time></trkpt><trkpt lat="45.86032254977732" lon="11.812602122060241"><ele>1254.0</ele><time>2026-04-06T08:44:33.879Z</time></trkpt><trkpt lat="45.860385206276646" lon="11.812618333570153"><ele>1254.0</ele><time>2026-04-06T08:44:38.879Z</time></trkpt><trkpt lat="45.860437063192656" lon="11.8126722463581"><ele>1254.0</ele><time>2026-04-06T08:44:44.879Z</time></trkpt><trkpt lat="45.860492781989336" lon="11.812724524014019"><ele>1254.0</ele><time>2026-04-06T08:44:52.879Z</time></trkpt><trkpt lat="45.86053445893535" lon="11.812816798760355"><ele>1254.0</ele><time>2026-04-06T08:44:59.879Z</time></trkpt><trkpt lat="45.860552992937095" lon="11.81291298429854"><ele>1254.0</ele><time>2026-04-06T08:45:04.879Z</time></trkpt><trkpt lat="45.86059623022571" lon="11.812981520553851"><ele>1252.7142857142858</ele><time>2026-04-06T08:45:10.879Z</time></trkpt><trkpt lat="45.86063447642132" lon="11.813058031416004"><ele>1251.4285714285713</ele><time>2026-04-06T08:45:18.878Z</time></trkpt><trkpt lat="45.86068525846863" lon="11.813111714777158"><ele>1250.142857142857</ele><time>2026-04-06T08:45:25.878Z</time></trkpt><trkpt lat="45.860730453057165" lon="11.81318660405272"><ele>1248.857142857143</ele><time>2026-04-06T08:45:32.878Z</time></trkpt><trkpt lat="45.86076614827648" lon="11.813279495955728"><ele>1247.5714285714287</ele><time>2026-04-06T08:45:39.878Z</time></trkpt><trkpt lat="45.86079900885629" lon="11.813379323465925"><ele>1246.2857142857142</ele><time>2026-04-06T08:45:49.878Z</time></trkpt><trkpt lat="45.860840405980014" lon="11.813453130739656"><ele>1245.0</ele><time>2026-04-06T08:45:56.878Z</time></trkpt><trkpt lat="45.86087824299979" lon="11.813530282029182"><ele>1241.4285714285713</ele><time>2026-04-06T08:46:04.878Z</time></trkpt><trkpt lat="45.86093016974517" lon="11.8135825858971"><ele>1237.857142857143</ele><time>2026-04-06T08:46:12.878Z</time></trkpt><trkpt lat="45.860979724019124" lon="11.813648862686824"><ele>1234.2857142857142</ele><time>2026-04-06T08:46:19.878Z</time></trkpt><trkpt lat="45.8610283877811" lon="11.813708229685725"><ele>1230.7142857142858</ele><time>2026-04-06T08:46:24.877Z</time></trkpt><trkpt lat="45.861069634675026" lon="11.813790141673087"><ele>1227.142857142857</ele><time>2026-04-06T08:46:31.877Z</time></trkpt><trkpt lat="45.86109608044837" lon="11.813874444151065"><ele>1223.5714285714287</ele><time>2026-04-06T08:46:39.877Z</time></trkpt><trkpt lat="45.8611264818924" lon="11.813777767178545"><ele>1220.0</ele><time>2026-04-06T08:47:11.877Z</time></trkpt><trkpt lat="45.8610940266117" lon="11.813694063894433"><ele>1229.142857142857</ele><time>2026-04-06T08:47:19.876Z</time></trkpt><trkpt lat="45.86105730903495" lon="11.813616742590066"><ele>1238.2857142857142</ele><time>2026-04-06T08:47:28.876Z</time></trkpt><trkpt lat="45.86102076764609" lon="11.813528531239028"><ele>1247.4285714285713</ele><time>2026-04-06T08:47:36.876Z</time></trkpt><trkpt lat="45.8610041811229" lon="11.81344008485556"><ele>1256.5714285714284</ele><time>2026-04-06T08:47:43.876Z</time></trkpt><trkpt lat="45.86101109536431" lon="11.813350022846011"><ele>1265.7142857142858</ele><time>2026-04-06T08:47:51.876Z</time></trkpt><trkpt lat="45.86099073492567" lon="11.813258131129354"><ele>1274.8571428571427</ele><time>2026-04-06T08:47:59.876Z</time></trkpt><trkpt lat="45.86097445201734" lon="11.81316829511802"><ele>1284.0</ele><time>2026-04-06T08:48:06.876Z</time></trkpt><trkpt lat="45.86095392718036" lon="11.813076139834193"><ele>1286.2857142857142</ele><time>2026-04-06T08:48:12.876Z</time></trkpt><trkpt lat="45.86090602950192" lon="11.81299614407058"><ele>1288.5714285714284</ele><time>2026-04-06T08:48:20.876Z</time></trkpt><trkpt lat="45.860861390903224" lon="11.812909742483848"><ele>1290.8571428571427</ele><time>2026-04-06T08:48:28.876Z</time></trkpt><trkpt lat="45.86082280894759" lon="11.81282195921395"><ele>1293.142857142857</ele><time>2026-04-06T08:48:38.876Z</time></trkpt><trkpt lat="45.860892586068495" lon="11.81280164358022"><ele>1295.4285714285716</ele><time>2026-04-06T08:48:56.876Z</time></trkpt><trkpt lat="45.860960470398176" lon="11.812831955468406"><ele>1297.7142857142856</ele><time>2026-04-06T08:49:05.875Z</time></trkpt><trkpt lat="45.8610247999613" lon="11.812869994580401"><ele>1300.0</ele><time>2026-04-06T08:49:14.875Z</time></trkpt><trkpt lat="45.86105103272769" lon="11.812963013026117"><ele>1300.0</ele><time>2026-04-06T08:49:22.875Z</time></trkpt><trkpt lat="45.86108944980255" lon="11.813053470108994"><ele>1300.0</ele><time>2026-04-06T08:49:32.874Z</time></trkpt><trkpt lat="45.861107683696346" lon="11.813146588728431"><ele>1300.0</ele><time>2026-04-06T08:49:40.874Z</time></trkpt><trkpt lat="45.86115689723982" lon="11.81323622684238"><ele>1300.0</ele><time>2026-04-06T08:49:47.873Z</time></trkpt><trkpt lat="45.861247464886986" lon="11.813352922270917"><ele>1300.0</ele><time>2026-04-06T08:50:02.873Z</time></trkpt><trkpt lat="45.86128172765096" lon="11.813431241198586"><ele>1300.0</ele><time>2026-04-06T08:50:09.873Z</time></trkpt><trkpt lat="45.861330287202506" lon="11.813492401663163"><ele>1297.7142857142856</ele><time>2026-04-06T08:50:17.873Z</time></trkpt><trkpt lat="45.8613795028739" lon="11.813553611363332"><ele>1295.4285714285716</ele><time>2026-04-06T08:50:26.873Z</time></trkpt><trkpt lat="45.861429627962245" lon="11.81361357961084"><ele>1293.142857142857</ele><time>2026-04-06T08:50:35.873Z</time></trkpt><trkpt lat="45.861488374041485" lon="11.81368903089606"><ele>1290.8571428571427</ele><time>2026-04-06T08:50:44.873Z</time></trkpt><trkpt lat="45.861535042116664" lon="11.813753228006735"><ele>1288.5714285714284</ele><time>2026-04-06T08:50:54.873Z</time></trkpt><trkpt lat="45.861531766559374" lon="11.813844657820894"><ele>1286.2857142857142</ele><time>2026-04-06T08:51:01.873Z</time></trkpt><trkpt lat="45.86154473060896" lon="11.813753229499772"><ele>1284.0</ele><time>2026-04-06T08:51:39.872Z</time></trkpt><trkpt lat="45.86157150580011" lon="11.813664134599208"><ele>1283.9999999999998</ele><time>2026-04-06T08:51:49.871Z</time></trkpt><trkpt lat="45.86153347037204" lon="11.813572863107352"><ele>1284.0</ele><time>2026-04-06T08:52:01.871Z</time></trkpt><trkpt lat="45.86150016320673" lon="11.813493090368706"><ele>1284.0</ele><time>2026-04-06T08:52:08.871Z</time></trkpt><trkpt lat="45.86147965725653" lon="11.813402487394209"><ele>1284.0</ele><time>2026-04-06T08:52:15.871Z</time></trkpt><trkpt lat="45.861461791065594" lon="11.813313348460781"><ele>1284.0</ele><time>2026-04-06T08:52:21.871Z</time></trkpt><trkpt lat="45.861435905455096" lon="11.813224098351242"><ele>1283.9999999999998</ele><time>2026-04-06T08:52:28.871Z</time></trkpt><trkpt lat="45.86141158970465" lon="11.813132765285108"><ele>1284.0</ele><time>2026-04-06T08:52:36.871Z</time></trkpt><trkpt lat="45.86138701563151" lon="11.813044465950233"><ele>1286.2857142857142</ele><time>2026-04-06T08:52:43.871Z</time></trkpt><trkpt lat="45.861382487959666" lon="11.812940815930848"><ele>1288.5714285714284</ele><time>2026-04-06T08:52:51.871Z</time></trkpt><trkpt lat="45.8613871948672" lon="11.812844422039452"><ele>1290.8571428571427</ele><time>2026-04-06T08:53:01.871Z</time></trkpt><trkpt lat="45.861406086526856" lon="11.812756057500229"><ele>1293.142857142857</ele><time>2026-04-06T08:53:09.87Z</time></trkpt><trkpt lat="45.86144006353381" lon="11.812676498372221"><ele>1295.4285714285716</ele><time>2026-04-06T08:53:15.87Z</time></trkpt><trkpt lat="45.86150205916574" lon="11.81257878018031"><ele>1297.7142857142856</ele><time>2026-04-06T08:53:21.87Z</time></trkpt><trkpt lat="45.86154383862258" lon="11.812509126323507"><ele>1300.0</ele><time>2026-04-06T08:53:28.87Z</time></trkpt><trkpt lat="45.861563983301714" lon="11.81260684999194"><ele>1300.0</ele><time>2026-04-06T08:53:42.87Z</time></trkpt><trkpt lat="45.861531755147816" lon="11.812696512105072"><ele>1300.0</ele><time>2026-04-06T08:53:59.87Z</time></trkpt><trkpt lat="45.86151662373503" lon="11.812790669843727"><ele>1300.0</ele><time>2026-04-06T08:54:05.87Z</time></trkpt><trkpt lat="45.861513908770846" lon="11.812914368592695"><ele>1300.0</ele><time>2026-04-06T08:54:13.87Z</time></trkpt><trkpt lat="45.86159059340277" lon="11.812961817222462"><ele>1300.0</ele><time>2026-04-06T08:54:20.87Z</time></trkpt><trkpt lat="45.861660137379765" lon="11.812977045772406"><ele>1300.0</ele><time>2026-04-06T08:54:27.87Z</time></trkpt><trkpt lat="45.86171534242179" lon="11.813032104828784"><ele>1300.0</ele><time>2026-04-06T08:54:34.869Z</time></trkpt><trkpt lat="45.861738438747835" lon="11.81312126373445"><ele>1300.0</ele><time>2026-04-06T08:54:39.869Z</time></trkpt><trkpt lat="45.861754628534314" lon="11.813226640192246"><ele>1300.0</ele><time>2026-04-06T08:54:46.869Z</time></trkpt><trkpt lat="45.861766230900976" lon="11.813328539580805"><ele>1300.0</ele><time>2026-04-06T08:54:52.869Z</time></trkpt><trkpt lat="45.861838742954795" lon="11.813436640902596"><ele>1300.0</ele><time>2026-04-06T08:55:04.869Z</time></trkpt><trkpt lat="45.861897006102986" lon="11.813487917221314"><ele>1300.0</ele><time>2026-04-06T08:55:10.869Z</time></trkpt><trkpt lat="45.861925488331764" lon="11.813591631861971"><ele>1300.0</ele><time>2026-04-06T08:55:19.869Z</time></trkpt><trkpt lat="45.86191301028255" lon="11.81368777876233"><ele>1305.4285714285713</ele><time>2026-04-06T08:55:26.869Z</time></trkpt><trkpt lat="45.86188643548601" lon="11.813806251752032"><ele>1310.857142857143</ele><time>2026-04-06T08:55:36.869Z</time></trkpt><trkpt lat="45.86193018972536" lon="11.813897360711929"><ele>1316.2857142857142</ele><time>2026-04-06T08:55:45.868Z</time></trkpt><trkpt lat="45.86197975066522" lon="11.813963953297261"><ele>1321.7142857142858</ele><time>2026-04-06T08:55:53.868Z</time></trkpt><trkpt lat="45.86204205973447" lon="11.81398872672765"><ele>1327.142857142857</ele><time>2026-04-06T08:55:57.868Z</time></trkpt><trkpt lat="45.86210064218069" lon="11.814026656771755"><ele>1332.5714285714287</ele><time>2026-04-06T08:56:03.868Z</time></trkpt><trkpt lat="45.86214173421534" lon="11.81409662105886"><ele>1338.0</ele><time>2026-04-06T08:56:11.868Z</time></trkpt><trkpt lat="45.86219900060391" lon="11.814152369791488"><ele>1338.0</ele><time>2026-04-06T08:56:16.868Z</time></trkpt><trkpt lat="45.86222273156018" lon="11.814239756843559"><ele>1338.0</ele><time>2026-04-06T08:56:23.868Z</time></trkpt><trkpt lat="45.862275103015534" lon="11.814336570806146"><ele>1338.0</ele><time>2026-04-06T08:56:39.867Z</time></trkpt><trkpt lat="45.86227919813291" lon="11.814511595802275"><ele>1338.0</ele><time>2026-04-06T08:56:51.867Z</time></trkpt><trkpt lat="45.86227480856425" lon="11.81460480870731"><ele>1338.0</ele><time>2026-04-06T08:56:57.867Z</time></trkpt><trkpt lat="45.86228723701518" lon="11.81469433923648"><ele>1338.0</ele><time>2026-04-06T08:57:02.867Z</time></trkpt><trkpt lat="45.86229034635493" lon="11.814795705230608"><ele>1337.4285714285716</ele><time>2026-04-06T08:57:12.867Z</time></trkpt><trkpt lat="45.86225964160071" lon="11.814895069302594"><ele>1336.857142857143</ele><time>2026-04-06T08:57:23.867Z</time></trkpt><trkpt lat="45.86225391217461" lon="11.81503105769432"><ele>1336.2857142857142</ele><time>2026-04-06T08:57:59.866Z</time></trkpt><trkpt lat="45.8622199502093" lon="11.815126984734247"><ele>1335.7142857142858</ele><time>2026-04-06T08:58:06.865Z</time></trkpt><trkpt lat="45.862196240164586" lon="11.815219256780097"><ele>1335.142857142857</ele><time>2026-04-06T08:58:14.865Z</time></trkpt><trkpt lat="45.86223089244071" lon="11.81514316224034"><ele>1334.5714285714287</ele><time>2026-04-06T08:58:37.865Z</time></trkpt><trkpt lat="45.862254709891346" lon="11.815054629222743"><ele>1334.0</ele><time>2026-04-06T08:58:45.865Z</time></trkpt><trkpt lat="45.862289522348206" lon="11.81497346823804"><ele>1334.0000000000002</ele><time>2026-04-06T08:58:53.865Z</time></trkpt><trkpt lat="45.86227948544588" lon="11.814883233944483"><ele>1334.0</ele><time>2026-04-06T08:59:01.865Z</time></trkpt><trkpt lat="45.86229048049415" lon="11.81479059581107"><ele>1334.0</ele><time>2026-04-06T08:59:08.865Z</time></trkpt><trkpt lat="45.86230935239502" lon="11.814698902616188"><ele>1334.0</ele><time>2026-04-06T08:59:17.864Z</time></trkpt><trkpt lat="45.862328543846544" lon="11.814612513614636"><ele>1334.0</ele><time>2026-04-06T08:59:25.864Z</time></trkpt><trkpt lat="45.86238388716912" lon="11.814547967732967"><ele>1334.0000000000002</ele><time>2026-04-06T08:59:34.864Z</time></trkpt><trkpt lat="45.86247667844862" lon="11.814514623777013"><ele>1334.0</ele><time>2026-04-06T08:59:37.864Z</time></trkpt><trkpt lat="45.86249688340132" lon="11.814422769198906"><ele>1334.0000000000002</ele><time>2026-04-06T08:59:43.864Z</time></trkpt><trkpt lat="45.862525356632865" lon="11.814339339638108"><ele>1334.0</ele><time>2026-04-06T08:59:52.864Z</time></trkpt><trkpt lat="45.86251373792743" lon="11.8142303708852"><ele>1334.0</ele><time>2026-04-06T08:59:55.864Z</time></trkpt><trkpt lat="45.86246909926064" lon="11.814136000746412"><ele>1334.0</ele><time>2026-04-06T09:00:12.863Z</time></trkpt><trkpt lat="45.86246215301245" lon="11.814044235957013"><ele>1334.0</ele><time>2026-04-06T09:00:21.863Z</time></trkpt><trkpt lat="45.862430924940554" lon="11.813940427966946"><ele>1334.0000000000002</ele><time>2026-04-06T09:00:52.937Z</time></trkpt><trkpt lat="45.86239129153029" lon="11.813866267175547"><ele>1334.0</ele><time>2026-04-06T09:00:59.938Z</time></trkpt><trkpt lat="45.86233252477825" lon="11.813810475987722"><ele>1334.5714285714287</ele><time>2026-04-06T09:01:07.938Z</time></trkpt><trkpt lat="45.86229547498755" lon="11.813727982840478"><ele>1335.142857142857</ele><time>2026-04-06T09:01:15.938Z</time></trkpt><trkpt lat="45.862299733913176" lon="11.813635783778288"><ele>1335.7142857142858</ele><time>2026-04-06T09:01:22.938Z</time></trkpt><trkpt lat="45.862334741996364" lon="11.813553253276984"><ele>1336.2857142857142</ele><time>2026-04-06T09:01:33.938Z</time></trkpt><trkpt lat="45.862352652449026" lon="11.813464051497604"><ele>1336.857142857143</ele><time>2026-04-06T09:01:38.938Z</time></trkpt><trkpt lat="45.862336935938856" lon="11.813362351474913"><ele>1337.4285714285716</ele><time>2026-04-06T09:01:44.938Z</time></trkpt><trkpt lat="45.86234548326714" lon="11.813248973727985"><ele>1338.0</ele><time>2026-04-06T09:01:52.938Z</time></trkpt><trkpt lat="45.86231070287183" lon="11.813151752810622"><ele>1340.5714285714287</ele><time>2026-04-06T09:01:57.938Z</time></trkpt><trkpt lat="45.862274404543214" lon="11.813073049035593"><ele>1343.142857142857</ele><time>2026-04-06T09:02:05.937Z</time></trkpt><trkpt lat="45.862252147105956" lon="11.81298175150668"><ele>1345.7142857142858</ele><time>2026-04-06T09:02:13.936Z</time></trkpt><trkpt lat="45.86224287791591" lon="11.812881504935973"><ele>1348.2857142857142</ele><time>2026-04-06T09:02:21.936Z</time></trkpt><trkpt lat="45.8622965880739" lon="11.812792534910079"><ele>1350.857142857143</ele><time>2026-04-06T09:02:32.936Z</time></trkpt><trkpt lat="45.86233796072681" lon="11.81271498452155"><ele>1353.4285714285713</ele><time>2026-04-06T09:02:38.936Z</time></trkpt><trkpt lat="45.862384677535964" lon="11.812648610350616"><ele>1356.0</ele><time>2026-04-06T09:02:45.936Z</time></trkpt><trkpt lat="45.862425142757196" lon="11.812572530394787"><ele>1356.0</ele><time>2026-04-06T09:02:53.936Z</time></trkpt><trkpt lat="45.862451862183285" lon="11.81246708465209"><ele>1356.0</ele><time>2026-04-06T09:03:01.937Z</time></trkpt><trkpt lat="45.86247304591978" lon="11.812374864838796"><ele>1356.0</ele><time>2026-04-06T09:03:09.937Z</time></trkpt><trkpt lat="45.86249800001352" lon="11.812283688428048"><ele>1356.0</ele><time>2026-04-06T09:03:16.937Z</time></trkpt><trkpt lat="45.86253057355519" lon="11.812194369891682"><ele>1356.0</ele><time>2026-04-06T09:03:22.937Z</time></trkpt><trkpt lat="45.86258272156801" lon="11.812119537973103"><ele>1356.0</ele><time>2026-04-06T09:03:33.937Z</time></trkpt><trkpt lat="45.86259236986588" lon="11.812003654607159"><ele>1356.0</ele><time>2026-04-06T09:03:40.937Z</time></trkpt><trkpt lat="45.862627859635396" lon="11.81189036056853"><ele>1356.0</ele><time>2026-04-06T09:03:59.937Z</time></trkpt><trkpt lat="45.86256411929739" lon="11.811987561142802"><ele>1356.0</ele><time>2026-04-06T09:04:46.936Z</time></trkpt><trkpt lat="45.862466670894314" lon="11.81192722126775"><ele>1356.0</ele><time>2026-04-06T09:05:26.937Z</time></trkpt><trkpt lat="45.862577735730255" lon="11.811872126009956"><ele>1356.0</ele><time>2026-04-06T09:07:18.001Z</time></trkpt><trkpt lat="45.862640842238626" lon="11.811868441431372"><ele>1356.0</ele><time>2026-04-06T09:08:11.001Z</time></trkpt><trkpt lat="45.86260305861528" lon="11.811764318284924"><ele>1355.6666666666667</ele><time>2026-04-06T09:08:52.002Z</time></trkpt><trkpt lat="45.86253093701073" lon="11.811645986420181"><ele>1355.3333333333333</ele><time>2026-04-06T09:09:01.002Z</time></trkpt><trkpt lat="45.862596548436876" lon="11.811615394372083"><ele>1355.0</ele><time>2026-04-06T09:09:14.002Z</time></trkpt><trkpt lat="45.86265781409345" lon="11.8115881735315"><ele>1354.6666666666665</ele><time>2026-04-06T09:09:24.002Z</time></trkpt><trkpt lat="45.862703011568534" lon="11.811502929538436"><ele>1354.3333333333333</ele><time>2026-04-06T09:09:41.002Z</time></trkpt><trkpt lat="45.86275667804566" lon="11.81142234008987"><ele>1354.0</ele><time>2026-04-06T09:09:52.003Z</time></trkpt><trkpt lat="45.862808221678314" lon="11.811362607725039"><ele>1361.142857142857</ele><time>2026-04-06T09:10:04.003Z</time></trkpt><trkpt lat="45.862891000229915" lon="11.811335102590805"><ele>1368.2857142857142</ele><time>2026-04-06T09:10:13.003Z</time></trkpt><trkpt lat="45.86284787272075" lon="11.811247729700245"><ele>1375.4285714285716</ele><time>2026-04-06T09:10:37.003Z</time></trkpt><trkpt lat="45.86279373410372" lon="11.811190695674725"><ele>1382.5714285714284</ele><time>2026-04-06T09:10:54.003Z</time></trkpt><trkpt lat="45.86274026028015" lon="11.8111384523974"><ele>1389.7142857142858</ele><time>2026-04-06T09:11:03.004Z</time></trkpt><trkpt lat="45.862715397194286" lon="11.81105462850353"><ele>1396.857142857143</ele><time>2026-04-06T09:11:11.004Z</time></trkpt><trkpt lat="45.862707126743004" lon="11.810960490088798"><ele>1404.0</ele><time>2026-04-06T09:11:18.004Z</time></trkpt><trkpt lat="45.86267632544484" lon="11.810877052745573"><ele>1404.0000000000002</ele><time>2026-04-06T09:11:25.004Z</time></trkpt><trkpt lat="45.86264149094365" lon="11.810791471489297"><ele>1404.0</ele><time>2026-04-06T09:11:40.004Z</time></trkpt><trkpt lat="45.862575209702634" lon="11.810777629250936"><ele>1404.0</ele><time>2026-04-06T09:11:50.004Z</time></trkpt><trkpt lat="45.86250928389541" lon="11.810777596822563"><ele>1404.0</ele><time>2026-04-06T09:11:58.004Z</time></trkpt><trkpt lat="45.862437262786386" lon="11.810749660381719"><ele>1404.0</ele><time>2026-04-06T09:12:13.005Z</time></trkpt><trkpt lat="45.86237515469729" lon="11.810701287786214"><ele>1404.0000000000002</ele><time>2026-04-06T09:12:19.005Z</time></trkpt><trkpt lat="45.86230039187263" lon="11.81070231674059"><ele>1404.0</ele><time>2026-04-06T09:12:26.005Z</time></trkpt><trkpt lat="45.86222900212189" lon="11.8106943540219"><ele>1398.6666666666667</ele><time>2026-04-06T09:12:33.005Z</time></trkpt><trkpt lat="45.8621602113819" lon="11.810707868020577"><ele>1393.3333333333333</ele><time>2026-04-06T09:12:41.005Z</time></trkpt><trkpt lat="45.86209405347016" lon="11.810732373518276"><ele>1388.0</ele><time>2026-04-06T09:12:49.005Z</time></trkpt><trkpt lat="45.86202808296926" lon="11.810693017602809"><ele>1382.6666666666665</ele><time>2026-04-06T09:12:56.005Z</time></trkpt><trkpt lat="45.86211957762806" lon="11.810618144459717"><ele>1377.3333333333333</ele><time>2026-04-06T09:13:19.005Z</time></trkpt><trkpt lat="45.86219097224232" lon="11.810587089286473"><ele>1372.0</ele><time>2026-04-06T09:13:26.005Z</time></trkpt><trkpt lat="45.86225733759929" lon="11.810569484024501"><ele>1372.0</ele><time>2026-04-06T09:13:33.006Z</time></trkpt><trkpt lat="45.86232111762138" lon="11.810524142619684"><ele>1372.0</ele><time>2026-04-06T09:13:37.006Z</time></trkpt><trkpt lat="45.86242467670296" lon="11.810523869937894"><ele>1372.0</ele><time>2026-04-06T09:13:48.006Z</time></trkpt><trkpt lat="45.86249545124334" lon="11.810488148069863"><ele>1372.0</ele><time>2026-04-06T09:13:54.006Z</time></trkpt><trkpt lat="45.862560720717894" lon="11.810452261785345"><ele>1372.0</ele><time>2026-04-06T09:14:00.006Z</time></trkpt><trkpt lat="45.86262692242416" lon="11.8104618837368"><ele>1372.0</ele><time>2026-04-06T09:14:08.006Z</time></trkpt><trkpt lat="45.86270353201941" lon="11.810462549113113"><ele>1376.5714285714287</ele><time>2026-04-06T09:14:15.006Z</time></trkpt><trkpt lat="45.862764727600506" lon="11.81048733878582"><ele>1381.142857142857</ele><time>2026-04-06T09:14:23.006Z</time></trkpt><trkpt lat="45.86283095016225" lon="11.81048824527881"><ele>1385.7142857142858</ele><time>2026-04-06T09:14:28.006Z</time></trkpt><trkpt lat="45.86289096406573" lon="11.810531141468832"><ele>1390.2857142857142</ele><time>2026-04-06T09:14:34.006Z</time></trkpt><trkpt lat="45.86294288834733" lon="11.810603867426831"><ele>1394.857142857143</ele><time>2026-04-06T09:14:40.007Z</time></trkpt><trkpt lat="45.862989489229044" lon="11.810687315869595"><ele>1399.4285714285716</ele><time>2026-04-06T09:14:48.007Z</time></trkpt><trkpt lat="45.86299729149779" lon="11.810785237639783"><ele>1404.0</ele><time>2026-04-06T09:14:54.007Z</time></trkpt><trkpt lat="45.863012497274276" lon="11.810877978108447"><ele>1404.0000000000002</ele><time>2026-04-06T09:15:03.007Z</time></trkpt><trkpt lat="45.863065644207396" lon="11.810937596632225"><ele>1404.0</ele><time>2026-04-06T09:15:11.007Z</time></trkpt><trkpt lat="45.86313478840774" lon="11.81096068097002"><ele>1404.0</ele><time>2026-04-06T09:15:20.007Z</time></trkpt><trkpt lat="45.86320248111583" lon="11.810925533695324"><ele>1404.0</ele><time>2026-04-06T09:15:28.007Z</time></trkpt><trkpt lat="45.86326633000272" lon="11.81093269621098"><ele>1404.0</ele><time>2026-04-06T09:15:36.007Z</time></trkpt><trkpt lat="45.86333192521157" lon="11.810908272971858"><ele>1404.0000000000002</ele><time>2026-04-06T09:15:45.007Z</time></trkpt><trkpt lat="45.86339340141985" lon="11.810933707298561"><ele>1404.0</ele><time>2026-04-06T09:15:51.007Z</time></trkpt><trkpt lat="45.86346070170516" lon="11.810915909015598"><ele>1404.7142857142858</ele><time>2026-04-06T09:15:58.008Z</time></trkpt><trkpt lat="45.86352200174103" lon="11.810944291252305"><ele>1405.4285714285716</ele><time>2026-04-06T09:16:03.008Z</time></trkpt><trkpt lat="45.86354424429252" lon="11.811029630543086"><ele>1406.1428571428573</ele><time>2026-04-06T09:16:07.008Z</time></trkpt><trkpt lat="45.86350061185264" lon="11.811109778976844"><ele>1406.857142857143</ele><time>2026-04-06T09:16:13.008Z</time></trkpt><trkpt lat="45.8634563194104" lon="11.81119415545781"><ele>1407.5714285714284</ele><time>2026-04-06T09:16:24.008Z</time></trkpt><trkpt lat="45.86341934051361" lon="11.811270216147305"><ele>1408.2857142857144</ele><time>2026-04-06T09:16:33.008Z</time></trkpt><trkpt lat="45.86338343030327" lon="11.81135109929294"><ele>1409.0</ele><time>2026-04-06T09:16:39.008Z</time></trkpt><trkpt lat="45.863344508688435" lon="11.811428610739437"><ele>1409.0</ele><time>2026-04-06T09:16:49.008Z</time></trkpt><trkpt lat="45.86330050927501" lon="11.811497577383033"><ele>1409.0</ele><time>2026-04-06T09:17:01.008Z</time></trkpt><trkpt lat="45.86327113827169" lon="11.811581984264865"><ele>1409.0</ele><time>2026-04-06T09:17:10.009Z</time></trkpt><trkpt lat="45.86323395214415" lon="11.811674010322328"><ele>1409.0</ele><time>2026-04-06T09:17:19.009Z</time></trkpt><trkpt lat="45.86323446314935" lon="11.811771888223214"><ele>1409.0</ele><time>2026-04-06T09:17:25.009Z</time></trkpt><trkpt lat="45.863223394776426" lon="11.811871384160945"><ele>1409.0</ele><time>2026-04-06T09:17:34.009Z</time></trkpt><trkpt lat="45.86322675069036" lon="11.811973109828463"><ele>1409.0</ele><time>2026-04-06T09:17:42.009Z</time></trkpt><trkpt lat="45.86320306680018" lon="11.81205901112557"><ele>1410.142857142857</ele><time>2026-04-06T09:17:51.009Z</time></trkpt><trkpt lat="45.863224921262145" lon="11.8121440251276"><ele>1411.2857142857142</ele><time>2026-04-06T09:17:59.009Z</time></trkpt><trkpt lat="45.863238954587445" lon="11.812234556468914"><ele>1412.4285714285713</ele><time>2026-04-06T09:18:06.009Z</time></trkpt><trkpt lat="45.86325365445453" lon="11.81232529232718"><ele>1413.5714285714284</ele><time>2026-04-06T09:18:13.009Z</time></trkpt><trkpt lat="45.86327591416554" lon="11.8124148154193"><ele>1414.7142857142858</ele><time>2026-04-06T09:18:24.01Z</time></trkpt><trkpt lat="45.8632500524274" lon="11.81250349487755"><ele>1415.8571428571427</ele><time>2026-04-06T09:18:31.01Z</time></trkpt><trkpt lat="45.863230399184665" lon="11.812597519045934"><ele>1417.0</ele><time>2026-04-06T09:18:38.01Z</time></trkpt><trkpt lat="45.86328739003384" lon="11.81255359884376"><ele>1416.9999999999998</ele><time>2026-04-06T09:19:27.01Z</time></trkpt><trkpt lat="45.863290184935096" lon="11.812450142494628"><ele>1417.0</ele><time>2026-04-06T09:19:46.011Z</time></trkpt><trkpt lat="45.863287075000095" lon="11.812356630662602"><ele>1417.0</ele><time>2026-04-06T09:20:08.011Z</time></trkpt><trkpt lat="45.86327124661582" lon="11.81225667648656"><ele>1417.0</ele><time>2026-04-06T09:20:14.011Z</time></trkpt><trkpt lat="45.86324676797811" lon="11.812171213426502"><ele>1417.0</ele><time>2026-04-06T09:20:22.011Z</time></trkpt><trkpt lat="45.863231903245655" lon="11.81207985909468"><ele>1416.9999999999998</ele><time>2026-04-06T09:20:31.011Z</time></trkpt><trkpt lat="45.86323623393867" lon="11.811976772009997"><ele>1417.0</ele><time>2026-04-06T09:20:37.011Z</time></trkpt><trkpt lat="45.86325377128538" lon="11.811873203590727"><ele>1415.8571428571427</ele><time>2026-04-06T09:20:44.011Z</time></trkpt><trkpt lat="45.863274800280855" lon="11.811782623174892"><ele>1414.7142857142858</ele><time>2026-04-06T09:20:50.011Z</time></trkpt><trkpt lat="45.863354420051785" lon="11.811750560116568"><ele>1413.5714285714284</ele><time>2026-04-06T09:20:55.012Z</time></trkpt><trkpt lat="45.863437354953625" lon="11.811769917307457"><ele>1412.4285714285713</ele><time>2026-04-06T09:20:58.012Z</time></trkpt><trkpt lat="45.863505388944574" lon="11.811736904389415"><ele>1411.2857142857142</ele><time>2026-04-06T09:21:04.012Z</time></trkpt><trkpt lat="45.86357183669391" lon="11.811758910268626"><ele>1410.142857142857</ele><time>2026-04-06T09:21:10.012Z</time></trkpt><trkpt lat="45.86362176091787" lon="11.811688956024327"><ele>1409.0</ele><time>2026-04-06T09:21:14.012Z</time></trkpt><trkpt lat="45.86366688986463" lon="11.811617475916096"><ele>1414.8333333333335</ele><time>2026-04-06T09:21:19.012Z</time></trkpt><trkpt lat="45.86377528190553" lon="11.81154361940916"><ele>1420.6666666666667</ele><time>2026-04-06T09:21:38.012Z</time></trkpt><trkpt lat="45.86380329648937" lon="11.811447429318864"><ele>1426.5</ele><time>2026-04-06T09:21:44.012Z</time></trkpt><trkpt lat="45.86385924266568" lon="11.811400992969594"><ele>1432.3333333333333</ele><time>2026-04-06T09:21:52.012Z</time></trkpt><trkpt lat="45.86392637127648" lon="11.81135401926792"><ele>1438.1666666666665</ele><time>2026-04-06T09:22:01.012Z</time></trkpt><trkpt lat="45.86398730421619" lon="11.811309848612217"><ele>1444.0</ele><time>2026-04-06T09:22:08.013Z</time></trkpt><trkpt lat="45.86404757206287" lon="11.811275652076212"><ele>1444.0</ele><time>2026-04-06T09:22:14.013Z</time></trkpt><trkpt lat="45.86411197605091" lon="11.811244493977188"><ele>1444.0</ele><time>2026-04-06T09:22:22.013Z</time></trkpt><trkpt lat="45.864180348857175" lon="11.811234644852687"><ele>1444.0</ele><time>2026-04-06T09:22:29.013Z</time></trkpt><trkpt lat="45.864244798406304" lon="11.81116915419876"><ele>1444.0</ele><time>2026-04-06T09:22:35.013Z</time></trkpt><trkpt lat="45.864314083163826" lon="11.811162460959745"><ele>1444.0</ele><time>2026-04-06T09:22:43.013Z</time></trkpt><trkpt lat="45.86437864247303" lon="11.811140257304114"><ele>1444.0</ele><time>2026-04-06T09:22:50.013Z</time></trkpt><trkpt lat="45.86443795489128" lon="11.811106452951366"><ele>1444.0</ele><time>2026-04-06T09:23:02.013Z</time></trkpt><trkpt lat="45.86451486490918" lon="11.81111802057362"><ele>1446.857142857143</ele><time>2026-04-06T09:23:08.013Z</time></trkpt><trkpt lat="45.86458772629586" lon="11.811099334001863"><ele>1449.7142857142856</ele><time>2026-04-06T09:23:15.013Z</time></trkpt><trkpt lat="45.864650897656354" lon="11.811093032198139"><ele>1452.5714285714284</ele><time>2026-04-06T09:23:24.014Z</time></trkpt><trkpt lat="45.86471850000861" lon="11.811074296073723"><ele>1455.4285714285716</ele><time>2026-04-06T09:23:32.014Z</time></trkpt><trkpt lat="45.864784748194204" lon="11.81106954044565"><ele>1458.2857142857142</ele><time>2026-04-06T09:23:38.014Z</time></trkpt><trkpt lat="45.86484855306418" lon="11.811052223968636"><ele>1461.142857142857</ele><time>2026-04-06T09:23:44.014Z</time></trkpt><trkpt lat="45.86491255133733" lon="11.811063526319188"><ele>1464.0</ele><time>2026-04-06T09:23:54.014Z</time></trkpt><trkpt lat="45.86498589939708" lon="11.811042836710762"><ele>1464.0</ele><time>2026-04-06T09:23:57.014Z</time></trkpt><trkpt lat="45.86506125312628" lon="11.811026752224226"><ele>1464.0</ele><time>2026-04-06T09:24:03.014Z</time></trkpt><trkpt lat="45.86512559032629" lon="11.81098889520494"><ele>1464.0</ele><time>2026-04-06T09:24:09.014Z</time></trkpt><trkpt lat="45.86517063754793" lon="11.810925473601486"><ele>1464.0</ele><time>2026-04-06T09:24:15.014Z</time></trkpt><trkpt lat="45.86523976837784" lon="11.810886667655677"><ele>1464.0</ele><time>2026-04-06T09:24:22.014Z</time></trkpt><trkpt lat="45.86530003421966" lon="11.810857423708645"><ele>1464.0</ele><time>2026-04-06T09:24:29.014Z</time></trkpt><trkpt lat="45.86536545140437" lon="11.81084271354249"><ele>1464.0</ele><time>2026-04-06T09:24:36.014Z</time></trkpt><trkpt lat="45.86543671787095" lon="11.810813988792603"><ele>1463.857142857143</ele><time>2026-04-06T09:24:43.015Z</time></trkpt><trkpt lat="45.86548501361386" lon="11.810747738979476"><ele>1463.7142857142858</ele><time>2026-04-06T09:24:48.015Z</time></trkpt><trkpt lat="45.8655343235826" lon="11.810689434971257"><ele>1463.5714285714284</ele><time>2026-04-06T09:24:55.015Z</time></trkpt><trkpt lat="45.865592515362835" lon="11.810620391431241"><ele>1463.4285714285716</ele><time>2026-04-06T09:25:03.015Z</time></trkpt><trkpt lat="45.86565374023357" lon="11.81057121493286"><ele>1463.2857142857142</ele><time>2026-04-06T09:25:10.015Z</time></trkpt><trkpt lat="45.86570348729252" lon="11.810494298274946"><ele>1463.142857142857</ele><time>2026-04-06T09:25:16.015Z</time></trkpt><trkpt lat="45.86573353602298" lon="11.810401992427243"><ele>1463.0</ele><time>2026-04-06T09:25:23.015Z</time></trkpt><trkpt lat="45.86579603215378" lon="11.810355799128985"><ele>1463.0</ele><time>2026-04-06T09:25:31.015Z</time></trkpt><trkpt lat="45.86585524526511" lon="11.810319647988905"><ele>1463.0</ele><time>2026-04-06T09:25:37.015Z</time></trkpt><trkpt lat="45.86592332961872" lon="11.810334791571002"><ele>1463.0</ele><time>2026-04-06T09:25:43.015Z</time></trkpt><trkpt lat="45.86599698903546" lon="11.810368705769482"><ele>1463.0</ele><time>2026-04-06T09:25:51.015Z</time></trkpt><trkpt lat="45.866073220690886" lon="11.810368089707385"><ele>1463.0</ele><time>2026-04-06T09:25:59.016Z</time></trkpt><trkpt lat="45.86614346743436" lon="11.810337152023648"><ele>1463.0</ele><time>2026-04-06T09:26:04.016Z</time></trkpt><trkpt lat="45.86619989793506" lon="11.810291844239678"><ele>1463.0</ele><time>2026-04-06T09:26:09.016Z</time></trkpt><trkpt lat="45.86626805998102" lon="11.810262068797927"><ele>1463.5714285714287</ele><time>2026-04-06T09:26:18.016Z</time></trkpt><trkpt lat="45.86633982016675" lon="11.810238238508745"><ele>1464.142857142857</ele><time>2026-04-06T09:26:24.016Z</time></trkpt><trkpt lat="45.86640366686424" lon="11.810193052616686"><ele>1464.7142857142858</ele><time>2026-04-06T09:26:31.009Z</time></trkpt><trkpt lat="45.86647133290794" lon="11.810191806287401"><ele>1465.2857142857142</ele><time>2026-04-06T09:26:38.009Z</time></trkpt><trkpt lat="45.86654444313472" lon="11.810176254672164"><ele>1465.857142857143</ele><time>2026-04-06T09:26:44.009Z</time></trkpt><trkpt lat="45.86661638248224" lon="11.8101787706102"><ele>1466.4285714285716</ele><time>2026-04-06T09:26:50.009Z</time></trkpt><trkpt lat="45.86668711251901" lon="11.810156564057387"><ele>1467.0</ele><time>2026-04-06T09:26:56.009Z</time></trkpt><trkpt lat="45.866755797804785" lon="11.81012417397105"><ele>1467.4285714285716</ele><time>2026-04-06T09:27:03.009Z</time></trkpt><trkpt lat="45.86681803889429" lon="11.810066957612843"><ele>1467.857142857143</ele><time>2026-04-06T09:27:08.009Z</time></trkpt><trkpt lat="45.86685153756927" lon="11.809985053430669"><ele>1468.2857142857142</ele><time>2026-04-06T09:27:17.009Z</time></trkpt><trkpt lat="45.86687666258828" lon="11.809891375372674"><ele>1468.7142857142858</ele><time>2026-04-06T09:27:28.009Z</time></trkpt><trkpt lat="45.86690723600141" lon="11.809809405937397"><ele>1469.142857142857</ele><time>2026-04-06T09:27:37.009Z</time></trkpt><trkpt lat="45.8669346851136" lon="11.809716230772787"><ele>1469.5714285714287</ele><time>2026-04-06T09:27:44.009Z</time></trkpt><trkpt lat="45.86698217157578" lon="11.809653410445424"><ele>1470.0</ele><time>2026-04-06T09:27:50.009Z</time></trkpt><trkpt lat="45.86704170042975" lon="11.809595759481727"><ele>1470.0</ele><time>2026-04-06T09:27:57.01Z</time></trkpt><trkpt lat="45.86710145783071" lon="11.809551643300319"><ele>1470.0</ele><time>2026-04-06T09:28:08.01Z</time></trkpt><trkpt lat="45.86716306598374" lon="11.809497475560201"><ele>1470.0</ele><time>2026-04-06T09:28:16.01Z</time></trkpt><trkpt lat="45.867209477794255" lon="11.80942500534907"><ele>1470.0</ele><time>2026-04-06T09:30:37.01Z</time></trkpt><trkpt lat="45.86725506743693" lon="11.80936245787337"><ele>1470.0</ele><time>2026-04-06T09:30:46.01Z</time></trkpt><trkpt lat="45.86729530273903" lon="11.809292239691542"><ele>1470.0</ele><time>2026-04-06T09:30:56.01Z</time></trkpt><trkpt lat="45.86734919461735" lon="11.809239645001133"><ele>1470.0</ele><time>2026-04-06T09:31:03.01Z</time></trkpt><trkpt lat="45.86740464367314" lon="11.80919404808389"><ele>1471.142857142857</ele><time>2026-04-06T09:31:13.011Z</time></trkpt><trkpt lat="45.867471507564645" lon="11.809150822684542"><ele>1472.2857142857142</ele><time>2026-04-06T09:31:23.011Z</time></trkpt><trkpt lat="45.86751721420463" lon="11.809085549271375"><ele>1473.4285714285716</ele><time>2026-04-06T09:32:21.008Z</time></trkpt><trkpt lat="45.86756255590478" lon="11.809016899298708"><ele>1474.5714285714284</ele><time>2026-04-06T09:33:28.009Z</time></trkpt><trkpt lat="45.867621368418284" lon="11.80897966483774"><ele>1475.7142857142858</ele><time>2026-04-06T09:33:38.006Z</time></trkpt><trkpt lat="45.86766235740631" lon="11.808895324744453"><ele>1476.857142857143</ele><time>2026-04-06T09:33:51.006Z</time></trkpt><trkpt lat="45.86770330546502" lon="11.808823767643888"><ele>1478.0</ele><time>2026-04-06T09:34:34.007Z</time></trkpt><trkpt lat="45.86775210171096" lon="11.808753879766225"><ele>1478.2857142857142</ele><time>2026-04-06T09:34:43.007Z</time></trkpt><trkpt lat="45.867788398900096" lon="11.808677029909404"><ele>1478.5714285714287</ele><time>2026-04-06T09:34:52.007Z</time></trkpt><trkpt lat="45.86782399734835" lon="11.808592287469796"><ele>1478.8571428571427</ele><time>2026-04-06T09:35:13.007Z</time></trkpt><trkpt lat="45.867838013714824" lon="11.808498468832237"><ele>1479.142857142857</ele><time>2026-04-06T09:35:22.007Z</time></trkpt><trkpt lat="45.867892832039075" lon="11.808442097863876"><ele>1479.4285714285713</ele><time>2026-04-06T09:35:35.007Z</time></trkpt><trkpt lat="45.86796270210495" lon="11.808389242041834"><ele>1479.7142857142856</ele><time>2026-04-06T09:36:08.004Z</time></trkpt><trkpt lat="45.867994984249094" lon="11.808291775120106"><ele>1480.0</ele><time>2026-04-06T09:36:22.005Z</time></trkpt><trkpt lat="45.86803980233915" lon="11.80822562080579"><ele>1482.5714285714284</ele><time>2026-04-06T09:37:17.005Z</time></trkpt><trkpt lat="45.86809388034405" lon="11.808164284214326"><ele>1485.142857142857</ele><time>2026-04-06T09:37:27.006Z</time></trkpt><trkpt lat="45.86814247029389" lon="11.808089020212218"><ele>1487.7142857142858</ele><time>2026-04-06T09:37:39.006Z</time></trkpt><trkpt lat="45.86819354196714" lon="11.808016746935692"><ele>1490.2857142857142</ele><time>2026-04-06T09:37:52.002Z</time></trkpt><trkpt lat="45.868226177152366" lon="11.807932171678187"><ele>1492.857142857143</ele><time>2026-04-06T09:38:04.003Z</time></trkpt><trkpt lat="45.86828006334874" lon="11.807854066312789"><ele>1495.4285714285713</ele><time>2026-04-06T09:38:20.003Z</time></trkpt><trkpt lat="45.868314104382875" lon="11.807761071193973"><ele>1498.0</ele><time>2026-04-06T09:38:30.003Z</time></trkpt><trkpt lat="45.868374171214484" lon="11.807710938455934"><ele>1500.2857142857142</ele><time>2026-04-06T09:38:45.003Z</time></trkpt><trkpt lat="45.86842392092367" lon="11.807650012323558"><ele>1502.5714285714284</ele><time>2026-04-06T09:38:53.003Z</time></trkpt><trkpt lat="45.86844451704658" lon="11.80755913161358"><ele>1504.857142857143</ele><time>2026-04-06T09:39:04.003Z</time></trkpt><trkpt lat="45.86846820963012" lon="11.807472716410803"><ele>1507.142857142857</ele><time>2026-04-06T09:39:29.004Z</time></trkpt><trkpt lat="45.868494819279135" lon="11.807379204208221"><ele>1509.4285714285713</ele><time>2026-04-06T09:39:37.004Z</time></trkpt><trkpt lat="45.8684920441174" lon="11.80728202060061"><ele>1511.7142857142858</ele><time>2026-04-06T09:39:50.001Z</time></trkpt><trkpt lat="45.868484050936225" lon="11.807185531860085"><ele>1514.0</ele><time>2026-04-06T09:40:00.001Z</time></trkpt><trkpt lat="45.868543292275156" lon="11.807140438016479"><ele>1516.7142857142858</ele><time>2026-04-06T09:40:18.001Z</time></trkpt><trkpt lat="45.868537053078214" lon="11.807046047033435"><ele>1519.4285714285713</ele><time>2026-04-06T09:40:31.001Z</time></trkpt><trkpt lat="45.86856349353686" lon="11.806958955625435"><ele>1522.142857142857</ele><time>2026-04-06T09:40:37.001Z</time></trkpt><trkpt lat="45.86862773717208" lon="11.80695270074839"><ele>1524.857142857143</ele><time>2026-04-06T09:41:04.001Z</time></trkpt><trkpt lat="45.86867673540552" lon="11.806894299615047"><ele>1527.5714285714284</ele><time>2026-04-06T09:41:18.001Z</time></trkpt><trkpt lat="45.86871118562567" lon="11.806793769617762"><ele>1530.2857142857142</ele><time>2026-04-06T09:41:31.002Z</time></trkpt><trkpt lat="45.86874026517975" lon="11.806703153257102"><ele>1533.0</ele><time>2026-04-06T09:41:47.002Z</time></trkpt><trkpt lat="45.86875113717123" lon="11.8065950289959"><ele>1533.5714285714287</ele><time>2026-04-06T09:42:01.999Z</time></trkpt><trkpt lat="45.868786438161116" lon="11.806508022307074"><ele>1534.142857142857</ele><time>2026-04-06T09:42:11Z</time></trkpt><trkpt lat="45.86883679853306" lon="11.806424002460423"><ele>1534.7142857142858</ele><time>2026-04-06T09:42:30Z</time></trkpt><trkpt lat="45.86887156515847" lon="11.806336237285565"><ele>1535.2857142857142</ele><time>2026-04-06T09:42:40Z</time></trkpt><trkpt lat="45.868907658526346" lon="11.80626215004256"><ele>1535.857142857143</ele><time>2026-04-06T09:42:53Z</time></trkpt><trkpt lat="45.868958667984835" lon="11.80619538665789"><ele>1536.4285714285716</ele><time>2026-04-06T09:43:06Z</time></trkpt><trkpt lat="45.86897926780026" lon="11.806103357023801"><ele>1537.0</ele><time>2026-04-06T09:43:31.001Z</time></trkpt><trkpt lat="45.86903580107652" lon="11.806030429379598"><ele>1538.5714285714287</ele><time>2026-04-06T09:43:48.001Z</time></trkpt><trkpt lat="45.86907952103555" lon="11.805959150118886"><ele>1540.142857142857</ele><time>2026-04-06T09:43:58.001Z</time></trkpt><trkpt lat="45.86913337288525" lon="11.805905504143315"><ele>1541.7142857142858</ele><time>2026-04-06T09:44:41.998Z</time></trkpt><trkpt lat="45.86917526603334" lon="11.805825753324212"><ele>1543.2857142857142</ele><time>2026-04-06T09:44:50.998Z</time></trkpt><trkpt lat="45.86924191282313" lon="11.805773326266852"><ele>1544.857142857143</ele><time>2026-04-06T09:45:00.998Z</time></trkpt><trkpt lat="45.86929349130615" lon="11.805709575896241"><ele>1546.4285714285716</ele><time>2026-04-06T09:45:09.998Z</time></trkpt><trkpt lat="45.869322360227294" lon="11.805625242393981"><ele>1548.0</ele><time>2026-04-06T09:45:22.999Z</time></trkpt><trkpt lat="45.869388533448536" lon="11.805588328077302"><ele>1549.857142857143</ele><time>2026-04-06T09:45:33.999Z</time></trkpt><trkpt lat="45.86943394849334" lon="11.805676188334484"><ele>1551.7142857142858</ele><time>2026-04-06T09:45:54.999Z</time></trkpt><trkpt lat="45.86947200169138" lon="11.805749782228162"><ele>1553.5714285714284</ele><time>2026-04-06T09:45:58.999Z</time></trkpt><trkpt lat="45.86954204218519" lon="11.805751434464144"><ele>1555.4285714285716</ele><time>2026-04-06T09:46:10.997Z</time></trkpt><trkpt lat="45.86955179834209" lon="11.805658346217118"><ele>1557.2857142857142</ele><time>2026-04-06T09:46:53.997Z</time></trkpt><trkpt lat="45.869584218188415" lon="11.80557950867624"><ele>1559.142857142857</ele><time>2026-04-06T09:47:01.997Z</time></trkpt><trkpt lat="45.8695912102825" lon="11.805485251369747"><ele>1561.0</ele><time>2026-04-06T09:47:13.997Z</time></trkpt><trkpt lat="45.869618816121985" lon="11.805401414478734"><ele>1561.0</ele><time>2026-04-06T09:47:34.997Z</time></trkpt><trkpt lat="45.8696842250125" lon="11.805368146109103"><ele>1561.0</ele><time>2026-04-06T09:49:11.996Z</time></trkpt><trkpt lat="45.86974813948345" lon="11.805353443965393"><ele>1561.0</ele><time>2026-04-06T09:49:25.996Z</time></trkpt><trkpt lat="45.86981688773763" lon="11.805349389211651"><ele>1561.0</ele><time>2026-04-06T09:49:38.996Z</time></trkpt><trkpt lat="45.86987652042277" lon="11.805379019684409"><ele>1561.0</ele><time>2026-04-06T09:49:50.996Z</time></trkpt><trkpt lat="45.869943731825266" lon="11.805401069243503"><ele>1561.0</ele><time>2026-04-06T09:50:17.994Z</time></trkpt><trkpt lat="45.87000677170432" lon="11.80538659013255"><ele>1561.0</ele><time>2026-04-06T09:50:27.993Z</time></trkpt><trkpt lat="45.87001420112931" lon="11.805292112961231"><ele>1561.0000000000002</ele><time>2026-04-06T09:51:15.995Z</time></trkpt><trkpt lat="45.870045852178954" lon="11.805197583954762"><ele>1561.0</ele><time>2026-04-06T09:51:24.995Z</time></trkpt><trkpt lat="45.87006573361405" lon="11.805100628463984"><ele>1561.0</ele><time>2026-04-06T09:51:52.995Z</time></trkpt><trkpt lat="45.87010037213949" lon="11.805021024335202"><ele>1561.0</ele><time>2026-04-06T09:52:11.995Z</time></trkpt><trkpt lat="45.87014119569296" lon="11.80494393646294"><ele>1561.0000000000002</ele><time>2026-04-06T09:52:22.995Z</time></trkpt><trkpt lat="45.87019564335519" lon="11.804885050260904"><ele>1561.0</ele><time>2026-04-06T09:52:42.991Z</time></trkpt><trkpt lat="45.87027169254665" lon="11.80476722510011"><ele>1562.5714285714287</ele><time>2026-04-06T09:53:03.992Z</time></trkpt><trkpt lat="45.87033049063171" lon="11.804690517047378"><ele>1564.142857142857</ele><time>2026-04-06T09:53:27.992Z</time></trkpt><trkpt lat="45.87036461195484" lon="11.804610985515867"><ele>1565.7142857142858</ele><time>2026-04-06T09:53:47.992Z</time></trkpt><trkpt lat="45.870409014846665" lon="11.80454419663062"><ele>1567.2857142857142</ele><time>2026-04-06T09:54:03.993Z</time></trkpt><trkpt lat="45.870438759356816" lon="11.804457581221488"><ele>1568.857142857143</ele><time>2026-04-06T09:56:32.992Z</time></trkpt><trkpt lat="45.87049553462682" lon="11.804402914460896"><ele>1570.4285714285716</ele><time>2026-04-06T09:56:41.99Z</time></trkpt><trkpt lat="45.87055127237874" lon="11.804354576143293"><ele>1572.0</ele><time>2026-04-06T09:56:49.99Z</time></trkpt><trkpt lat="45.870609127851225" lon="11.804311926942436"><ele>1577.0000000000002</ele><time>2026-04-06T09:56:55.99Z</time></trkpt><trkpt lat="45.87067455098245" lon="11.804250366087425"><ele>1582.0</ele><time>2026-04-06T09:57:15.99Z</time></trkpt><trkpt lat="45.87071388295678" lon="11.80417673171234"><ele>1587.0</ele><time>2026-04-06T09:57:27.99Z</time></trkpt><trkpt lat="45.87077168409346" lon="11.804106121347557"><ele>1592.0</ele><time>2026-04-06T09:58:43.988Z</time></trkpt><trkpt lat="45.87069990919848" lon="11.80404517565524"><ele>1597.0</ele><time>2026-04-06T09:59:33.988Z</time></trkpt><trkpt lat="45.870740164674466" lon="11.803956040257757"><ele>1602.0000000000002</ele><time>2026-04-06T10:01:04.987Z</time></trkpt><trkpt lat="45.8708033393765" lon="11.803928638793836"><ele>1607.0</ele><time>2026-04-06T10:01:15.987Z</time></trkpt><trkpt lat="45.870863740926524" lon="11.803888475592496"><ele>1606.9999999999998</ele><time>2026-04-06T10:01:27.988Z</time></trkpt><trkpt lat="45.87087865779912" lon="11.803796852911526"><ele>1607.0</ele><time>2026-04-06T10:01:56.988Z</time></trkpt><trkpt lat="45.87094217137943" lon="11.803706699279662"><ele>1607.0</ele><time>2026-04-06T10:02:33.988Z</time></trkpt><trkpt lat="45.87097268478265" lon="11.803587255232236"><ele>1607.0</ele><time>2026-04-06T10:02:54.985Z</time></trkpt><trkpt lat="45.87104059888486" lon="11.8035383922241"><ele>1606.9999999999998</ele><time>2026-04-06T10:03:06.985Z</time></trkpt><trkpt lat="45.871109275828154" lon="11.80352328662038"><ele>1607.0</ele><time>2026-04-06T10:06:08.985Z</time></trkpt><trkpt lat="45.871144614222054" lon="11.803444654819646"><ele>1612.3333333333333</ele><time>2026-04-06T10:06:20.985Z</time></trkpt><trkpt lat="45.8712014353371" lon="11.803326316569782"><ele>1617.6666666666665</ele><time>2026-04-06T10:06:40.985Z</time></trkpt><trkpt lat="45.871191394803695" lon="11.803225747202106"><ele>1623.0</ele><time>2026-04-06T10:06:51.986Z</time></trkpt><trkpt lat="45.87127640112397" lon="11.803189121275924"><ele>1628.3333333333335</ele><time>2026-04-06T10:07:16.983Z</time></trkpt><trkpt lat="45.8713324867162" lon="11.803128893374998"><ele>1633.6666666666667</ele><time>2026-04-06T10:07:27.983Z</time></trkpt><trkpt lat="45.87137940808104" lon="11.803063129030487"><ele>1639.0</ele><time>2026-04-06T10:07:38.983Z</time></trkpt><trkpt lat="45.8714459928931" lon="11.803021158596463"><ele>1639.0</ele><time>2026-04-06T10:07:48.983Z</time></trkpt><trkpt lat="45.87149036086382" lon="11.802950860948716"><ele>1639.0</ele><time>2026-04-06T10:07:56.983Z</time></trkpt><trkpt lat="45.87149594334539" lon="11.802852522084882"><ele>1639.0</ele><time>2026-04-06T10:08:15.984Z</time></trkpt><trkpt lat="45.87156477824385" lon="11.802819529799686"><ele>1639.0</ele><time>2026-04-06T10:08:28.984Z</time></trkpt><trkpt lat="45.8715985474327" lon="11.802733111529284"><ele>1639.0</ele><time>2026-04-06T10:08:58.984Z</time></trkpt><trkpt lat="45.871664426043274" lon="11.80270497799113"><ele>1639.0</ele><time>2026-04-06T10:09:10.984Z</time></trkpt><trkpt lat="45.87171938433546" lon="11.802660867507948"><ele>1639.0</ele><time>2026-04-06T10:09:22.982Z</time></trkpt><trkpt lat="45.871742729153915" lon="11.802576726202476"><ele>1646.5714285714287</ele><time>2026-04-06T10:09:29.981Z</time></trkpt><trkpt lat="45.871801862792324" lon="11.80262991916982"><ele>1654.1428571428573</ele><time>2026-04-06T10:09:42.981Z</time></trkpt><trkpt lat="45.871873087330556" lon="11.802609708819546"><ele>1661.7142857142858</ele><time>2026-04-06T10:10:05.982Z</time></trkpt><trkpt lat="45.87193976713833" lon="11.80261551554099"><ele>1669.2857142857142</ele><time>2026-04-06T10:12:10.98Z</time></trkpt><trkpt lat="45.871962940121946" lon="11.802527890387807"><ele>1676.857142857143</ele><time>2026-04-06T10:12:36.981Z</time></trkpt><trkpt lat="45.87200049953102" lon="11.802444513762703"><ele>1684.4285714285713</ele><time>2026-04-06T10:12:48.981Z</time></trkpt><trkpt lat="45.872026132475035" lon="11.80235130037289"><ele>1692.0</ele><time>2026-04-06T10:12:56.981Z</time></trkpt><trkpt lat="45.87208541025839" lon="11.802320342970157"><ele>1692.0</ele><time>2026-04-06T10:13:18.981Z</time></trkpt><trkpt lat="45.872133934637" lon="11.80224986818055"><ele>1692.0</ele><time>2026-04-06T10:13:34.979Z</time></trkpt><trkpt lat="45.872190436848996" lon="11.802175351949339"><ele>1692.0</ele><time>2026-04-06T10:13:52.979Z</time></trkpt><trkpt lat="45.87225849942104" lon="11.8022102212411"><ele>1692.0</ele><time>2026-04-06T10:14:05.979Z</time></trkpt><trkpt lat="45.87229871083054" lon="11.802284117540559"><ele>1692.0</ele><time>2026-04-06T10:14:16.98Z</time></trkpt><trkpt lat="45.87236536522076" lon="11.802269965893874"><ele>1692.0</ele><time>2026-04-06T10:14:42.98Z</time></trkpt><trkpt lat="45.87240443440778" lon="11.802350942566294"><ele>1692.0</ele><time>2026-04-06T10:14:52.98Z</time></trkpt><trkpt lat="45.87243308785687" lon="11.802437386363735"><ele>1692.0</ele><time>2026-04-06T10:15:02.98Z</time></trkpt><trkpt lat="45.8725028271031" lon="11.802457991041592"><ele>1692.0</ele><time>2026-04-06T10:15:42.978Z</time></trkpt><trkpt lat="45.87256600928547" lon="11.802446504945404"><ele>1692.0</ele><time>2026-04-06T10:16:15.978Z</time></trkpt><trkpt lat="45.87258472473441" lon="11.802345526490967"><ele>1692.0</ele><time>2026-04-06T10:16:27.978Z</time></trkpt><trkpt lat="45.87261178134988" lon="11.802254959940916"><ele>1692.0</ele><time>2026-04-06T10:16:39.978Z</time></trkpt><trkpt lat="45.87261768212211" lon="11.802162041825442"><ele>1692.0</ele><time>2026-04-06T10:16:45.978Z</time></trkpt><trkpt lat="45.872634972382016" lon="11.802069202503398"><ele>1692.0</ele><time>2026-04-06T10:17:03.979Z</time></trkpt><trkpt lat="45.87266988112948" lon="11.801979157332784"><ele>1696.2857142857142</ele><time>2026-04-06T10:17:21.979Z</time></trkpt><trkpt lat="45.87269797162312" lon="11.801885638971758"><ele>1700.5714285714287</ele><time>2026-04-06T10:17:31.979Z</time></trkpt><trkpt lat="45.872713995045665" lon="11.801790311125911"><ele>1704.857142857143</ele><time>2026-04-06T10:17:40.976Z</time></trkpt><trkpt lat="45.87272621743786" lon="11.80169011832699"><ele>1709.142857142857</ele><time>2026-04-06T10:17:51.977Z</time></trkpt><trkpt lat="45.87271096471511" lon="11.801599267774927"><ele>1713.4285714285716</ele><time>2026-04-06T10:18:01.977Z</time></trkpt><trkpt lat="45.87267519605428" lon="11.801517550187402"><ele>1717.7142857142858</ele><time>2026-04-06T10:18:09.977Z</time></trkpt><trkpt lat="45.87272407644709" lon="11.801581520756788"><ele>1722.0</ele><time>2026-04-06T10:18:35.977Z</time></trkpt><trkpt lat="45.87278019943843" lon="11.801681725410626"><ele>1722.0</ele><time>2026-04-06T10:24:29.946Z</time></trkpt><trkpt lat="45.87275332165803" lon="11.80159447314771"><ele>1722.0</ele><time>2026-04-06T10:24:48.947Z</time></trkpt><trkpt lat="45.87280748271087" lon="11.801645027885861"><ele>1722.0</ele><time>2026-04-06T10:26:32.944Z</time></trkpt><trkpt lat="45.87285569030754" lon="11.80171338491222"><ele>1722.0</ele><time>2026-04-06T10:26:39.944Z</time></trkpt><trkpt lat="45.872899477523376" lon="11.80180860526947"><ele>1722.0</ele><time>2026-04-06T10:26:46.944Z</time></trkpt><trkpt lat="45.8729665167556" lon="11.801844209894057"><ele>1722.0</ele><time>2026-04-06T10:26:53.944Z</time></trkpt><trkpt lat="45.873022924413675" lon="11.801897473322045"><ele>1722.0</ele><time>2026-04-06T10:27:00.944Z</time></trkpt><trkpt lat="45.873068557070276" lon="11.80196011965098"><ele>1722.0</ele><time>2026-04-06T10:27:06.944Z</time></trkpt><trkpt lat="45.87309543895182" lon="11.802042766076298"><ele>1722.0</ele><time>2026-04-06T10:27:12.945Z</time></trkpt><trkpt lat="45.873148161898555" lon="11.802098105281926"><ele>1722.0</ele><time>2026-04-06T10:27:52.945Z</time></trkpt><trkpt lat="45.87316753682059" lon="11.802195094039334"><ele>1722.0</ele><time>2026-04-06T10:28:01.945Z</time></trkpt><trkpt lat="45.87318888105352" lon="11.802292214655994"><ele>1722.0</ele><time>2026-04-06T10:28:07.944Z</time></trkpt><trkpt lat="45.873211121235855" lon="11.80238111353888"><ele>1722.0</ele><time>2026-04-06T10:28:13.943Z</time></trkpt><trkpt lat="45.87322506066391" lon="11.802475005790086"><ele>1722.0</ele><time>2026-04-06T10:28:20.943Z</time></trkpt><trkpt lat="45.87323783940029" lon="11.80257067603535"><ele>1722.0</ele><time>2026-04-06T10:28:26.943Z</time></trkpt><trkpt lat="45.87325039449609" lon="11.802660066553619"><ele>1722.0</ele><time>2026-04-06T10:28:31.943Z</time></trkpt><trkpt lat="45.87325907153684" lon="11.802754328365246"><ele>1722.0</ele><time>2026-04-06T10:28:36.943Z</time></trkpt><trkpt lat="45.873266228570586" lon="11.802849799159599"><ele>1722.0</ele><time>2026-04-06T10:28:43.943Z</time></trkpt><trkpt lat="45.87325808108351" lon="11.802952628577692"><ele>1722.0</ele><time>2026-04-06T10:28:51.943Z</time></trkpt><trkpt lat="45.873280479456064" lon="11.803039002377604"><ele>1722.0</ele><time>2026-04-06T10:28:59.943Z</time></trkpt><trkpt lat="45.87332474168342" lon="11.803112448521881"><ele>1722.0</ele><time>2026-04-06T10:29:07.943Z</time></trkpt><trkpt lat="45.873396641267746" lon="11.80314298231707"><ele>1719.0</ele><time>2026-04-06T10:36:48.941Z</time></trkpt><trkpt lat="45.87335223322667" lon="11.803062654331294"><ele>1719.0</ele><time>2026-04-06T10:40:00.94Z</time></trkpt><trkpt lat="45.873329652340885" lon="11.802970900713094"><ele>1719.0</ele><time>2026-04-06T10:40:07.94Z</time></trkpt><trkpt lat="45.873363192438774" lon="11.803060178145536"><ele>1719.0</ele><time>2026-04-06T10:42:55.937Z</time></trkpt><trkpt lat="45.87335046848292" lon="11.803155571474171"><ele>1719.0</ele><time>2026-04-06T10:43:12.937Z</time></trkpt><trkpt lat="45.8734399389763" lon="11.803142152072581"><ele>1679.0</ele><time>2026-04-06T10:43:48.938Z</time></trkpt><trkpt lat="45.87336549272375" lon="11.803133219674603"><ele>1719.0</ele><time>2026-04-06T10:44:45.936Z</time></trkpt><trkpt lat="45.87336549272375" lon="11.803133219674603"><ele>1719.0</ele><time>2026-04-06T10:44:45.936Z</time></trkpt></trkseg><trkseg><trkpt lat="45.873324339659625" lon="11.80283427054313"><ele>1719.0000000000002</ele><time>2026-04-06T11:02:48Z</time></trkpt><trkpt lat="45.87324880896444" lon="11.80282136806968"><ele>1719.0</ele><time>2026-04-06T11:02:58Z</time></trkpt><trkpt lat="45.873276020846205" lon="11.802736707754383"><ele>1719.0</ele><time>2026-04-06T11:03:09.001Z</time></trkpt><trkpt lat="45.873258890358045" lon="11.802646253033224"><ele>1719.0</ele><time>2026-04-06T11:03:16.001Z</time></trkpt><trkpt lat="45.87324757416758" lon="11.802546254119882"><ele>1719.0</ele><time>2026-04-06T11:03:22.001Z</time></trkpt><trkpt lat="45.87322786375011" lon="11.802445497030021"><ele>1719.0000000000002</ele><time>2026-04-06T11:03:28.001Z</time></trkpt><trkpt lat="45.87321181912472" lon="11.802340812712622"><ele>1719.0</ele><time>2026-04-06T11:03:34.001Z</time></trkpt><trkpt lat="45.87318278678942" lon="11.802242656236244"><ele>1719.4285714285716</ele><time>2026-04-06T11:03:39.001Z</time></trkpt><trkpt lat="45.873153341874826" lon="11.80214666646753"><ele>1719.857142857143</ele><time>2026-04-06T11:03:46.001Z</time></trkpt><trkpt lat="45.87312297648811" lon="11.802061705905027"><ele>1720.2857142857142</ele><time>2026-04-06T11:03:52.002Z</time></trkpt><trkpt lat="45.87308155582034" lon="11.801979706267831"><ele>1720.7142857142858</ele><time>2026-04-06T11:03:58.002Z</time></trkpt><trkpt lat="45.87302707024242" lon="11.801926308294854"><ele>1721.142857142857</ele><time>2026-04-06T11:04:04.002Z</time></trkpt><trkpt lat="45.872969099593156" lon="11.801860079891075"><ele>1721.5714285714287</ele><time>2026-04-06T11:04:10.002Z</time></trkpt><trkpt lat="45.87303835195474" lon="11.801878090785399"><ele>1722.0</ele><time>2026-04-06T11:04:26.002Z</time></trkpt><trkpt lat="45.872978358347424" lon="11.801844911406393"><ele>1722.5714285714287</ele><time>2026-04-06T11:04:54.003Z</time></trkpt><trkpt lat="45.87291133893507" lon="11.801818162986097"><ele>1723.142857142857</ele><time>2026-04-06T11:05:03.003Z</time></trkpt><trkpt lat="45.87288239950804" lon="11.801725686998184"><ele>1723.7142857142858</ele><time>2026-04-06T11:05:08.003Z</time></trkpt><trkpt lat="45.87283498701908" lon="11.801644018518312"><ele>1724.2857142857142</ele><time>2026-04-06T11:05:15.003Z</time></trkpt><trkpt lat="45.872790590769" lon="11.80156200435922"><ele>1724.857142857143</ele><time>2026-04-06T11:05:21.003Z</time></trkpt><trkpt lat="45.872727642050336" lon="11.801531553296812"><ele>1725.4285714285716</ele><time>2026-04-06T11:05:26.003Z</time></trkpt><trkpt lat="45.87275345384007" lon="11.801637345535923"><ele>1726.0</ele><time>2026-04-06T11:05:34.003Z</time></trkpt><trkpt lat="45.87276528684422" lon="11.80173568388638"><ele>1725.4285714285716</ele><time>2026-04-06T11:05:46.004Z</time></trkpt><trkpt lat="45.87276372101175" lon="11.801832300634585"><ele>1724.857142857143</ele><time>2026-04-06T11:05:55.004Z</time></trkpt><trkpt lat="45.872742770823535" lon="11.801928710616927"><ele>1724.2857142857142</ele><time>2026-04-06T11:06:04.004Z</time></trkpt><trkpt lat="45.87273804107346" lon="11.80202532314716"><ele>1723.7142857142858</ele><time>2026-04-06T11:06:19.004Z</time></trkpt><trkpt lat="45.87271507757952" lon="11.8021188744447"><ele>1723.142857142857</ele><time>2026-04-06T11:06:27.005Z</time></trkpt><trkpt lat="45.872701713365544" lon="11.802214663081529"><ele>1722.5714285714287</ele><time>2026-04-06T11:06:32.005Z</time></trkpt><trkpt lat="45.87266143914537" lon="11.802294298192876"><ele>1722.0</ele><time>2026-04-06T11:06:59.005Z</time></trkpt><trkpt lat="45.872636197775364" lon="11.802385492490819"><ele>1722.0</ele><time>2026-04-06T11:07:14.005Z</time></trkpt><trkpt lat="45.87260681785144" lon="11.802469420808988"><ele>1722.0</ele><time>2026-04-06T11:07:42.006Z</time></trkpt><trkpt lat="45.872540170163134" lon="11.802503444040878"><ele>1722.0</ele><time>2026-04-06T11:08:05.006Z</time></trkpt><trkpt lat="45.87251527136775" lon="11.80241849669934"><ele>1722.0</ele><time>2026-04-06T11:08:20.007Z</time></trkpt><trkpt lat="45.87245211125408" lon="11.802377186786298"><ele>1722.0</ele><time>2026-04-06T11:08:39.007Z</time></trkpt><trkpt lat="45.872415858722725" lon="11.80230154216916"><ele>1722.0</ele><time>2026-04-06T11:08:59.008Z</time></trkpt><trkpt lat="45.872377027700395" lon="11.802223924328125"><ele>1722.0</ele><time>2026-04-06T11:09:12.008Z</time></trkpt><trkpt lat="45.87230875238091" lon="11.802224981965258"><ele>1717.7142857142858</ele><time>2026-04-06T11:09:41.008Z</time></trkpt><trkpt lat="45.87224797758774" lon="11.802187415403713"><ele>1713.4285714285716</ele><time>2026-04-06T11:09:55.009Z</time></trkpt><trkpt lat="45.87218316926466" lon="11.802179351722694"><ele>1709.142857142857</ele><time>2026-04-06T11:10:16.009Z</time></trkpt><trkpt lat="45.872153855531465" lon="11.80226574063786"><ele>1704.857142857143</ele><time>2026-04-06T11:10:28.009Z</time></trkpt><trkpt lat="45.872085210732166" lon="11.802269674334648"><ele>1700.5714285714287</ele><time>2026-04-06T11:11:08.01Z</time></trkpt><trkpt lat="45.8720564959753" lon="11.802350194471108"><ele>1696.2857142857142</ele><time>2026-04-06T11:11:14.01Z</time></trkpt><trkpt lat="45.87204432285374" lon="11.802453386177428"><ele>1692.0</ele><time>2026-04-06T11:11:33.011Z</time></trkpt><trkpt lat="45.872007129481744" lon="11.80253194538061"><ele>1692.0</ele><time>2026-04-06T11:11:51.011Z</time></trkpt><trkpt lat="45.87196426658402" lon="11.802606361360445"><ele>1692.0</ele><time>2026-04-06T11:12:05.011Z</time></trkpt><trkpt lat="45.871883836308214" lon="11.80259680074822"><ele>1692.0</ele><time>2026-04-06T11:12:48.012Z</time></trkpt><trkpt lat="45.871826519231334" lon="11.802636281429425"><ele>1692.0</ele><time>2026-04-06T11:13:12.013Z</time></trkpt><trkpt lat="45.87176110486387" lon="11.802678785465334"><ele>1692.0</ele><time>2026-04-06T11:13:36.013Z</time></trkpt><trkpt lat="45.87170402407829" lon="11.802733883635023"><ele>1692.0</ele><time>2026-04-06T11:13:43.013Z</time></trkpt><trkpt lat="45.87163749110058" lon="11.80279358204483"><ele>1692.0</ele><time>2026-04-06T11:14:00.014Z</time></trkpt><trkpt lat="45.871571052028365" lon="11.80285081472636"><ele>1684.4285714285713</ele><time>2026-04-06T11:14:11.014Z</time></trkpt><trkpt lat="45.87152042037938" lon="11.802908582366761"><ele>1676.857142857143</ele><time>2026-04-06T11:14:17.014Z</time></trkpt><trkpt lat="45.87145482125378" lon="11.802938209163383"><ele>1669.2857142857142</ele><time>2026-04-06T11:14:41.014Z</time></trkpt><trkpt lat="45.87143602408786" lon="11.803032745986608"><ele>1661.7142857142858</ele><time>2026-04-06T11:15:05.015Z</time></trkpt><trkpt lat="45.87138314720753" lon="11.803088626841046"><ele>1654.1428571428573</ele><time>2026-04-06T11:15:15.015Z</time></trkpt><trkpt lat="45.87132501605497" lon="11.803139992601292"><ele>1646.5714285714287</ele><time>2026-04-06T11:15:35.015Z</time></trkpt><trkpt lat="45.87126923285038" lon="11.80319922019624"><ele>1639.0</ele><time>2026-04-06T11:15:44.016Z</time></trkpt><trkpt lat="45.871227892975064" lon="11.803275814357162"><ele>1639.0</ele><time>2026-04-06T11:15:53.016Z</time></trkpt><trkpt lat="45.871178123282185" lon="11.803363790163898"><ele>1639.0</ele><time>2026-04-06T11:16:07.016Z</time></trkpt><trkpt lat="45.87114154640549" lon="11.803454456980104"><ele>1639.0</ele><time>2026-04-06T11:16:18.016Z</time></trkpt><trkpt lat="45.87108250724841" lon="11.80351642992404"><ele>1639.0</ele><time>2026-04-06T11:16:41.017Z</time></trkpt><trkpt lat="45.87104740706571" lon="11.803598139847516"><ele>1639.0</ele><time>2026-04-06T11:17:02.017Z</time></trkpt><trkpt lat="45.87100049909468" lon="11.803662309266551"><ele>1639.0</ele><time>2026-04-06T11:17:45.018Z</time></trkpt><trkpt lat="45.87095269213569" lon="11.8037335138498"><ele>1639.0</ele><time>2026-04-06T11:18:15.019Z</time></trkpt><trkpt lat="45.870900469974" lon="11.80378717595359"><ele>1634.4285714285716</ele><time>2026-04-06T11:18:33.019Z</time></trkpt><trkpt lat="45.870858752107324" lon="11.80388236225967"><ele>1629.857142857143</ele><time>2026-04-06T11:20:02.021Z</time></trkpt><trkpt lat="45.87080748134283" lon="11.803955490653989"><ele>1625.2857142857142</ele><time>2026-04-06T11:20:25.021Z</time></trkpt><trkpt lat="45.87074629711062" lon="11.803986818418991"><ele>1620.7142857142858</ele><time>2026-04-06T11:21:03.022Z</time></trkpt><trkpt lat="45.870702895606534" lon="11.804058465539164"><ele>1616.142857142857</ele><time>2026-04-06T11:21:26.022Z</time></trkpt><trkpt lat="45.870652416307095" lon="11.804120070409374"><ele>1611.5714285714287</ele><time>2026-04-06T11:22:10.023Z</time></trkpt><trkpt lat="45.87060669648964" lon="11.804188462733883"><ele>1607.0</ele><time>2026-04-06T11:23:01.015Z</time></trkpt><trkpt lat="45.87056200911627" lon="11.80425885800251"><ele>1602.0000000000002</ele><time>2026-04-06T11:24:40.015Z</time></trkpt><trkpt lat="45.87051718514023" lon="11.804330436463436"><ele>1597.0</ele><time>2026-04-06T11:25:11.016Z</time></trkpt><trkpt lat="45.87047904018406" lon="11.804404376057656"><ele>1592.0</ele><time>2026-04-06T11:25:32.016Z</time></trkpt><trkpt lat="45.87046828004742" lon="11.804498217763706"><ele>1587.0</ele><time>2026-04-06T11:25:51.016Z</time></trkpt><trkpt lat="45.870400486763344" lon="11.8045512937732"><ele>1582.0</ele><time>2026-04-06T11:26:14.016Z</time></trkpt><trkpt lat="45.870347879695174" lon="11.804614377625692"><ele>1577.0000000000002</ele><time>2026-04-06T11:26:21.017Z</time></trkpt><trkpt lat="45.87029573373271" lon="11.80469258428207"><ele>1572.0</ele><time>2026-04-06T11:26:34.017Z</time></trkpt><trkpt lat="45.87026340587682" lon="11.804777673575712"><ele>1572.0</ele><time>2026-04-06T11:26:42.017Z</time></trkpt><trkpt lat="45.87023204916414" lon="11.804868055080078"><ele>1572.0</ele><time>2026-04-06T11:26:56.017Z</time></trkpt><trkpt lat="45.8701702959258" lon="11.804925716383249"><ele>1572.0</ele><time>2026-04-06T11:27:16.018Z</time></trkpt><trkpt lat="45.87014627209141" lon="11.805025429910366"><ele>1572.0</ele><time>2026-04-06T11:27:29.018Z</time></trkpt><trkpt lat="45.870121863686215" lon="11.805116020587473"><ele>1572.0</ele><time>2026-04-06T11:27:39.018Z</time></trkpt><trkpt lat="45.87008716360535" lon="11.805298062989904"><ele>1572.0</ele><time>2026-04-06T11:29:06.018Z</time></trkpt><trkpt lat="45.87003564931228" lon="11.805365044428912"><ele>1570.4285714285716</ele><time>2026-04-06T11:29:32.019Z</time></trkpt><trkpt lat="45.86997195883143" lon="11.805397208893437"><ele>1568.857142857143</ele><time>2026-04-06T11:29:45.019Z</time></trkpt><trkpt lat="45.86995365256132" lon="11.805489086337573"><ele>1567.2857142857142</ele><time>2026-04-06T11:31:39.021Z</time></trkpt><trkpt lat="45.86989119689307" lon="11.8055129553903"><ele>1565.7142857142858</ele><time>2026-04-06T11:31:53.021Z</time></trkpt><trkpt lat="45.86981062458852" lon="11.80542698738112"><ele>1564.142857142857</ele><time>2026-04-06T11:32:22.021Z</time></trkpt><trkpt lat="45.86973728139019" lon="11.805402633180451"><ele>1562.5714285714287</ele><time>2026-04-06T11:32:37.021Z</time></trkpt><trkpt lat="45.86967440219282" lon="11.805429516262631"><ele>1561.0</ele><time>2026-04-06T11:32:52.022Z</time></trkpt><trkpt lat="45.86963774531505" lon="11.805521737784881"><ele>1561.0</ele><time>2026-04-06T11:33:05.022Z</time></trkpt><trkpt lat="45.86964399907911" lon="11.805642803304217"><ele>1561.0</ele><time>2026-04-06T11:33:10.022Z</time></trkpt><trkpt lat="45.86962046048221" lon="11.805736914737151"><ele>1561.0</ele><time>2026-04-06T11:33:20.022Z</time></trkpt><trkpt lat="45.86961015797982" lon="11.805836459351811"><ele>1561.0</ele><time>2026-04-06T11:33:27.022Z</time></trkpt><trkpt lat="45.86958424844762" lon="11.805921408757172"><ele>1561.0</ele><time>2026-04-06T11:33:35.023Z</time></trkpt><trkpt lat="45.86952407493513" lon="11.805886258743723"><ele>1561.0</ele><time>2026-04-06T11:33:49.023Z</time></trkpt><trkpt lat="45.86945957160191" lon="11.805845264783862"><ele>1561.0</ele><time>2026-04-06T11:33:58.023Z</time></trkpt><trkpt lat="45.869403969906486" lon="11.805786258006293"><ele>1561.0000000000002</ele><time>2026-04-06T11:34:07.022Z</time></trkpt><trkpt lat="45.86936556719369" lon="11.805701165843212"><ele>1561.0</ele><time>2026-04-06T11:34:19.022Z</time></trkpt><trkpt lat="45.869298175372606" lon="11.805740529471858"><ele>1561.0</ele><time>2026-04-06T11:34:40.022Z</time></trkpt><trkpt lat="45.86923482540316" lon="11.80576403468727"><ele>1561.0</ele><time>2026-04-06T11:34:53.022Z</time></trkpt><trkpt lat="45.869194341266386" lon="11.805841640288222"><ele>1561.0000000000002</ele><time>2026-04-06T11:35:10.023Z</time></trkpt><trkpt lat="45.86910707062723" lon="11.805938907773438"><ele>1561.0</ele><time>2026-04-06T11:35:56.024Z</time></trkpt><trkpt lat="45.869061727777925" lon="11.806001764783668"><ele>1557.5714285714287</ele><time>2026-04-06T11:36:11.024Z</time></trkpt><trkpt lat="45.869005730276164" lon="11.806071790225122"><ele>1554.142857142857</ele><time>2026-04-06T11:36:20.024Z</time></trkpt><trkpt lat="45.868962146889395" lon="11.806153523632315"><ele>1550.7142857142858</ele><time>2026-04-06T11:36:36.023Z</time></trkpt><trkpt lat="45.868926737467525" lon="11.8062301368758"><ele>1547.2857142857142</ele><time>2026-04-06T11:36:51.024Z</time></trkpt><trkpt lat="45.86888405077327" lon="11.806309049648268"><ele>1543.857142857143</ele><time>2026-04-06T11:37:04.024Z</time></trkpt><trkpt lat="45.86884827316861" lon="11.806393434168335"><ele>1540.4285714285716</ele><time>2026-04-06T11:37:13.024Z</time></trkpt><trkpt lat="45.86879857930401" lon="11.806486959875901"><ele>1537.0</ele><time>2026-04-06T11:37:32.025Z</time></trkpt><trkpt lat="45.868757019058584" lon="11.806568807143671"><ele>1537.0000000000002</ele><time>2026-04-06T11:37:40.025Z</time></trkpt><trkpt lat="45.86873154401127" lon="11.806658554009552"><ele>1537.0</ele><time>2026-04-06T11:37:55.025Z</time></trkpt><trkpt lat="45.86872338291279" lon="11.806753118859287"><ele>1537.0</ele><time>2026-04-06T11:38:08.025Z</time></trkpt><trkpt lat="45.86869689609063" lon="11.806836296606859"><ele>1537.0</ele><time>2026-04-06T11:38:18.026Z</time></trkpt><trkpt lat="45.86865795701323" lon="11.806917569379863"><ele>1537.0</ele><time>2026-04-06T11:38:33.026Z</time></trkpt><trkpt lat="45.868603598455664" lon="11.806989472607334"><ele>1537.0000000000002</ele><time>2026-04-06T11:38:44.026Z</time></trkpt><trkpt lat="45.8685612435024" lon="11.807068043521372"><ele>1537.0</ele><time>2026-04-06T11:38:55.026Z</time></trkpt><trkpt lat="45.86853942744317" lon="11.807166962868"><ele>1536.3333333333335</ele><time>2026-04-06T11:39:05.027Z</time></trkpt><trkpt lat="45.86852322441276" lon="11.807264317267745"><ele>1535.6666666666667</ele><time>2026-04-06T11:39:34.027Z</time></trkpt><trkpt lat="45.86848322940634" lon="11.807347348672426"><ele>1535.0</ele><time>2026-04-06T11:39:47.027Z</time></trkpt><trkpt lat="45.868493900537" lon="11.807444339115557"><ele>1534.3333333333335</ele><time>2026-04-06T11:39:56.028Z</time></trkpt><trkpt lat="45.86848776269841" lon="11.807544298056692"><ele>1533.6666666666667</ele><time>2026-04-06T11:40:16.028Z</time></trkpt><trkpt lat="45.86840890031922" lon="11.807678922603598"><ele>1533.0</ele><time>2026-04-06T11:40:41.027Z</time></trkpt><trkpt lat="45.868346891927224" lon="11.807739958578576"><ele>1528.0</ele><time>2026-04-06T11:40:52.028Z</time></trkpt><trkpt lat="45.86830536309248" lon="11.807817976379395"><ele>1523.0</ele><time>2026-04-06T11:40:58.028Z</time></trkpt><trkpt lat="45.86827144961675" lon="11.807900505055244"><ele>1518.0</ele><time>2026-04-06T11:41:21.028Z</time></trkpt><trkpt lat="45.86823544491193" lon="11.807979773182158"><ele>1513.0</ele><time>2026-04-06T11:41:34.028Z</time></trkpt><trkpt lat="45.868186222212756" lon="11.8080439188068"><ele>1508.0</ele><time>2026-04-06T11:41:43.029Z</time></trkpt><trkpt lat="45.86813271845347" lon="11.80810273507106"><ele>1503.0</ele><time>2026-04-06T11:41:57.029Z</time></trkpt><trkpt lat="45.86808819681142" lon="11.808195831616683"><ele>1498.0</ele><time>2026-04-06T11:43:40.03Z</time></trkpt><trkpt lat="45.86803194432619" lon="11.808253028383895"><ele>1498.0</ele><time>2026-04-06T11:43:51.03Z</time></trkpt><trkpt lat="45.86798498592408" lon="11.808316290284676"><ele>1498.0</ele><time>2026-04-06T11:44:00.031Z</time></trkpt><trkpt lat="45.86793596040342" lon="11.808387330335956"><ele>1498.0</ele><time>2026-04-06T11:44:10.031Z</time></trkpt><trkpt lat="45.86789063527314" lon="11.808466580447003"><ele>1498.0</ele><time>2026-04-06T11:44:26.031Z</time></trkpt><trkpt lat="45.8678541390884" lon="11.808554778213985"><ele>1498.0</ele><time>2026-04-06T11:44:35.029Z</time></trkpt><trkpt lat="45.86781655394554" lon="11.808636198544916"><ele>1498.0</ele><time>2026-04-06T11:45:55.031Z</time></trkpt><trkpt lat="45.867779742214864" lon="11.808728660005672"><ele>1498.0</ele><time>2026-04-06T11:46:06.031Z</time></trkpt><trkpt lat="45.86774447503756" lon="11.808807153403384"><ele>1495.4285714285713</ele><time>2026-04-06T11:46:33.031Z</time></trkpt><trkpt lat="45.86770302612697" lon="11.808881213864876"><ele>1492.857142857143</ele><time>2026-04-06T11:46:53.03Z</time></trkpt><trkpt lat="45.86764520355254" lon="11.808919986109407"><ele>1490.2857142857142</ele><time>2026-04-06T11:47:14.03Z</time></trkpt><trkpt lat="45.867608208711665" lon="11.808999457262942"><ele>1487.7142857142858</ele><time>2026-04-06T11:47:21.03Z</time></trkpt><trkpt lat="45.86755004194171" lon="11.809040209730634"><ele>1485.142857142857</ele><time>2026-04-06T11:47:38.031Z</time></trkpt><trkpt lat="45.867490454061574" lon="11.809084179814459"><ele>1482.5714285714284</ele><time>2026-04-06T11:47:54.031Z</time></trkpt><trkpt lat="45.86743166652103" lon="11.80915007442147"><ele>1480.0</ele><time>2026-04-06T11:48:04.031Z</time></trkpt><trkpt lat="45.8673801212264" lon="11.809212335908015"><ele>1479.7142857142856</ele><time>2026-04-06T11:48:12.031Z</time></trkpt><trkpt lat="45.86734564494097" lon="11.809288415475311"><ele>1479.4285714285713</ele><time>2026-04-06T11:48:18.031Z</time></trkpt><trkpt lat="45.8672978983531" lon="11.809349446405209"><ele>1479.142857142857</ele><time>2026-04-06T11:48:26.032Z</time></trkpt><trkpt lat="45.86726483997287" lon="11.809429370328013"><ele>1478.8571428571427</ele><time>2026-04-06T11:48:34.032Z</time></trkpt><trkpt lat="45.86720698449068" lon="11.809499725261118"><ele>1478.5714285714287</ele><time>2026-04-06T11:49:25.032Z</time></trkpt><trkpt lat="45.867154234615754" lon="11.809550146045083"><ele>1478.2857142857142</ele><time>2026-04-06T11:49:34.032Z</time></trkpt><trkpt lat="45.867088211898285" lon="11.80956462416829"><ele>1478.0</ele><time>2026-04-06T11:49:41.032Z</time></trkpt><trkpt lat="45.867025811861986" lon="11.80963558203696"><ele>1476.857142857143</ele><time>2026-04-06T11:49:48.032Z</time></trkpt><trkpt lat="45.86697884345726" lon="11.809699745375626"><ele>1475.7142857142858</ele><time>2026-04-06T11:49:54.033Z</time></trkpt><trkpt lat="45.86694881258067" lon="11.809782540116268"><ele>1474.5714285714284</ele><time>2026-04-06T11:49:59.033Z</time></trkpt><trkpt lat="45.86691131886337" lon="11.809866768188789"><ele>1473.4285714285716</ele><time>2026-04-06T11:50:05.033Z</time></trkpt><trkpt lat="45.86686783841402" lon="11.809940825896396"><ele>1472.2857142857142</ele><time>2026-04-06T11:50:11.033Z</time></trkpt><trkpt lat="45.86681952691029" lon="11.810016080296005"><ele>1471.142857142857</ele><time>2026-04-06T11:50:18.033Z</time></trkpt><trkpt lat="45.86677101746674" lon="11.810090432411004"><ele>1470.0</ele><time>2026-04-06T11:50:23.033Z</time></trkpt><trkpt lat="45.866701248887395" lon="11.810129220539736"><ele>1471.857142857143</ele><time>2026-04-06T11:50:29.033Z</time></trkpt><trkpt lat="45.86663706829779" lon="11.81016346745508"><ele>1473.7142857142858</ele><time>2026-04-06T11:50:36.033Z</time></trkpt><trkpt lat="45.86656364410448" lon="11.810182349680042"><ele>1475.5714285714284</ele><time>2026-04-06T11:50:42.034Z</time></trkpt><trkpt lat="45.86648962769521" lon="11.810191356244909"><ele>1477.4285714285716</ele><time>2026-04-06T11:50:48.034Z</time></trkpt><trkpt lat="45.866424689925246" lon="11.81020767650654"><ele>1479.2857142857142</ele><time>2026-04-06T11:50:53.033Z</time></trkpt><trkpt lat="45.86635581649045" lon="11.810218328682781"><ele>1481.142857142857</ele><time>2026-04-06T11:51:00.032Z</time></trkpt><trkpt lat="45.86628933024803" lon="11.810246256964056"><ele>1483.0</ele><time>2026-04-06T11:51:07.032Z</time></trkpt><trkpt lat="45.866227156504756" lon="11.810303440974888"><ele>1483.0</ele><time>2026-04-06T11:51:13.032Z</time></trkpt><trkpt lat="45.866170267342234" lon="11.810359832079998"><ele>1483.0</ele><time>2026-04-06T11:51:19.033Z</time></trkpt><trkpt lat="45.86610958046062" lon="11.810404309267549"><ele>1483.0</ele><time>2026-04-06T11:51:24.033Z</time></trkpt><trkpt lat="45.866040101080785" lon="11.810384024070713"><ele>1483.0</ele><time>2026-04-06T11:51:30.033Z</time></trkpt><trkpt lat="45.865966313567235" lon="11.810370327777127"><ele>1483.0</ele><time>2026-04-06T11:51:36.033Z</time></trkpt><trkpt lat="45.86590184783906" lon="11.810363788922771"><ele>1483.0</ele><time>2026-04-06T11:51:42.033Z</time></trkpt><trkpt lat="45.865838300341316" lon="11.810372477335891"><ele>1483.0</ele><time>2026-04-06T11:51:47.033Z</time></trkpt><trkpt lat="45.86577450449426" lon="11.810397999267435"><ele>1480.142857142857</ele><time>2026-04-06T11:51:55.033Z</time></trkpt><trkpt lat="45.86572925623968" lon="11.810475593101906"><ele>1477.2857142857142</ele><time>2026-04-06T11:52:01.033Z</time></trkpt><trkpt lat="45.86569535932584" lon="11.810563543954816"><ele>1474.4285714285716</ele><time>2026-04-06T11:52:07.033Z</time></trkpt><trkpt lat="45.865641090631726" lon="11.810631690373144"><ele>1471.5714285714284</ele><time>2026-04-06T11:52:14.034Z</time></trkpt><trkpt lat="45.86557928302742" lon="11.810658336918058"><ele>1468.7142857142858</ele><time>2026-04-06T11:52:20.034Z</time></trkpt><trkpt lat="45.865519322665435" lon="11.810705370030341"><ele>1465.857142857143</ele><time>2026-04-06T11:52:25.034Z</time></trkpt><trkpt lat="45.86546682171116" lon="11.810770629505488"><ele>1463.0</ele><time>2026-04-06T11:52:31.034Z</time></trkpt><trkpt lat="45.865408156386216" lon="11.810843742028974"><ele>1463.0</ele><time>2026-04-06T11:52:37.034Z</time></trkpt><trkpt lat="45.865338403490526" lon="11.810881405870365"><ele>1463.0</ele><time>2026-04-06T11:52:43.034Z</time></trkpt><trkpt lat="45.8652643369136" lon="11.810906387518095"><ele>1463.0</ele><time>2026-04-06T11:52:49.034Z</time></trkpt><trkpt lat="45.86519217913995" lon="11.810922177207296"><ele>1463.0</ele><time>2026-04-06T11:52:56.034Z</time></trkpt><trkpt lat="45.86512743296086" lon="11.810959772928548"><ele>1463.0</ele><time>2026-04-06T11:53:03.034Z</time></trkpt><trkpt lat="45.86505997706115" lon="11.811007440360338"><ele>1463.0</ele><time>2026-04-06T11:53:09.034Z</time></trkpt><trkpt lat="45.86498836335048" lon="11.81105097891867"><ele>1463.0</ele><time>2026-04-06T11:53:14.035Z</time></trkpt><trkpt lat="45.86492339548964" lon="11.811082144232568"><ele>1463.142857142857</ele><time>2026-04-06T11:53:20.035Z</time></trkpt><trkpt lat="45.86485262578482" lon="11.811094693193496"><ele>1463.2857142857142</ele><time>2026-04-06T11:53:26.035Z</time></trkpt><trkpt lat="45.86477712957718" lon="11.811075018208836"><ele>1463.4285714285716</ele><time>2026-04-06T11:53:33.035Z</time></trkpt><trkpt lat="45.86471066009448" lon="11.811081516501757"><ele>1463.5714285714284</ele><time>2026-04-06T11:53:39.035Z</time></trkpt><trkpt lat="45.86464511713492" lon="11.811089434229974"><ele>1463.7142857142858</ele><time>2026-04-06T11:53:45.035Z</time></trkpt><trkpt lat="45.864577504466226" lon="11.811098907368612"><ele>1463.857142857143</ele><time>2026-04-06T11:53:51.035Z</time></trkpt><trkpt lat="45.8645142277365" lon="11.811103124505271"><ele>1464.0</ele><time>2026-04-06T11:53:59.035Z</time></trkpt><trkpt lat="45.86444885968865" lon="11.811134609051448"><ele>1464.0</ele><time>2026-04-06T11:54:06.036Z</time></trkpt><trkpt lat="45.86438737440351" lon="11.811158018818881"><ele>1464.0</ele><time>2026-04-06T11:54:11.036Z</time></trkpt><trkpt lat="45.86432308725709" lon="11.81116562877831"><ele>1464.0</ele><time>2026-04-06T11:54:18.036Z</time></trkpt><trkpt lat="45.86425677666705" lon="11.811205896609012"><ele>1464.0</ele><time>2026-04-06T11:54:23.036Z</time></trkpt><trkpt lat="45.86419289836341" lon="11.811249475110904"><ele>1464.0</ele><time>2026-04-06T11:54:30.036Z</time></trkpt><trkpt lat="45.86412923112854" lon="11.811253372961092"><ele>1464.0</ele><time>2026-04-06T11:54:36.036Z</time></trkpt><trkpt lat="45.86406073465203" lon="11.81128947995719"><ele>1464.0</ele><time>2026-04-06T11:54:43.036Z</time></trkpt><trkpt lat="45.86399471541698" lon="11.81132112695571"><ele>1461.142857142857</ele><time>2026-04-06T11:54:48.036Z</time></trkpt><trkpt lat="45.86394125982895" lon="11.811382194013833"><ele>1458.2857142857142</ele><time>2026-04-06T11:54:56.037Z</time></trkpt><trkpt lat="45.86388099089124" lon="11.811408729191722"><ele>1455.4285714285716</ele><time>2026-04-06T11:55:02.035Z</time></trkpt><trkpt lat="45.86381857572125" lon="11.811475891747802"><ele>1452.5714285714284</ele><time>2026-04-06T11:55:08.036Z</time></trkpt><trkpt lat="45.8637511447132" lon="11.8115014585152"><ele>1449.7142857142856</ele><time>2026-04-06T11:55:14.036Z</time></trkpt><trkpt lat="45.86369853469815" lon="11.811552448816736"><ele>1446.857142857143</ele><time>2026-04-06T11:55:21.036Z</time></trkpt><trkpt lat="45.863641143444305" lon="11.811605173970525"><ele>1444.0</ele><time>2026-04-06T11:55:28.036Z</time></trkpt><trkpt lat="45.86357738143689" lon="11.811669269399511"><ele>1444.0</ele><time>2026-04-06T11:55:36.036Z</time></trkpt><trkpt lat="45.863543357298795" lon="11.81175529793505"><ele>1444.0</ele><time>2026-04-06T11:55:46.036Z</time></trkpt><trkpt lat="45.86350089553108" lon="11.811827305719326"><ele>1444.0</ele><time>2026-04-06T11:55:51.036Z</time></trkpt><trkpt lat="45.86345892895144" lon="11.811903449762799"><ele>1444.0</ele><time>2026-04-06T11:55:58.036Z</time></trkpt><trkpt lat="45.863424653596105" lon="11.81199269608109"><ele>1444.0</ele><time>2026-04-06T11:56:04.037Z</time></trkpt><trkpt lat="45.863401681952034" lon="11.812094649601189"><ele>1444.0</ele><time>2026-04-06T11:56:09.037Z</time></trkpt><trkpt lat="45.86336235965079" lon="11.812193154164715"><ele>1444.0</ele><time>2026-04-06T11:56:15.037Z</time></trkpt><trkpt lat="45.86335479431966" lon="11.812295043582735"><ele>1440.142857142857</ele><time>2026-04-06T11:56:22.037Z</time></trkpt><trkpt lat="45.8633308953735" lon="11.812405261998057"><ele>1436.2857142857142</ele><time>2026-04-06T11:56:29.037Z</time></trkpt><trkpt lat="45.863323016768966" lon="11.81250443632854"><ele>1432.4285714285713</ele><time>2026-04-06T11:56:36.037Z</time></trkpt><trkpt lat="45.863315595508105" lon="11.81259787971117"><ele>1428.5714285714284</ele><time>2026-04-06T11:56:43.037Z</time></trkpt><trkpt lat="45.86330562839464" lon="11.812507899682426"><ele>1424.7142857142858</ele><time>2026-04-06T11:57:03.038Z</time></trkpt><trkpt lat="45.86331436923673" lon="11.812415729884796"><ele>1420.8571428571427</ele><time>2026-04-06T11:57:11.037Z</time></trkpt><trkpt lat="45.86333533842312" lon="11.812324160071388"><ele>1417.0</ele><time>2026-04-06T11:57:20.037Z</time></trkpt><trkpt lat="45.86334520655723" lon="11.812231369881294"><ele>1416.9999999999998</ele><time>2026-04-06T11:57:28.037Z</time></trkpt><trkpt lat="45.86335125130694" lon="11.812136040224225"><ele>1417.0</ele><time>2026-04-06T11:57:38.037Z</time></trkpt><trkpt lat="45.86335524682228" lon="11.812045520106759"><ele>1417.0</ele><time>2026-04-06T11:57:44.037Z</time></trkpt><trkpt lat="45.86337593176575" lon="11.811959295715539"><ele>1417.0</ele><time>2026-04-06T11:57:51.037Z</time></trkpt><trkpt lat="45.8633322962853" lon="11.811892394359283"><ele>1417.0</ele><time>2026-04-06T11:57:58.038Z</time></trkpt><trkpt lat="45.86325228690253" lon="11.811821420308682"><ele>1416.9999999999998</ele><time>2026-04-06T11:58:12.038Z</time></trkpt><trkpt lat="45.863272015644895" lon="11.811705379260603"><ele>1417.0</ele><time>2026-04-06T11:58:21.038Z</time></trkpt><trkpt lat="45.86330221659953" lon="11.811612347378109"><ele>1415.8571428571427</ele><time>2026-04-06T11:58:26.038Z</time></trkpt><trkpt lat="45.863321903359136" lon="11.811519300212217"><ele>1414.7142857142858</ele><time>2026-04-06T11:58:32.038Z</time></trkpt><trkpt lat="45.86337526589856" lon="11.81146881038434"><ele>1413.5714285714284</ele><time>2026-04-06T11:58:39.038Z</time></trkpt><trkpt lat="45.86341323530372" lon="11.811387426614267"><ele>1412.4285714285713</ele><time>2026-04-06T11:58:45.038Z</time></trkpt><trkpt lat="45.86343644853511" lon="11.811284436010256"><ele>1411.2857142857142</ele><time>2026-04-06T11:58:51.039Z</time></trkpt><trkpt lat="45.863468952161405" lon="11.811202608765388"><ele>1410.142857142857</ele><time>2026-04-06T11:58:56.039Z</time></trkpt><trkpt lat="45.86352414625155" lon="11.811097551099708"><ele>1409.0</ele><time>2026-04-06T11:59:05.039Z</time></trkpt><trkpt lat="45.86354944581562" lon="11.810996808781303"><ele>1409.0</ele><time>2026-04-06T11:59:12.039Z</time></trkpt><trkpt lat="45.86348868083913" lon="11.81095454798007"><ele>1409.0</ele><time>2026-04-06T11:59:22.038Z</time></trkpt><trkpt lat="45.863420279261724" lon="11.810978376190866"><ele>1409.0</ele><time>2026-04-06T11:59:33.038Z</time></trkpt><trkpt lat="45.86335580148256" lon="11.810971326588465"><ele>1409.0</ele><time>2026-04-06T11:59:52.039Z</time></trkpt><trkpt lat="45.86328807850643" lon="11.81098701187423"><ele>1409.0</ele><time>2026-04-06T11:59:59.039Z</time></trkpt><trkpt lat="45.86323050945544" lon="11.8110240226877"><ele>1409.0</ele><time>2026-04-06T12:00:04.039Z</time></trkpt><trkpt lat="45.863167067822324" lon="11.811029078917064"><ele>1409.0</ele><time>2026-04-06T12:00:12.039Z</time></trkpt><trkpt lat="45.863105765778734" lon="11.811001170669766"><ele>1408.2857142857144</ele><time>2026-04-06T12:00:18.039Z</time></trkpt><trkpt lat="45.86305377554394" lon="11.810891271412972"><ele>1407.5714285714284</ele><time>2026-04-06T12:00:38.04Z</time></trkpt><trkpt lat="45.863050480041885" lon="11.810783489563581"><ele>1406.857142857143</ele><time>2026-04-06T12:00:44.04Z</time></trkpt><trkpt lat="45.86304112297238" lon="11.810679955169185"><ele>1406.1428571428573</ele><time>2026-04-06T12:00:49.04Z</time></trkpt><trkpt lat="45.863000667760794" lon="11.810609398313742"><ele>1405.4285714285716</ele><time>2026-04-06T12:00:54.04Z</time></trkpt><trkpt lat="45.86294071975239" lon="11.810570003004868"><ele>1404.7142857142858</ele><time>2026-04-06T12:00:59.04Z</time></trkpt><trkpt lat="45.86289296482485" lon="11.810502564912566"><ele>1404.0</ele><time>2026-04-06T12:01:05.04Z</time></trkpt><trkpt lat="45.862814138783946" lon="11.81049453771494"><ele>1404.0000000000002</ele><time>2026-04-06T12:01:11.04Z</time></trkpt><trkpt lat="45.86273652494478" lon="11.81048538844039"><ele>1404.0</ele><time>2026-04-06T12:01:21.039Z</time></trkpt><trkpt lat="45.86266690437368" lon="11.810501182924096"><ele>1404.0</ele><time>2026-04-06T12:01:25.04Z</time></trkpt><trkpt lat="45.862598356255056" lon="11.81046459038369"><ele>1404.0</ele><time>2026-04-06T12:01:31.04Z</time></trkpt><trkpt lat="45.862520602787754" lon="11.810478122092926"><ele>1404.0</ele><time>2026-04-06T12:01:37.04Z</time></trkpt><trkpt lat="45.86245024596029" lon="11.810496665480244"><ele>1404.0000000000002</ele><time>2026-04-06T12:01:43.041Z</time></trkpt><trkpt lat="45.86237771519451" lon="11.810512251322196"><ele>1404.0</ele><time>2026-04-06T12:01:52.041Z</time></trkpt><trkpt lat="45.86230848660437" lon="11.810528849979384"><ele>1398.6666666666667</ele><time>2026-04-06T12:01:57.041Z</time></trkpt><trkpt lat="45.86224244226114" lon="11.810541051247935"><ele>1393.3333333333333</ele><time>2026-04-06T12:02:04.041Z</time></trkpt><trkpt lat="45.862177860117846" lon="11.81055610262159"><ele>1388.0</ele><time>2026-04-06T12:02:09.041Z</time></trkpt><trkpt lat="45.86210135597223" lon="11.810590748908911"><ele>1382.6666666666665</ele><time>2026-04-06T12:02:17.041Z</time></trkpt><trkpt lat="45.86216963169174" lon="11.810608348583088"><ele>1377.3333333333333</ele><time>2026-04-06T12:02:33.042Z</time></trkpt><trkpt lat="45.862248003067975" lon="11.81065884809543"><ele>1372.0</ele><time>2026-04-06T12:02:38.042Z</time></trkpt><trkpt lat="45.86238560440797" lon="11.81070160869005"><ele>1372.0</ele><time>2026-04-06T12:03:05.042Z</time></trkpt><trkpt lat="45.86252499317078" lon="11.810698702663807"><ele>1372.0</ele><time>2026-04-06T12:03:44.042Z</time></trkpt><trkpt lat="45.86259002545854" lon="11.810728596844555"><ele>1372.0</ele><time>2026-04-06T12:03:52.042Z</time></trkpt><trkpt lat="45.862651578605345" lon="11.810763355770964"><ele>1372.0</ele><time>2026-04-06T12:04:01.042Z</time></trkpt><trkpt lat="45.86271567163974" lon="11.810816199302659"><ele>1372.0</ele><time>2026-04-06T12:04:11.042Z</time></trkpt><trkpt lat="45.86275167846854" lon="11.810895706175884"><ele>1372.0</ele><time>2026-04-06T12:04:22.043Z</time></trkpt><trkpt lat="45.86275508129451" lon="11.811059866741173"><ele>1377.2857142857142</ele><time>2026-04-06T12:04:41.043Z</time></trkpt><trkpt lat="45.86277912116113" lon="11.811147425301302"><ele>1382.5714285714284</ele><time>2026-04-06T12:04:47.043Z</time></trkpt><trkpt lat="45.86282834065843" lon="11.811221716253932"><ele>1387.857142857143</ele><time>2026-04-06T12:04:54.043Z</time></trkpt><trkpt lat="45.86287914717268" lon="11.811279651183195"><ele>1393.142857142857</ele><time>2026-04-06T12:04:59.043Z</time></trkpt><trkpt lat="45.86289128343128" lon="11.811369695437625"><ele>1398.4285714285713</ele><time>2026-04-06T12:05:05.043Z</time></trkpt><trkpt lat="45.862832723938354" lon="11.811434958198927"><ele>1403.7142857142858</ele><time>2026-04-06T12:05:14.044Z</time></trkpt><trkpt lat="45.86277158921589" lon="11.811494901431443"><ele>1409.0</ele><time>2026-04-06T12:05:22.044Z</time></trkpt><trkpt lat="45.862729904715515" lon="11.811564270546029"><ele>1409.0</ele><time>2026-04-06T12:05:29.044Z</time></trkpt><trkpt lat="45.86269827777786" lon="11.811642640945312"><ele>1409.0</ele><time>2026-04-06T12:05:36.043Z</time></trkpt><trkpt lat="45.86267095294031" lon="11.811730631839"><ele>1409.0</ele><time>2026-04-06T12:05:41.043Z</time></trkpt><trkpt lat="45.86265141453539" lon="11.8118203505154"><ele>1409.0</ele><time>2026-04-06T12:05:46.044Z</time></trkpt><trkpt lat="45.8626158894695" lon="11.811896784362157"><ele>1409.0</ele><time>2026-04-06T12:05:55.044Z</time></trkpt><trkpt lat="45.86258630882793" lon="11.81198887900839"><ele>1409.0</ele><time>2026-04-06T12:06:01.044Z</time></trkpt><trkpt lat="45.86257004521749" lon="11.812077626360564"><ele>1409.0</ele><time>2026-04-06T12:06:05.044Z</time></trkpt><trkpt lat="45.86254671685006" lon="11.812161737181219"><ele>1401.4285714285716</ele><time>2026-04-06T12:06:09.044Z</time></trkpt><trkpt lat="45.862524483321074" lon="11.812255841481864"><ele>1393.8571428571427</ele><time>2026-04-06T12:06:14.044Z</time></trkpt><trkpt lat="45.86249104035732" lon="11.812343324204976"><ele>1386.2857142857142</ele><time>2026-04-06T12:06:19.044Z</time></trkpt><trkpt lat="45.862462134412844" lon="11.81244071489927"><ele>1378.7142857142858</ele><time>2026-04-06T12:06:27.044Z</time></trkpt><trkpt lat="45.86242668776044" lon="11.81253140409787"><ele>1371.1428571428573</ele><time>2026-04-06T12:06:33.044Z</time></trkpt><trkpt lat="45.862391743480394" lon="11.812614258156543"><ele>1363.5714285714284</ele><time>2026-04-06T12:06:38.045Z</time></trkpt><trkpt lat="45.86235129184615" lon="11.812700838824322"><ele>1356.0</ele><time>2026-04-06T12:06:45.045Z</time></trkpt><trkpt lat="45.86232707232337" lon="11.812797379586142"><ele>1356.0</ele><time>2026-04-06T12:06:50.045Z</time></trkpt><trkpt lat="45.86229159835205" lon="11.812873543958556"><ele>1356.0</ele><time>2026-04-06T12:06:56.045Z</time></trkpt><trkpt lat="45.86228721948786" lon="11.812978591723935"><ele>1356.0</ele><time>2026-04-06T12:07:03.045Z</time></trkpt><trkpt lat="45.86232389168777" lon="11.813065896968144"><ele>1356.0</ele><time>2026-04-06T12:07:13.045Z</time></trkpt><trkpt lat="45.8623490155926" lon="11.813152647528975"><ele>1356.0</ele><time>2026-04-06T12:09:14.047Z</time></trkpt><trkpt lat="45.86235087910776" lon="11.81325662695163"><ele>1356.0</ele><time>2026-04-06T12:09:26.047Z</time></trkpt><trkpt lat="45.862390399969996" lon="11.81333111284292"><ele>1356.0</ele><time>2026-04-06T12:09:39.048Z</time></trkpt><trkpt lat="45.86237621483051" lon="11.813426248115283"><ele>1353.4285714285713</ele><time>2026-04-06T12:09:48.047Z</time></trkpt><trkpt lat="45.86237098645746" lon="11.81352332070079"><ele>1350.857142857143</ele><time>2026-04-06T12:09:56.047Z</time></trkpt><trkpt lat="45.86235179391268" lon="11.813620979801652"><ele>1348.2857142857142</ele><time>2026-04-06T12:10:06.047Z</time></trkpt><trkpt lat="45.862334453949735" lon="11.813722107743486"><ele>1345.7142857142858</ele><time>2026-04-06T12:10:12.047Z</time></trkpt><trkpt lat="45.86236837080944" lon="11.813809840321861"><ele>1343.142857142857</ele><time>2026-04-06T12:10:19.047Z</time></trkpt><trkpt lat="45.86243336865978" lon="11.813848577315278"><ele>1340.5714285714287</ele><time>2026-04-06T12:10:27.047Z</time></trkpt><trkpt lat="45.862482091726584" lon="11.813911930172289"><ele>1338.0</ele><time>2026-04-06T12:10:36.047Z</time></trkpt><trkpt lat="45.862507428239276" lon="11.814005941096314"><ele>1338.0</ele><time>2026-04-06T12:10:43.048Z</time></trkpt><trkpt lat="45.86252088827703" lon="11.814109502406845"><ele>1338.0</ele><time>2026-04-06T12:10:50.048Z</time></trkpt><trkpt lat="45.86252811753996" lon="11.814206809752926"><ele>1338.0</ele><time>2026-04-06T12:10:58.048Z</time></trkpt><trkpt lat="45.862534154971755" lon="11.814307513805451"><ele>1338.0</ele><time>2026-04-06T12:11:08.048Z</time></trkpt><trkpt lat="45.862576683812506" lon="11.814402554679296"><ele>1338.0</ele><time>2026-04-06T12:11:14.048Z</time></trkpt><trkpt lat="45.86258625691016" lon="11.814494158186655"><ele>1338.0</ele><time>2026-04-06T12:11:20.048Z</time></trkpt><trkpt lat="45.86247239874581" lon="11.814575843858202"><ele>1337.2</ele><time>2026-04-06T12:11:30.049Z</time></trkpt><trkpt lat="45.8624521447833" lon="11.814671634243977"><ele>1336.4</ele><time>2026-04-06T12:11:36.049Z</time></trkpt><trkpt lat="45.862425107537746" lon="11.814757567152677"><ele>1335.6000000000001</ele><time>2026-04-06T12:11:44.049Z</time></trkpt><trkpt lat="45.86242867830467" lon="11.814860600037848"><ele>1334.8000000000002</ele><time>2026-04-06T12:11:53.048Z</time></trkpt><trkpt lat="45.86238002478835" lon="11.814927985454831"><ele>1334.0</ele><time>2026-04-06T12:12:40.049Z</time></trkpt><trkpt lat="45.86255160937887" lon="11.814845581757012"><ele>1334.0</ele><time>2026-04-06T12:13:27.05Z</time></trkpt><trkpt lat="45.86247934016831" lon="11.81487890926762"><ele>1334.0</ele><time>2026-04-06T12:13:36.05Z</time></trkpt><trkpt lat="45.86240109006975" lon="11.814882873166864"><ele>1334.0</ele><time>2026-04-06T12:13:41.05Z</time></trkpt><trkpt lat="45.86249165113322" lon="11.814946221705085"><ele>1334.0</ele><time>2026-04-06T12:14:34.05Z</time></trkpt><trkpt lat="45.86243629962002" lon="11.814855521164786"><ele>1334.0</ele><time>2026-04-06T12:15:23.051Z</time></trkpt><trkpt lat="45.86249749842249" lon="11.814880349565726"><ele>1334.0</ele><time>2026-04-06T12:15:30.051Z</time></trkpt><trkpt lat="45.862491575331255" lon="11.814786093597805"><ele>1334.0</ele><time>2026-04-06T12:15:33.051Z</time></trkpt><trkpt lat="45.862437924745834" lon="11.814882717334434"><ele>1334.0</ele><time>2026-04-06T12:16:06.052Z</time></trkpt><trkpt lat="45.86238456507472" lon="11.8149374303507"><ele>1334.0</ele><time>2026-04-06T12:16:14.051Z</time></trkpt><trkpt lat="45.86234678621269" lon="11.815012655788344"><ele>1334.0</ele><time>2026-04-06T12:16:42.052Z</time></trkpt><trkpt lat="45.86233566164997" lon="11.815112420890324"><ele>1334.0</ele><time>2026-04-06T12:16:48.052Z</time></trkpt><trkpt lat="45.86228752751578" lon="11.815251513818634"><ele>1334.0</ele><time>2026-04-06T12:17:06.053Z</time></trkpt><trkpt lat="45.86226673237079" lon="11.815341456201812"><ele>1334.0000000000002</ele><time>2026-04-06T12:17:29.053Z</time></trkpt><trkpt lat="45.86223433227806" lon="11.815431508374733"><ele>1334.0</ele><time>2026-04-06T12:17:35.053Z</time></trkpt><trkpt lat="45.8621942674032" lon="11.815357110146113"><ele>1334.0</ele><time>2026-04-06T12:19:21.054Z</time></trkpt><trkpt lat="45.86226566033156" lon="11.815324085340592"><ele>1334.0</ele><time>2026-04-06T12:19:29.054Z</time></trkpt><trkpt lat="45.8622945952607" lon="11.81523436801632"><ele>1334.0</ele><time>2026-04-06T12:19:38.054Z</time></trkpt><trkpt lat="45.862287577079584" lon="11.815144404304545"><ele>1334.0000000000002</ele><time>2026-04-06T12:19:46.054Z</time></trkpt><trkpt lat="45.86226625068252" lon="11.815058355134681"><ele>1334.0</ele><time>2026-04-06T12:19:52.054Z</time></trkpt><trkpt lat="45.86230533415226" lon="11.814965786589712"><ele>1334.0000000000002</ele><time>2026-04-06T12:20:01.055Z</time></trkpt><trkpt lat="45.86232833716617" lon="11.81487446289307"><ele>1334.0</ele><time>2026-04-06T12:20:08.055Z</time></trkpt><trkpt lat="45.86239723564384" lon="11.814873182765531"><ele>1334.0</ele><time>2026-04-06T12:20:13.055Z</time></trkpt><trkpt lat="45.8624166858164" lon="11.814780561541482"><ele>1334.0</ele><time>2026-04-06T12:20:18.054Z</time></trkpt><trkpt lat="45.86243478618925" lon="11.814691880048054"><ele>1334.0</ele><time>2026-04-06T12:20:24.054Z</time></trkpt><trkpt lat="45.8624558368794" lon="11.81459022331782"><ele>1334.0000000000002</ele><time>2026-04-06T12:20:29.055Z</time></trkpt><trkpt lat="45.862471010132865" lon="11.814501479294206"><ele>1334.0</ele><time>2026-04-06T12:20:35.055Z</time></trkpt><trkpt lat="45.862463928974556" lon="11.814406938706691"><ele>1334.5714285714287</ele><time>2026-04-06T12:20:41.055Z</time></trkpt><trkpt lat="45.86244163517106" lon="11.814319706601104"><ele>1335.142857142857</ele><time>2026-04-06T12:20:46.055Z</time></trkpt><trkpt lat="45.86236475197142" lon="11.814279425383326"><ele>1335.7142857142858</ele><time>2026-04-06T12:20:50.055Z</time></trkpt><trkpt lat="45.86230533661172" lon="11.81424916659647"><ele>1336.2857142857142</ele><time>2026-04-06T12:20:52.055Z</time></trkpt><trkpt lat="45.86224626714889" lon="11.814210836956049"><ele>1336.857142857143</ele><time>2026-04-06T12:20:55.055Z</time></trkpt><trkpt lat="45.86220449076532" lon="11.81414178889842"><ele>1337.4285714285716</ele><time>2026-04-06T12:20:59.055Z</time></trkpt><trkpt lat="45.86213307724378" lon="11.81411062476276"><ele>1338.0</ele><time>2026-04-06T12:21:03.055Z</time></trkpt><trkpt lat="45.86207149542058" lon="11.814069424613983"><ele>1338.0</ele><time>2026-04-06T12:21:08.055Z</time></trkpt><trkpt lat="45.861992188079604" lon="11.814051173636688"><ele>1338.0</ele><time>2026-04-06T12:21:13.055Z</time></trkpt><trkpt lat="45.861930068482216" lon="11.81398310207471"><ele>1338.0</ele><time>2026-04-06T12:21:20.056Z</time></trkpt><trkpt lat="45.861926758818015" lon="11.813877955196975"><ele>1338.0</ele><time>2026-04-06T12:21:27.056Z</time></trkpt><trkpt lat="45.861926818065676" lon="11.813773971250937"><ele>1338.0</ele><time>2026-04-06T12:21:34.056Z</time></trkpt><trkpt lat="45.86193071323578" lon="11.813673183222415"><ele>1338.0</ele><time>2026-04-06T12:21:40.056Z</time></trkpt><trkpt lat="45.86190250492754" lon="11.813585611507287"><ele>1338.0</ele><time>2026-04-06T12:21:45.056Z</time></trkpt><trkpt lat="45.86186147645226" lon="11.813514352963495"><ele>1340.5714285714287</ele><time>2026-04-06T12:21:49.056Z</time></trkpt><trkpt lat="45.86181373228717" lon="11.813441825551145"><ele>1343.142857142857</ele><time>2026-04-06T12:21:55.056Z</time></trkpt><trkpt lat="45.86175223769021" lon="11.813366050815578"><ele>1345.7142857142858</ele><time>2026-04-06T12:22:02.056Z</time></trkpt><trkpt lat="45.86171788262912" lon="11.813288882543441"><ele>1348.2857142857142</ele><time>2026-04-06T12:22:07.057Z</time></trkpt><trkpt lat="45.86166788745817" lon="11.813220644570553"><ele>1350.857142857143</ele><time>2026-04-06T12:22:13.057Z</time></trkpt><trkpt lat="45.861620072887746" lon="11.813153102805101"><ele>1353.4285714285713</ele><time>2026-04-06T12:22:20.057Z</time></trkpt><trkpt lat="45.86156516962403" lon="11.813094287939808"><ele>1356.0</ele><time>2026-04-06T12:22:26.056Z</time></trkpt><trkpt lat="45.861505074929845" lon="11.81301215040053"><ele>1348.0</ele><time>2026-04-06T12:22:34.056Z</time></trkpt><trkpt lat="45.86147599186452" lon="11.812930658373846"><ele>1340.0</ele><time>2026-04-06T12:22:40.056Z</time></trkpt><trkpt lat="45.86150735153879" lon="11.81284129530899"><ele>1332.0</ele><time>2026-04-06T12:22:45.056Z</time></trkpt><trkpt lat="45.86152705856166" lon="11.812751792760926"><ele>1324.0</ele><time>2026-04-06T12:22:52.057Z</time></trkpt><trkpt lat="45.86158002763469" lon="11.812687484360639"><ele>1316.0</ele><time>2026-04-06T12:22:58.057Z</time></trkpt><trkpt lat="45.861659022082954" lon="11.812658843534903"><ele>1308.0</ele><time>2026-04-06T12:23:03.057Z</time></trkpt><trkpt lat="45.861581187411296" lon="11.812688560470356"><ele>1300.0</ele><time>2026-04-06T12:23:13.057Z</time></trkpt><trkpt lat="45.86152186511137" lon="11.812736097737277"><ele>1300.0</ele><time>2026-04-06T12:23:23.057Z</time></trkpt><trkpt lat="45.861457754075694" lon="11.812812520394854"><ele>1300.0</ele><time>2026-04-06T12:23:28.057Z</time></trkpt><trkpt lat="45.86146227692204" lon="11.812937833566842"><ele>1300.0</ele><time>2026-04-06T12:23:45.058Z</time></trkpt><trkpt lat="45.86144395205547" lon="11.813032352516686"><ele>1300.0</ele><time>2026-04-06T12:23:52.058Z</time></trkpt><trkpt lat="45.861406456495374" lon="11.813132443820951"><ele>1300.0</ele><time>2026-04-06T12:23:57.058Z</time></trkpt><trkpt lat="45.861441731347206" lon="11.813214167366345"><ele>1300.0</ele><time>2026-04-06T12:24:04.058Z</time></trkpt><trkpt lat="45.86147640907756" lon="11.813292651297067"><ele>1300.0</ele><time>2026-04-06T12:24:11.058Z</time></trkpt><trkpt lat="45.8614949950085" lon="11.813388986779682"><ele>1300.0</ele><time>2026-04-06T12:24:18.058Z</time></trkpt><trkpt lat="45.861535033484444" lon="11.813484816310668"><ele>1300.0</ele><time>2026-04-06T12:24:25.058Z</time></trkpt><trkpt lat="45.86157288279234" lon="11.813567070119268"><ele>1300.0</ele><time>2026-04-06T12:24:30.057Z</time></trkpt><trkpt lat="45.8615837231867" lon="11.813659528204237"><ele>1300.0</ele><time>2026-04-06T12:24:36.058Z</time></trkpt><trkpt lat="45.86156608993888" lon="11.813762167345589"><ele>1300.0</ele><time>2026-04-06T12:24:43.057Z</time></trkpt><trkpt lat="45.861484121300016" lon="11.813644000312845"><ele>1300.0</ele><time>2026-04-06T12:25:10.058Z</time></trkpt><trkpt lat="45.861423754930826" lon="11.813610447648582"><ele>1300.0</ele><time>2026-04-06T12:25:15.058Z</time></trkpt><trkpt lat="45.86135882665524" lon="11.813563794994968"><ele>1300.0</ele><time>2026-04-06T12:25:23.058Z</time></trkpt><trkpt lat="45.86130392598019" lon="11.813501235159938"><ele>1300.0</ele><time>2026-04-06T12:25:31.058Z</time></trkpt><trkpt lat="45.86124446051666" lon="11.813434223678144"><ele>1300.0</ele><time>2026-04-06T12:25:39.059Z</time></trkpt><trkpt lat="45.86119381338939" lon="11.813371186087265"><ele>1300.0</ele><time>2026-04-06T12:25:44.059Z</time></trkpt><trkpt lat="45.86116240469749" lon="11.813271408555915"><ele>1300.0</ele><time>2026-04-06T12:25:50.059Z</time></trkpt><trkpt lat="45.86113564895144" lon="11.81318078833977"><ele>1300.0</ele><time>2026-04-06T12:25:56.059Z</time></trkpt><trkpt lat="45.8610666409516" lon="11.813101648843976"><ele>1300.0</ele><time>2026-04-06T12:26:02.059Z</time></trkpt><trkpt lat="45.86103490626598" lon="11.813006808164785"><ele>1300.0</ele><time>2026-04-06T12:26:10.059Z</time></trkpt><trkpt lat="45.86097576022229" lon="11.812971280286972"><ele>1300.0</ele><time>2026-04-06T12:26:15.059Z</time></trkpt><trkpt lat="45.86091554487205" lon="11.812937816925105"><ele>1300.0</ele><time>2026-04-06T12:26:20.059Z</time></trkpt><trkpt lat="45.86085752211917" lon="11.812884001781512"><ele>1300.0</ele><time>2026-04-06T12:26:27.059Z</time></trkpt><trkpt lat="45.86081721209113" lon="11.812805245870708"><ele>1300.0</ele><time>2026-04-06T12:26:34.06Z</time></trkpt><trkpt lat="45.860845133869475" lon="11.812890407993981"><ele>1300.0</ele><time>2026-04-06T12:26:46.059Z</time></trkpt><trkpt lat="45.86091951885512" lon="11.812931049191356"><ele>1300.0</ele><time>2026-04-06T12:26:52.06Z</time></trkpt><trkpt lat="45.860967568450995" lon="11.813009368446773"><ele>1300.0</ele><time>2026-04-06T12:26:59.06Z</time></trkpt><trkpt lat="45.86097230153196" lon="11.813105257515948"><ele>1300.0</ele><time>2026-04-06T12:27:05.06Z</time></trkpt><trkpt lat="45.860982421972835" lon="11.813218895729088"><ele>1300.0</ele><time>2026-04-06T12:27:12.06Z</time></trkpt><trkpt lat="45.860997348244474" lon="11.813308105037558"><ele>1300.0</ele><time>2026-04-06T12:27:18.06Z</time></trkpt><trkpt lat="45.86100909193902" lon="11.813402220150202"><ele>1300.0</ele><time>2026-04-06T12:27:23.06Z</time></trkpt><trkpt lat="45.86103494104141" lon="11.813498962125143"><ele>1297.7142857142856</ele><time>2026-04-06T12:27:29.06Z</time></trkpt><trkpt lat="45.861060995991885" lon="11.813601267098734"><ele>1295.4285714285716</ele><time>2026-04-06T12:27:35.061Z</time></trkpt><trkpt lat="45.86109081097556" lon="11.81368335102514"><ele>1293.142857142857</ele><time>2026-04-06T12:27:41.061Z</time></trkpt><trkpt lat="45.86112985045296" lon="11.813764669931166"><ele>1290.8571428571427</ele><time>2026-04-06T12:27:46.061Z</time></trkpt><trkpt lat="45.8611180516827" lon="11.813915095834869"><ele>1288.5714285714284</ele><time>2026-04-06T12:28:06.061Z</time></trkpt><trkpt lat="45.8611404759444" lon="11.814004019159192"><ele>1286.2857142857142</ele><time>2026-04-06T12:28:15.061Z</time></trkpt><trkpt lat="45.86110578779312" lon="11.813928339641487"><ele>1284.0</ele><time>2026-04-06T12:28:28.062Z</time></trkpt><trkpt lat="45.86107259782418" lon="11.813846735908964"><ele>1283.9999999999998</ele><time>2026-04-06T12:28:35.062Z</time></trkpt><trkpt lat="45.86102285690501" lon="11.813784385600572"><ele>1284.0</ele><time>2026-04-06T12:28:43.061Z</time></trkpt><trkpt lat="45.86097071570656" lon="11.81370356045813"><ele>1284.0</ele><time>2026-04-06T12:28:50.061Z</time></trkpt><trkpt lat="45.86093541022321" lon="11.813592838826803"><ele>1284.0</ele><time>2026-04-06T12:28:58.061Z</time></trkpt><trkpt lat="45.860896789545954" lon="11.813504865170257"><ele>1284.0</ele><time>2026-04-06T12:29:05.062Z</time></trkpt><trkpt lat="45.860867001257176" lon="11.813424190405009"><ele>1283.9999999999998</ele><time>2026-04-06T12:29:11.062Z</time></trkpt><trkpt lat="45.860822918857885" lon="11.81334666968193"><ele>1284.0</ele><time>2026-04-06T12:29:17.062Z</time></trkpt><trkpt lat="45.86075907848108" lon="11.813278990275684"><ele>1278.4285714285713</ele><time>2026-04-06T12:29:22.062Z</time></trkpt><trkpt lat="45.86070774159415" lon="11.813211403004486"><ele>1272.857142857143</ele><time>2026-04-06T12:29:27.062Z</time></trkpt><trkpt lat="45.86065707883508" lon="11.813148103518854"><ele>1267.2857142857142</ele><time>2026-04-06T12:29:32.062Z</time></trkpt><trkpt lat="45.860626603472895" lon="11.813066281537958"><ele>1261.7142857142858</ele><time>2026-04-06T12:29:36.062Z</time></trkpt><trkpt lat="45.860583638049356" lon="11.812993003815908"><ele>1256.142857142857</ele><time>2026-04-06T12:29:42.062Z</time></trkpt><trkpt lat="45.86052541670522" lon="11.812931512528815"><ele>1250.5714285714284</ele><time>2026-04-06T12:29:48.062Z</time></trkpt><trkpt lat="45.86046859833569" lon="11.812858996907195"><ele>1245.0</ele><time>2026-04-06T12:29:55.063Z</time></trkpt><trkpt lat="45.860403325560156" lon="11.81284906582922"><ele>1245.0</ele><time>2026-04-06T12:30:00.063Z</time></trkpt><trkpt lat="45.86033418791006" lon="11.812836475694523"><ele>1245.0</ele><time>2026-04-06T12:30:04.063Z</time></trkpt><trkpt lat="45.86026690684643" lon="11.812822312031798"><ele>1245.0</ele><time>2026-04-06T12:30:09.063Z</time></trkpt><trkpt lat="45.860203286466756" lon="11.81279778873777"><ele>1245.0</ele><time>2026-04-06T12:30:14.063Z</time></trkpt><trkpt lat="45.860267635560405" lon="11.812743281243343"><ele>1245.0</ele><time>2026-04-06T12:30:31.063Z</time></trkpt><trkpt lat="45.86031664111757" lon="11.81266583462636"><ele>1245.0</ele><time>2026-04-06T12:30:37.063Z</time></trkpt><trkpt lat="45.86035935025644" lon="11.812581459222654"><ele>1245.0</ele><time>2026-04-06T12:30:40.063Z</time></trkpt><trkpt lat="45.86039422644612" lon="11.81250062479216"><ele>1246.2857142857142</ele><time>2026-04-06T12:30:44.064Z</time></trkpt><trkpt lat="45.86046714041445" lon="11.812428157213278"><ele>1247.5714285714287</ele><time>2026-04-06T12:30:49.062Z</time></trkpt><trkpt lat="45.86051839018605" lon="11.812375248481962"><ele>1248.857142857143</ele><time>2026-04-06T12:30:53.062Z</time></trkpt><trkpt lat="45.860563299084674" lon="11.812291187840456"><ele>1250.142857142857</ele><time>2026-04-06T12:30:59.063Z</time></trkpt><trkpt lat="45.860610351094515" lon="11.812213021475573"><ele>1251.4285714285713</ele><time>2026-04-06T12:31:06.063Z</time></trkpt><trkpt lat="45.860656898244" lon="11.812140167295274"><ele>1252.7142857142858</ele><time>2026-04-06T12:31:10.063Z</time></trkpt><trkpt lat="45.86072812581853" lon="11.81211538231281"><ele>1254.0</ele><time>2026-04-06T12:31:18.063Z</time></trkpt><trkpt lat="45.86068580698308" lon="11.812025950532782"><ele>1254.0</ele><time>2026-04-06T12:31:26.063Z</time></trkpt><trkpt lat="45.860626112582494" lon="11.811982070558553"><ele>1254.0</ele><time>2026-04-06T12:31:31.063Z</time></trkpt><trkpt lat="45.860564951512984" lon="11.811955500761623"><ele>1254.0</ele><time>2026-04-06T12:31:37.063Z</time></trkpt><trkpt lat="45.86049906737048" lon="11.81189128633517"><ele>1254.0</ele><time>2026-04-06T12:31:43.063Z</time></trkpt><trkpt lat="45.860423766730634" lon="11.811866930034427"><ele>1254.0</ele><time>2026-04-06T12:31:48.063Z</time></trkpt><trkpt lat="45.8603742128481" lon="11.811810256706961"><ele>1254.0</ele><time>2026-04-06T12:31:56.064Z</time></trkpt><trkpt lat="45.860383483665395" lon="11.811717121383381"><ele>1254.0</ele><time>2026-04-06T12:32:02.064Z</time></trkpt><trkpt lat="45.86032945162599" lon="11.811641098872322"><ele>1255.4285714285716</ele><time>2026-04-06T12:32:08.064Z</time></trkpt><trkpt lat="45.8602576365714" lon="11.811613933578318"><ele>1256.857142857143</ele><time>2026-04-06T12:32:15.064Z</time></trkpt><trkpt lat="45.860191826259296" lon="11.811590266482172"><ele>1258.2857142857142</ele><time>2026-04-06T12:32:22.064Z</time></trkpt><trkpt lat="45.860127416430714" lon="11.81155570701474"><ele>1259.7142857142858</ele><time>2026-04-06T12:32:27.064Z</time></trkpt><trkpt lat="45.86006468335912" lon="11.811529973596505"><ele>1261.142857142857</ele><time>2026-04-06T12:32:36.064Z</time></trkpt><trkpt lat="45.86001097398222" lon="11.811460012518564"><ele>1262.5714285714287</ele><time>2026-04-06T12:32:43.065Z</time></trkpt><trkpt lat="45.8599481629521" lon="11.81142450208322"><ele>1264.0</ele><time>2026-04-06T12:32:47.065Z</time></trkpt><trkpt lat="45.85991932082826" lon="11.811323166275992"><ele>1259.857142857143</ele><time>2026-04-06T12:32:55.064Z</time></trkpt><trkpt lat="45.85988214277481" lon="11.81122069673357"><ele>1255.7142857142858</ele><time>2026-04-06T12:33:00.064Z</time></trkpt><trkpt lat="45.85986332434204" lon="11.81112709083858"><ele>1251.5714285714284</ele><time>2026-04-06T12:33:06.065Z</time></trkpt><trkpt lat="45.85984599299184" lon="11.811033253989995"><ele>1247.4285714285716</ele><time>2026-04-06T12:33:12.065Z</time></trkpt><trkpt lat="45.85981060816062" lon="11.810934970641874"><ele>1243.2857142857142</ele><time>2026-04-06T12:33:21.065Z</time></trkpt><trkpt lat="45.85975000474347" lon="11.810906314022462"><ele>1239.142857142857</ele><time>2026-04-06T12:33:25.065Z</time></trkpt><trkpt lat="45.85968433527353" lon="11.810875639896228"><ele>1235.0</ele><time>2026-04-06T12:33:29.065Z</time></trkpt><trkpt lat="45.85961890126597" lon="11.810866306114244"><ele>1234.9999999999998</ele><time>2026-04-06T12:33:36.065Z</time></trkpt><trkpt lat="45.85955079267981" lon="11.810852787986226"><ele>1235.0</ele><time>2026-04-06T12:33:41.065Z</time></trkpt><trkpt lat="45.85948946800396" lon="11.810800685811587"><ele>1235.0</ele><time>2026-04-06T12:33:47.065Z</time></trkpt><trkpt lat="45.85942731910586" lon="11.810765691458021"><ele>1235.0</ele><time>2026-04-06T12:33:52.066Z</time></trkpt><trkpt lat="45.859362336430344" lon="11.810721382792844"><ele>1235.0</ele><time>2026-04-06T12:34:00.066Z</time></trkpt><trkpt lat="45.85929575761539" lon="11.810734280900082"><ele>1234.9999999999998</ele><time>2026-04-06T12:34:04.066Z</time></trkpt><trkpt lat="45.859243967070455" lon="11.810649558743032"><ele>1235.0</ele><time>2026-04-06T12:34:12.066Z</time></trkpt><trkpt lat="45.859199211220705" lon="11.810583067681696"><ele>1227.2857142857142</ele><time>2026-04-06T12:34:17.066Z</time></trkpt><trkpt lat="45.85913946543219" lon="11.810546080755637"><ele>1219.5714285714284</ele><time>2026-04-06T12:34:23.066Z</time></trkpt><trkpt lat="45.85907574893271" lon="11.810529158319811"><ele>1211.857142857143</ele><time>2026-04-06T12:34:29.066Z</time></trkpt><trkpt lat="45.859005191670924" lon="11.810506028444857"><ele>1204.142857142857</ele><time>2026-04-06T12:34:34.066Z</time></trkpt><trkpt lat="45.858963442861864" lon="11.810428943975188"><ele>1196.4285714285716</ele><time>2026-04-06T12:34:42.067Z</time></trkpt><trkpt lat="45.85892442635628" lon="11.81033952592155"><ele>1188.7142857142858</ele><time>2026-04-06T12:34:49.067Z</time></trkpt><trkpt lat="45.858887251913075" lon="11.810416727174218"><ele>1181.0</ele><time>2026-04-06T12:35:07.066Z</time></trkpt><trkpt lat="45.8588788062747" lon="11.81051376597028"><ele>1181.0</ele><time>2026-04-06T12:35:14.066Z</time></trkpt><trkpt lat="45.85893652232365" lon="11.81055061542304"><ele>1181.0</ele><time>2026-04-06T12:35:20.066Z</time></trkpt><trkpt lat="45.85900577344772" lon="11.81052889141402"><ele>1181.0</ele><time>2026-04-06T12:35:24.066Z</time></trkpt><trkpt lat="45.85907069486403" lon="11.810558242180976"><ele>1181.0</ele><time>2026-04-06T12:35:31.066Z</time></trkpt><trkpt lat="45.859110444763125" lon="11.810651218748827"><ele>1181.0</ele><time>2026-04-06T12:35:36.067Z</time></trkpt><trkpt lat="45.85915254884193" lon="11.810730548907232"><ele>1181.0</ele><time>2026-04-06T12:35:41.067Z</time></trkpt><trkpt lat="45.85918845836421" lon="11.81082027453024"><ele>1181.0</ele><time>2026-04-06T12:35:47.067Z</time></trkpt><trkpt lat="45.859241280802166" lon="11.810871768094465"><ele>1184.7142857142858</ele><time>2026-04-06T12:35:53.067Z</time></trkpt><trkpt lat="45.85930822330618" lon="11.810917988857105"><ele>1188.4285714285716</ele><time>2026-04-06T12:35:59.067Z</time></trkpt><trkpt lat="45.85935527094616" lon="11.81098818382329"><ele>1192.142857142857</ele><time>2026-04-06T12:36:04.067Z</time></trkpt><trkpt lat="45.85940311452474" lon="11.81106243958384"><ele>1195.857142857143</ele><time>2026-04-06T12:36:09.067Z</time></trkpt><trkpt lat="45.85944315790142" lon="11.811135036648587"><ele>1199.5714285714284</ele><time>2026-04-06T12:36:14.067Z</time></trkpt><trkpt lat="45.859478749526374" lon="11.811238810050082"><ele>1203.2857142857142</ele><time>2026-04-06T12:36:21.067Z</time></trkpt><trkpt lat="45.859495465139624" lon="11.81133448664295"><ele>1207.0</ele><time>2026-04-06T12:36:28.068Z</time></trkpt><trkpt lat="45.85950832298597" lon="11.811424896278302"><ele>1207.0</ele><time>2026-04-06T12:36:34.068Z</time></trkpt><trkpt lat="45.859536810170994" lon="11.811515578020325"><ele>1207.0</ele><time>2026-04-06T12:36:41.068Z</time></trkpt><trkpt lat="45.85957194996085" lon="11.811605560742525"><ele>1207.0</ele><time>2026-04-06T12:36:47.068Z</time></trkpt><trkpt lat="45.85960377651792" lon="11.811707740619362"><ele>1207.0</ele><time>2026-04-06T12:36:53.068Z</time></trkpt><trkpt lat="45.85966009171092" lon="11.811840819259974"><ele>1207.0</ele><time>2026-04-06T12:37:02.068Z</time></trkpt><trkpt lat="45.85972371912829" lon="11.811864091368946"><ele>1207.0</ele><time>2026-04-06T12:37:10.068Z</time></trkpt><trkpt lat="45.8597435144356" lon="11.811964707455749"><ele>1206.7142857142856</ele><time>2026-04-06T12:37:15.068Z</time></trkpt><trkpt lat="45.85970256684717" lon="11.812040488567026"><ele>1206.4285714285713</ele><time>2026-04-06T12:37:21.068Z</time></trkpt><trkpt lat="45.859639414931955" lon="11.812105308870626"><ele>1206.142857142857</ele><time>2026-04-06T12:37:28.069Z</time></trkpt><trkpt lat="45.859576959342064" lon="11.812132765012002"><ele>1205.8571428571427</ele><time>2026-04-06T12:37:35.069Z</time></trkpt><trkpt lat="45.859516298149536" lon="11.812202229930376"><ele>1205.5714285714284</ele><time>2026-04-06T12:37:43.069Z</time></trkpt><trkpt lat="45.85945702789767" lon="11.812243950136567"><ele>1205.2857142857142</ele><time>2026-04-06T12:37:50.069Z</time></trkpt><trkpt lat="45.85939336738682" lon="11.812289653130442"><ele>1205.0</ele><time>2026-04-06T12:37:56.069Z</time></trkpt><trkpt lat="45.8593316741376" lon="11.812348067151675"><ele>1205.0</ele><time>2026-04-06T12:38:00.069Z</time></trkpt><trkpt lat="45.85932538219288" lon="11.812470949906306"><ele>1205.0</ele><time>2026-04-06T12:38:06.069Z</time></trkpt><trkpt lat="45.85931989325207" lon="11.812572168958738"><ele>1205.0</ele><time>2026-04-06T12:38:14.069Z</time></trkpt><trkpt lat="45.85931593353213" lon="11.812665711013148"><ele>1205.0</ele><time>2026-04-06T12:38:20.07Z</time></trkpt><trkpt lat="45.859298691976605" lon="11.81277269473682"><ele>1205.0</ele><time>2026-04-06T12:38:27.07Z</time></trkpt><trkpt lat="45.859310105260676" lon="11.812870433517958"><ele>1205.0</ele><time>2026-04-06T12:38:33.07Z</time></trkpt><trkpt lat="45.85934728170014" lon="11.812949354971947"><ele>1205.0</ele><time>2026-04-06T12:38:40.07Z</time></trkpt><trkpt lat="45.859395844920854" lon="11.81303272101079"><ele>1203.142857142857</ele><time>2026-04-06T12:38:45.07Z</time></trkpt><trkpt lat="45.85941506007411" lon="11.813129577715577"><ele>1201.2857142857142</ele><time>2026-04-06T12:38:50.07Z</time></trkpt><trkpt lat="45.85944584076463" lon="11.813226520747548"><ele>1199.4285714285713</ele><time>2026-04-06T12:38:56.07Z</time></trkpt><trkpt lat="45.85946398403986" lon="11.813321173999656"><ele>1197.5714285714284</ele><time>2026-04-06T12:39:02.07Z</time></trkpt><trkpt lat="45.859489046092136" lon="11.81341203301438"><ele>1195.7142857142856</ele><time>2026-04-06T12:39:07.07Z</time></trkpt><trkpt lat="45.859534193592815" lon="11.813505974887967"><ele>1193.857142857143</ele><time>2026-04-06T12:39:15.07Z</time></trkpt><trkpt lat="45.8595483963183" lon="11.81359699756244"><ele>1192.0</ele><time>2026-04-06T12:39:21.07Z</time></trkpt><trkpt lat="45.85961017750185" lon="11.813660487199929"><ele>1187.2857142857142</ele><time>2026-04-06T12:39:26.07Z</time></trkpt><trkpt lat="45.859631608027065" lon="11.813758723364709"><ele>1182.5714285714284</ele><time>2026-04-06T12:39:31.07Z</time></trkpt><trkpt lat="45.85966842029126" lon="11.81383600282386"><ele>1177.857142857143</ele><time>2026-04-06T12:39:37.07Z</time></trkpt><trkpt lat="45.859712910950904" lon="11.813906760479298"><ele>1173.142857142857</ele><time>2026-04-06T12:39:43.07Z</time></trkpt><trkpt lat="45.85975747455017" lon="11.813989793009714"><ele>1168.4285714285716</ele><time>2026-04-06T12:39:50.07Z</time></trkpt><trkpt lat="45.85981417663186" lon="11.814033321081528"><ele>1163.7142857142858</ele><time>2026-04-06T12:39:54.07Z</time></trkpt><trkpt lat="45.85986316942981" lon="11.814126240372696"><ele>1159.0</ele><time>2026-04-06T12:39:59.071Z</time></trkpt><trkpt lat="45.859889133088075" lon="11.814217709457246"><ele>1159.0000000000002</ele><time>2026-04-06T12:40:04.058Z</time></trkpt><trkpt lat="45.859911633085915" lon="11.814308297351342"><ele>1159.0</ele><time>2026-04-06T12:40:09.048Z</time></trkpt><trkpt lat="45.859916086729406" lon="11.81440627199319"><ele>1159.0</ele><time>2026-04-06T12:40:13.043Z</time></trkpt><trkpt lat="45.85995533543152" lon="11.814499650363079"><ele>1159.0</ele><time>2026-04-06T12:40:19.036Z</time></trkpt><trkpt lat="45.859986711987894" lon="11.814590001110613"><ele>1159.0</ele><time>2026-04-06T12:40:24.033Z</time></trkpt><trkpt lat="45.860017742227555" lon="11.814676032548963"><ele>1159.0000000000002</ele><time>2026-04-06T12:40:30.029Z</time></trkpt><trkpt lat="45.86006803327212" lon="11.814743500192625"><ele>1159.0</ele><time>2026-04-06T12:40:36.027Z</time></trkpt><trkpt lat="45.860092577794205" lon="11.8148301854627"><ele>1156.2857142857144</ele><time>2026-04-06T12:40:42.026Z</time></trkpt><trkpt lat="45.860113099247094" lon="11.814927850561194"><ele>1153.5714285714287</ele><time>2026-04-06T12:40:48.025Z</time></trkpt><trkpt lat="45.86011840194604" lon="11.815018603664845"><ele>1150.857142857143</ele><time>2026-04-06T12:40:53.025Z</time></trkpt><trkpt lat="45.860094257947" lon="11.815132219811964"><ele>1148.1428571428573</ele><time>2026-04-06T12:40:58.024Z</time></trkpt><trkpt lat="45.860102403249094" lon="11.81522720834075"><ele>1145.4285714285716</ele><time>2026-04-06T12:41:03.024Z</time></trkpt><trkpt lat="45.8600808236222" lon="11.815326411813851"><ele>1142.7142857142858</ele><time>2026-04-06T12:41:12.024Z</time></trkpt><trkpt lat="45.86004163487803" lon="11.815402326593329"><ele>1140.0</ele><time>2026-04-06T12:41:19.023Z</time></trkpt><trkpt lat="45.859997354016734" lon="11.815474140456683"><ele>1140.0</ele><time>2026-04-06T12:41:24.022Z</time></trkpt><trkpt lat="45.859952384046174" lon="11.815570462826106"><ele>1140.0</ele><time>2026-04-06T12:41:30.023Z</time></trkpt><trkpt lat="45.859901981837275" lon="11.81565153492297"><ele>1140.0</ele><time>2026-04-06T12:41:34.023Z</time></trkpt><trkpt lat="45.859859428943516" lon="11.81572006101257"><ele>1140.0</ele><time>2026-04-06T12:41:39.023Z</time></trkpt><trkpt lat="45.85980729443824" lon="11.81581197592082"><ele>1140.0</ele><time>2026-04-06T12:41:46.023Z</time></trkpt><trkpt lat="45.85978318417129" lon="11.81589925589809"><ele>1140.0</ele><time>2026-04-06T12:41:51.023Z</time></trkpt><trkpt lat="45.859779591938754" lon="11.81600984464683"><ele>1140.0</ele><time>2026-04-06T12:41:58.023Z</time></trkpt><trkpt lat="45.85978148110071" lon="11.816102143680379"><ele>1141.4285714285713</ele><time>2026-04-06T12:42:04.023Z</time></trkpt><trkpt lat="45.85978298621596" lon="11.816200324511172"><ele>1142.857142857143</ele><time>2026-04-06T12:42:09.023Z</time></trkpt><trkpt lat="45.859772127538314" lon="11.816318717823696"><ele>1144.2857142857142</ele><time>2026-04-06T12:42:15.023Z</time></trkpt><trkpt lat="45.859744098034575" lon="11.816405986646812"><ele>1145.7142857142858</ele><time>2026-04-06T12:42:23.023Z</time></trkpt><trkpt lat="45.85972462438066" lon="11.816492437578399"><ele>1147.142857142857</ele><time>2026-04-06T12:42:26.023Z</time></trkpt><trkpt lat="45.85971321600201" lon="11.816583436936236"><ele>1148.5714285714284</ele><time>2026-04-06T12:42:32.023Z</time></trkpt><trkpt lat="45.85969311619235" lon="11.81667316684877"><ele>1150.0</ele><time>2026-04-06T12:42:39.023Z</time></trkpt><trkpt lat="45.85966079532976" lon="11.816752748630863"><ele>1147.4285714285713</ele><time>2026-04-06T12:42:44.023Z</time></trkpt><trkpt lat="45.8596187315172" lon="11.81683302733253"><ele>1144.8571428571427</ele><time>2026-04-06T12:42:50.023Z</time></trkpt><trkpt lat="45.859573108962365" lon="11.816903330798848"><ele>1142.2857142857142</ele><time>2026-04-06T12:42:54.023Z</time></trkpt><trkpt lat="45.85952649075172" lon="11.816965883381016"><ele>1139.7142857142858</ele><time>2026-04-06T12:42:59.023Z</time></trkpt><trkpt lat="45.85947343636596" lon="11.817026008153597"><ele>1137.1428571428573</ele><time>2026-04-06T12:43:05.023Z</time></trkpt><trkpt lat="45.85939647635353" lon="11.817050171483586"><ele>1134.5714285714287</ele><time>2026-04-06T12:43:13.023Z</time></trkpt><trkpt lat="45.85933030138218" lon="11.81707091898107"><ele>1132.0</ele><time>2026-04-06T12:43:18.024Z</time></trkpt><trkpt lat="45.85926632771172" lon="11.817103921772615"><ele>1132.0</ele><time>2026-04-06T12:43:25.022Z</time></trkpt><trkpt lat="45.85924566544183" lon="11.817194475417397"><ele>1132.0</ele><time>2026-04-06T12:43:29.022Z</time></trkpt><trkpt lat="45.85920384974995" lon="11.817271351887586"><ele>1132.0</ele><time>2026-04-06T12:43:35.023Z</time></trkpt><trkpt lat="45.85912843152904" lon="11.817285291294667"><ele>1132.0</ele><time>2026-04-06T12:43:46.023Z</time></trkpt><trkpt lat="45.85905985032042" lon="11.81729753118782"><ele>1132.0</ele><time>2026-04-06T12:44:03.024Z</time></trkpt><trkpt lat="45.858994533474934" lon="11.817326618661887"><ele>1132.0</ele><time>2026-04-06T12:44:10.024Z</time></trkpt><trkpt lat="45.85892299978002" lon="11.817347194747631"><ele>1132.0</ele><time>2026-04-06T12:44:40.024Z</time></trkpt><trkpt lat="45.85885901095292" lon="11.817329234665737"><ele>1132.0</ele><time>2026-04-06T12:44:44.024Z</time></trkpt><trkpt lat="45.85878582433266" lon="11.817336266239755"><ele>1132.0</ele><time>2026-04-06T12:44:50.024Z</time></trkpt><trkpt lat="45.85871815828108" lon="11.817374632954818"><ele>1132.0</ele><time>2026-04-06T12:45:00.024Z</time></trkpt><trkpt lat="45.85864139728489" lon="11.817333710140772"><ele>1132.0</ele><time>2026-04-06T12:45:06.024Z</time></trkpt><trkpt lat="45.858572131567726" lon="11.817341404865068"><ele>1132.0</ele><time>2026-04-06T12:45:11.024Z</time></trkpt><trkpt lat="45.85850476352037" lon="11.817322076433559"><ele>1132.0</ele><time>2026-04-06T12:45:17.024Z</time></trkpt><trkpt lat="45.85843406730868" lon="11.817319460512806"><ele>1132.0</ele><time>2026-04-06T12:45:23.024Z</time></trkpt><trkpt lat="45.858362488045465" lon="11.817317074078893"><ele>1130.142857142857</ele><time>2026-04-06T12:45:29.024Z</time></trkpt><trkpt lat="45.85829560275583" lon="11.817306757859805"><ele>1128.2857142857144</ele><time>2026-04-06T12:45:35.023Z</time></trkpt><trkpt lat="45.858234976405676" lon="11.817268373620013"><ele>1126.4285714285716</ele><time>2026-04-06T12:45:41.024Z</time></trkpt><trkpt lat="45.85816839573799" lon="11.817226342105146"><ele>1124.5714285714287</ele><time>2026-04-06T12:45:47.024Z</time></trkpt><trkpt lat="45.85809400153341" lon="11.817220240529005"><ele>1122.7142857142858</ele><time>2026-04-06T12:45:53.024Z</time></trkpt><trkpt lat="45.85803144878073" lon="11.817256346996457"><ele>1120.857142857143</ele><time>2026-04-06T12:45:58.024Z</time></trkpt><trkpt lat="45.85796971468183" lon="11.817275339305231"><ele>1119.0</ele><time>2026-04-06T12:46:03.024Z</time></trkpt><trkpt lat="45.85790699651872" lon="11.817235729334028"><ele>1119.0</ele><time>2026-04-06T12:46:09.024Z</time></trkpt><trkpt lat="45.85783904799969" lon="11.817195003755668"><ele>1119.0</ele><time>2026-04-06T12:46:15.024Z</time></trkpt><trkpt lat="45.85777035284782" lon="11.8171807769352"><ele>1119.0</ele><time>2026-04-06T12:46:20.024Z</time></trkpt><trkpt lat="45.857716729482355" lon="11.817133248675384"><ele>1119.0</ele><time>2026-04-06T12:46:24.024Z</time></trkpt><trkpt lat="45.85779275706706" lon="11.817093836196909"><ele>1119.0</ele><time>2026-04-06T12:46:39.024Z</time></trkpt><trkpt lat="45.85785838668682" lon="11.817055532410869"><ele>1119.0</ele><time>2026-04-06T12:46:46.024Z</time></trkpt><trkpt lat="45.8579294244652" lon="11.817053304177985"><ele>1119.0</ele><time>2026-04-06T12:46:53.024Z</time></trkpt><trkpt lat="45.85798958878733" lon="11.817017096600184"><ele>1119.0</ele><time>2026-04-06T12:46:58.024Z</time></trkpt><trkpt lat="45.85805049602695" lon="11.816972738813227"><ele>1119.0</ele><time>2026-04-06T12:47:03.024Z</time></trkpt><trkpt lat="45.858114426687514" lon="11.816995840160882"><ele>1119.0</ele><time>2026-04-06T12:47:09.024Z</time></trkpt><trkpt lat="45.85817686102703" lon="11.81701067268292"><ele>1119.0</ele><time>2026-04-06T12:47:13.024Z</time></trkpt><trkpt lat="45.85831332823923" lon="11.816987345564948"><ele>1119.0</ele><time>2026-04-06T12:47:24.025Z</time></trkpt><trkpt lat="45.85837850409858" lon="11.816954489766745"><ele>1119.0</ele><time>2026-04-06T12:47:31.025Z</time></trkpt><trkpt lat="45.85845315897945" lon="11.816894338194954"><ele>1119.0</ele><time>2026-04-06T12:47:37.023Z</time></trkpt><trkpt lat="45.8585248675821" lon="11.816882374581903"><ele>1119.0</ele><time>2026-04-06T12:47:41.023Z</time></trkpt><trkpt lat="45.85860383829959" lon="11.816860051108199"><ele>1119.0</ele><time>2026-04-06T12:47:48.023Z</time></trkpt><trkpt lat="45.85859895806843" lon="11.816762085454744"><ele>1119.0</ele><time>2026-04-06T12:47:54.023Z</time></trkpt><trkpt lat="45.8586338070573" lon="11.816848219701221"><ele>1119.0</ele><time>2026-04-06T12:48:02.023Z</time></trkpt><trkpt lat="45.858561578710066" lon="11.81686303861612"><ele>1119.0</ele><time>2026-04-06T12:48:08.023Z</time></trkpt><trkpt lat="45.85849708999652" lon="11.816886414411682"><ele>1119.0</ele><time>2026-04-06T12:48:14.024Z</time></trkpt><trkpt lat="45.85842778481338" lon="11.816857244975182"><ele>1119.0</ele><time>2026-04-06T12:48:21.024Z</time></trkpt><trkpt lat="45.858355179078615" lon="11.816842290514753"><ele>1119.0</ele><time>2026-04-06T12:48:28.024Z</time></trkpt><trkpt lat="45.858286705247465" lon="11.816816210874444"><ele>1119.0</ele><time>2026-04-06T12:48:32.024Z</time></trkpt><trkpt lat="45.85821928141119" lon="11.816833905784815"><ele>1119.0</ele><time>2026-04-06T12:48:40.024Z</time></trkpt><trkpt lat="45.85815105574132" lon="11.816855688416556"><ele>1119.0</ele><time>2026-04-06T12:48:49.024Z</time></trkpt><trkpt lat="45.858087055452785" lon="11.81685405211007"><ele>1119.0</ele><time>2026-04-06T12:48:55.024Z</time></trkpt><trkpt lat="45.85802416223228" lon="11.81686326495234"><ele>1119.0</ele><time>2026-04-06T12:49:01.024Z</time></trkpt><trkpt lat="45.85795589292205" lon="11.816888410611835"><ele>1119.0</ele><time>2026-04-06T12:49:06.024Z</time></trkpt><trkpt lat="45.85789163831499" lon="11.816891777272716"><ele>1119.0</ele><time>2026-04-06T12:49:11.024Z</time></trkpt><trkpt lat="45.857828042007895" lon="11.81689199349124"><ele>1119.0</ele><time>2026-04-06T12:49:18.024Z</time></trkpt><trkpt lat="45.85776523316711" lon="11.816905360365139"><ele>1119.0</ele><time>2026-04-06T12:49:25.024Z</time></trkpt><trkpt lat="45.85771757786128" lon="11.81683574252148"><ele>1119.0</ele><time>2026-04-06T12:49:29.024Z</time></trkpt><trkpt lat="45.85768668927912" lon="11.816740805552966"><ele>1119.0</ele><time>2026-04-06T12:49:32.024Z</time></trkpt><trkpt lat="45.857638910518986" lon="11.816627311195097"><ele>1119.0</ele><time>2026-04-06T12:49:35.024Z</time></trkpt><trkpt lat="45.85757198282343" lon="11.816625669211279"><ele>1113.4285714285713</ele><time>2026-04-06T12:49:39.024Z</time></trkpt><trkpt lat="45.857502522746415" lon="11.816671020277147"><ele>1107.857142857143</ele><time>2026-04-06T12:49:44.024Z</time></trkpt><trkpt lat="45.85743435757217" lon="11.816688471166668"><ele>1102.2857142857142</ele><time>2026-04-06T12:49:50.024Z</time></trkpt><trkpt lat="45.857377097397595" lon="11.816735079064149"><ele>1096.7142857142858</ele><time>2026-04-06T12:49:59.025Z</time></trkpt><trkpt lat="45.857342037795455" lon="11.816832083863451"><ele>1091.142857142857</ele><time>2026-04-06T12:50:06.025Z</time></trkpt><trkpt lat="45.8572903794561" lon="11.816898157410051"><ele>1085.5714285714284</ele><time>2026-04-06T12:50:11.025Z</time></trkpt><trkpt lat="45.85722590859424" lon="11.816950880912293"><ele>1080.0</ele><time>2026-04-06T12:50:15.025Z</time></trkpt><trkpt lat="45.85714909307916" lon="11.8169820975452"><ele>1080.0</ele><time>2026-04-06T12:50:20.025Z</time></trkpt><trkpt lat="45.85708110224247" lon="11.816985145744988"><ele>1080.0</ele><time>2026-04-06T12:50:25.025Z</time></trkpt><trkpt lat="45.857115510587676" lon="11.816898968013128"><ele>1080.0</ele><time>2026-04-06T12:50:41.025Z</time></trkpt><trkpt lat="45.857154133490745" lon="11.816811231436532"><ele>1080.0</ele><time>2026-04-06T12:50:48.025Z</time></trkpt><trkpt lat="45.857189978899726" lon="11.81673684702374"><ele>1080.0</ele><time>2026-04-06T12:50:52.025Z</time></trkpt><trkpt lat="45.85725499082401" lon="11.816717214578759"><ele>1080.0</ele><time>2026-04-06T12:51:02.025Z</time></trkpt><trkpt lat="45.85725061873017" lon="11.816618604149568"><ele>1080.0</ele><time>2026-04-06T12:51:07.025Z</time></trkpt><trkpt lat="45.857284001401126" lon="11.816523508673265"><ele>1080.0</ele><time>2026-04-06T12:51:14.025Z</time></trkpt><trkpt lat="45.857349030447345" lon="11.816508487003091"><ele>1080.0</ele><time>2026-04-06T12:51:21.025Z</time></trkpt><trkpt lat="45.857377097397595" lon="11.816735079064149"><ele>1080.0</ele><time>2026-04-06T12:49:59.025Z</time></trkpt><trkpt lat="45.857342037795455" lon="11.816832083863451"><ele>1080.0</ele><time>2026-04-06T12:50:06.025Z</time></trkpt><trkpt lat="45.8572903794561" lon="11.816898157410051"><ele>1080.0</ele><time>2026-04-06T12:50:11.025Z</time></trkpt><trkpt lat="45.85722590859424" lon="11.816950880912293"><ele>1080.0</ele><time>2026-04-06T12:50:15.025Z</time></trkpt><trkpt lat="45.85714909307916" lon="11.8169820975452"><ele>1080.0</ele><time>2026-04-06T12:50:20.025Z</time></trkpt><trkpt lat="45.85708110224247" lon="11.816985145744988"><ele>1080.0</ele><time>2026-04-06T12:50:25.025Z</time></trkpt><trkpt lat="45.857115510587676" lon="11.816898968013128"><ele>1080.0</ele><time>2026-04-06T12:50:41.025Z</time></trkpt><trkpt lat="45.857154133490745" lon="11.816811231436532"><ele>1080.0</ele><time>2026-04-06T12:50:48.025Z</time></trkpt><trkpt lat="45.857189978899726" lon="11.81673684702374"><ele>1080.0</ele><time>2026-04-06T12:50:52.025Z</time></trkpt><trkpt lat="45.85725499082401" lon="11.816717214578759"><ele>1080.0</ele><time>2026-04-06T12:51:02.025Z</time></trkpt><trkpt lat="45.85725061873017" lon="11.816618604149568"><ele>1080.0</ele><time>2026-04-06T12:51:07.025Z</time></trkpt><trkpt lat="45.857284001401126" lon="11.816523508673265"><ele>1079.2857142857142</ele><time>2026-04-06T12:51:14.025Z</time></trkpt><trkpt lat="45.857349030447345" lon="11.816508487003091"><ele>1078.5714285714284</ele><time>2026-04-06T12:51:21.025Z</time></trkpt><trkpt lat="45.857393197328335" lon="11.816420336626326"><ele>1077.857142857143</ele><time>2026-04-06T12:51:28.025Z</time></trkpt><trkpt lat="45.857423643261924" lon="11.816336921303343"><ele>1077.142857142857</ele><time>2026-04-06T12:51:32.026Z</time></trkpt><trkpt lat="45.8574719515652" lon="11.816262839251378"><ele>1076.4285714285716</ele><time>2026-04-06T12:51:38.026Z</time></trkpt><trkpt lat="45.85754339342133" lon="11.816242882210233"><ele>1075.7142857142858</ele><time>2026-04-06T12:51:48.024Z</time></trkpt><trkpt lat="45.857619922178294" lon="11.8162721293418"><ele>1075.0</ele><time>2026-04-06T12:51:58.024Z</time></trkpt><trkpt lat="45.85768693804501" lon="11.816264305076103"><ele>1075.0000000000002</ele><time>2026-04-06T12:52:06.025Z</time></trkpt><trkpt lat="45.857757136834394" lon="11.816266059743121"><ele>1075.0</ele><time>2026-04-06T12:52:14.025Z</time></trkpt><trkpt lat="45.857828509730616" lon="11.816282939222349"><ele>1075.0</ele><time>2026-04-06T12:52:22.025Z</time></trkpt><trkpt lat="45.85789470380838" lon="11.816296396958396"><ele>1075.0</ele><time>2026-04-06T12:52:26.025Z</time></trkpt><trkpt lat="45.85796959023482" lon="11.816294302595425"><ele>1075.0</ele><time>2026-04-06T12:52:31.025Z</time></trkpt><trkpt lat="45.85804184609864" lon="11.816277888976844"><ele>1075.0000000000002</ele><time>2026-04-06T12:52:38.025Z</time></trkpt><trkpt lat="45.85811112121447" lon="11.81622570213994"><ele>1075.0</ele><time>2026-04-06T12:52:42.025Z</time></trkpt><trkpt lat="45.858001158860596" lon="11.816209596804251"><ele>1075.0000000000002</ele><time>2026-04-06T12:53:02.025Z</time></trkpt><trkpt lat="45.85794261184001" lon="11.816170738971604"><ele>1075.0</ele><time>2026-04-06T12:53:09.025Z</time></trkpt><trkpt lat="45.857899246259166" lon="11.81608482414632"><ele>1075.0</ele><time>2026-04-06T12:53:15.025Z</time></trkpt><trkpt lat="45.857840146192544" lon="11.81604512486624"><ele>1075.0</ele><time>2026-04-06T12:53:20.025Z</time></trkpt><trkpt lat="45.85777107720392" lon="11.81604153947866"><ele>1075.0</ele><time>2026-04-06T12:53:29.025Z</time></trkpt><trkpt lat="45.85769711736383" lon="11.81599079316704"><ele>1075.0000000000002</ele><time>2026-04-06T12:53:34.025Z</time></trkpt><trkpt lat="45.85763362422235" lon="11.815970057337317"><ele>1075.0</ele><time>2026-04-06T12:53:38.025Z</time></trkpt><trkpt lat="45.85756656881028" lon="11.81598790512047"><ele>1075.0000000000002</ele><time>2026-04-06T12:53:44.026Z</time></trkpt><trkpt lat="45.857630930773965" lon="11.816012058943912"><ele>1075.0</ele><time>2026-04-06T12:54:14.025Z</time></trkpt><trkpt lat="45.85769939501969" lon="11.816019263633043"><ele>1075.0</ele><time>2026-04-06T12:54:23.025Z</time></trkpt><trkpt lat="45.85776395040922" lon="11.816030747942241"><ele>1075.0</ele><time>2026-04-06T12:54:32.026Z</time></trkpt><trkpt lat="45.857829505854966" lon="11.815987115761912"><ele>1075.0</ele><time>2026-04-06T12:54:39.026Z</time></trkpt><trkpt lat="45.85789264192226" lon="11.815969289122886"><ele>1075.0000000000002</ele><time>2026-04-06T12:54:46.026Z</time></trkpt><trkpt lat="45.85796360764823" lon="11.815917206806176"><ele>1075.0</ele><time>2026-04-06T12:54:50.026Z</time></trkpt><trkpt lat="45.85802758320781" lon="11.815878845736709"><ele>1069.4285714285716</ele><time>2026-04-06T12:54:57.026Z</time></trkpt><trkpt lat="45.85808908976479" lon="11.815856829793175"><ele>1063.857142857143</ele><time>2026-04-06T12:55:02.026Z</time></trkpt><trkpt lat="45.85815723137577" lon="11.815803513291897"><ele>1058.2857142857142</ele><time>2026-04-06T12:55:09.026Z</time></trkpt><trkpt lat="45.858173503686565" lon="11.815692808474576"><ele>1052.7142857142858</ele><time>2026-04-06T12:55:15.026Z</time></trkpt><trkpt lat="45.85814495128196" lon="11.815611616661384"><ele>1047.142857142857</ele><time>2026-04-06T12:55:22.026Z</time></trkpt><trkpt lat="45.858133939598964" lon="11.815511077969013"><ele>1041.5714285714287</ele><time>2026-04-06T12:55:31.026Z</time></trkpt><trkpt lat="45.85816063097671" lon="11.81540822496465"><ele>1036.0</ele><time>2026-04-06T12:55:35.956Z</time></trkpt><trkpt lat="45.858193652448584" lon="11.815313122277653"><ele>1036.0</ele><time>2026-04-06T12:55:41.956Z</time></trkpt><trkpt lat="45.8582013476659" lon="11.815212893631564"><ele>1036.0</ele><time>2026-04-06T12:55:45.956Z</time></trkpt><trkpt lat="45.85822080357412" lon="11.815111700317868"><ele>1036.0</ele><time>2026-04-06T12:55:53.956Z</time></trkpt><trkpt lat="45.858255902182314" lon="11.815004019347692"><ele>1036.0</ele><time>2026-04-06T12:55:59.955Z</time></trkpt><trkpt lat="45.85829255555211" lon="11.81492484583263"><ele>1036.0</ele><time>2026-04-06T12:56:06.955Z</time></trkpt><trkpt lat="45.85831490197997" lon="11.814824997501166"><ele>1036.0</ele><time>2026-04-06T12:56:12.955Z</time></trkpt><trkpt lat="45.85831201208992" lon="11.814721749908232"><ele>1036.0</ele><time>2026-04-06T12:56:18.955Z</time></trkpt><trkpt lat="45.85824713668603" lon="11.81468046627044"><ele>1034.0</ele><time>2026-04-06T12:56:25.955Z</time></trkpt><trkpt lat="45.858186008918516" lon="11.814653146495449"><ele>1032.0</ele><time>2026-04-06T12:56:32.955Z</time></trkpt><trkpt lat="45.85813860045256" lon="11.81459246624476"><ele>1030.0</ele><time>2026-04-06T12:56:38.955Z</time></trkpt><trkpt lat="45.8580846555478" lon="11.814518260253248"><ele>1028.0</ele><time>2026-04-06T12:56:44.955Z</time></trkpt><trkpt lat="45.85803684533834" lon="11.814456402819108"><ele>1026.0</ele><time>2026-04-06T12:56:49.955Z</time></trkpt><trkpt lat="45.857982391699615" lon="11.814403358313893"><ele>1024.0</ele><time>2026-04-06T12:56:55.955Z</time></trkpt><trkpt lat="45.857953289659555" lon="11.814314904949832"><ele>1022.0</ele><time>2026-04-06T12:57:01.955Z</time></trkpt><trkpt lat="45.85796247094935" lon="11.814192914497319"><ele>1022.0</ele><time>2026-04-06T12:57:10.955Z</time></trkpt><trkpt lat="45.85797619812372" lon="11.814096790421093"><ele>1022.0</ele><time>2026-04-06T12:57:14.955Z</time></trkpt><trkpt lat="45.85791803404502" lon="11.814169696694245"><ele>1022.0</ele><time>2026-04-06T12:57:33.955Z</time></trkpt><trkpt lat="45.85786492333867" lon="11.81423522694481"><ele>1022.0</ele><time>2026-04-06T12:57:41.955Z</time></trkpt><trkpt lat="45.85786619298233" lon="11.814331450375727"><ele>1022.0</ele><time>2026-04-06T12:57:45.955Z</time></trkpt><trkpt lat="45.85788594392228" lon="11.814423107618852"><ele>1022.0</ele><time>2026-04-06T12:57:52.955Z</time></trkpt><trkpt lat="45.85793595291186" lon="11.814487003740936"><ele>1022.0</ele><time>2026-04-06T12:57:57.955Z</time></trkpt><trkpt lat="45.85798522243281" lon="11.81457122954181"><ele>1022.0</ele><time>2026-04-06T12:58:03.955Z</time></trkpt><trkpt lat="45.85803695856415" lon="11.814647685230119"><ele>1022.0</ele><time>2026-04-06T12:58:09.954Z</time></trkpt><trkpt lat="45.85808128978344" lon="11.814725770897288"><ele>1022.0</ele><time>2026-04-06T12:58:17.954Z</time></trkpt><trkpt lat="45.85806342371851" lon="11.814823749310145"><ele>1022.0</ele><time>2026-04-06T12:58:22.954Z</time></trkpt><trkpt lat="45.85802585023152" lon="11.814906275345175"><ele>1022.0</ele><time>2026-04-06T12:58:28.953Z</time></trkpt><trkpt lat="45.85798354442691" lon="11.814975928194482"><ele>1022.0</ele><time>2026-04-06T12:58:33.953Z</time></trkpt><trkpt lat="45.85797562154987" lon="11.815069936196856"><ele>1022.0</ele><time>2026-04-06T12:58:38.953Z</time></trkpt><trkpt lat="45.85794450520397" lon="11.815178416709571"><ele>1024.0</ele><time>2026-04-06T12:58:46.953Z</time></trkpt><trkpt lat="45.85790480029278" lon="11.81525602793009"><ele>1026.0</ele><time>2026-04-06T12:58:53.953Z</time></trkpt><trkpt lat="45.85786909008735" lon="11.815350060976295"><ele>1028.0</ele><time>2026-04-06T12:58:57.953Z</time></trkpt><trkpt lat="45.85780319329433" lon="11.81538195102644"><ele>1030.0</ele><time>2026-04-06T12:59:03.953Z</time></trkpt><trkpt lat="45.857745570705795" lon="11.8153425913744"><ele>1032.0</ele><time>2026-04-06T12:59:10.953Z</time></trkpt><trkpt lat="45.85768049964471" lon="11.815329937244492"><ele>1034.0</ele><time>2026-04-06T12:59:15.953Z</time></trkpt><trkpt lat="45.85761609400459" lon="11.815341064500508"><ele>1036.0</ele><time>2026-04-06T12:59:19.953Z</time></trkpt><trkpt lat="45.85757820318386" lon="11.815414423784956"><ele>1030.142857142857</ele><time>2026-04-06T12:59:27.953Z</time></trkpt><trkpt lat="45.857541930595" lon="11.815517425593386"><ele>1024.2857142857142</ele><time>2026-04-06T12:59:32.953Z</time></trkpt><trkpt lat="45.85748250271332" lon="11.815551089215287"><ele>1018.4285714285714</ele><time>2026-04-06T12:59:38.953Z</time></trkpt><trkpt lat="45.85742886822558" lon="11.81561287705732"><ele>1012.5714285714286</ele><time>2026-04-06T12:59:43.953Z</time></trkpt><trkpt lat="45.857368843013134" lon="11.8156820110854"><ele>1006.7142857142857</ele><time>2026-04-06T12:59:48.953Z</time></trkpt><trkpt lat="45.85729766284083" lon="11.815722526818998"><ele>1000.8571428571429</ele><time>2026-04-06T12:59:53.953Z</time></trkpt><trkpt lat="45.85722702923467" lon="11.815734474966378"><ele>995.0</ele><time>2026-04-06T12:59:58.953Z</time></trkpt><trkpt lat="45.8571650083817" lon="11.815764673740466"><ele>995.0000000000001</ele><time>2026-04-06T13:00:04.953Z</time></trkpt><trkpt lat="45.857098070118134" lon="11.815795041547759"><ele>995.0</ele><time>2026-04-06T13:00:10.952Z</time></trkpt><trkpt lat="45.85701955885901" lon="11.815832903079485"><ele>995.0</ele><time>2026-04-06T13:00:16.952Z</time></trkpt><trkpt lat="45.856944126164116" lon="11.815788239680275"><ele>995.0</ele><time>2026-04-06T13:00:24.953Z</time></trkpt><trkpt lat="45.85687437150351" lon="11.815807628051491"><ele>995.0000000000001</ele><time>2026-04-06T13:00:29.952Z</time></trkpt><trkpt lat="45.85681208644513" lon="11.815780843467659"><ele>995.0</ele><time>2026-04-06T13:00:35.952Z</time></trkpt><trkpt lat="45.85673135316692" lon="11.815793091734893"><ele>991.4285714285714</ele><time>2026-04-06T13:00:42.952Z</time></trkpt><trkpt lat="45.85667316412218" lon="11.815757056955459"><ele>987.8571428571429</ele><time>2026-04-06T13:00:49.952Z</time></trkpt><trkpt lat="45.85661157621961" lon="11.815798096314248"><ele>984.2857142857143</ele><time>2026-04-06T13:00:55.952Z</time></trkpt><trkpt lat="45.8565413858076" lon="11.815781014332385"><ele>980.7142857142858</ele><time>2026-04-06T13:01:01.952Z</time></trkpt><trkpt lat="45.85647124686484" lon="11.815767486896986"><ele>977.1428571428571</ele><time>2026-04-06T13:01:07.952Z</time></trkpt><trkpt lat="45.85639948949298" lon="11.815753446949556"><ele>973.5714285714287</ele><time>2026-04-06T13:01:12.952Z</time></trkpt><trkpt lat="45.856336675430164" lon="11.815778706019469"><ele>970.0000000000001</ele><time>2026-04-06T13:01:18.952Z</time></trkpt><trkpt lat="45.856273124376955" lon="11.815784509029548"><ele>970.0000000000001</ele><time>2026-04-06T13:01:25.952Z</time></trkpt><trkpt lat="45.856236484948795" lon="11.815860016280912"><ele>970.0</ele><time>2026-04-06T13:01:33.952Z</time></trkpt><trkpt lat="45.8561878409746" lon="11.815920376762108"><ele>970.0000000000001</ele><time>2026-04-06T13:01:39.952Z</time></trkpt><trkpt lat="45.85613741521668" lon="11.81597706470734"><ele>970.0000000000001</ele><time>2026-04-06T13:01:46.952Z</time></trkpt><trkpt lat="45.85612645871745" lon="11.816083004348366"><ele>970.0</ele><time>2026-04-06T13:01:52.952Z</time></trkpt><trkpt lat="45.85611945318246" lon="11.81618264370251"><ele>970.0000000000001</ele><time>2026-04-06T13:01:55.952Z</time></trkpt><trkpt lat="45.85608098188209" lon="11.81626249250822"><ele>970.0000000000001</ele><time>2026-04-06T13:02:01.952Z</time></trkpt><trkpt lat="45.85602896225214" lon="11.816315530630211"><ele>974.857142857143</ele><time>2026-04-06T13:02:06.952Z</time></trkpt><trkpt lat="45.85601413428261" lon="11.816407794188018"><ele>979.7142857142858</ele><time>2026-04-06T13:02:13.952Z</time></trkpt><trkpt lat="45.85601465199022" lon="11.816503619970005"><ele>984.5714285714286</ele><time>2026-04-06T13:02:20.951Z</time></trkpt><trkpt lat="45.856013278821216" lon="11.816604603374282"><ele>989.4285714285714</ele><time>2026-04-06T13:02:27.951Z</time></trkpt><trkpt lat="45.85597951585758" lon="11.816516202560106"><ele>994.2857142857142</ele><time>2026-04-06T13:02:40.951Z</time></trkpt><trkpt lat="45.85594857796038" lon="11.816426198757298"><ele>999.142857142857</ele><time>2026-04-06T13:02:48.951Z</time></trkpt><trkpt lat="45.855933834628566" lon="11.816331388143327"><ele>1003.9999999999999</ele><time>2026-04-06T13:02:54.951Z</time></trkpt><trkpt lat="45.855921887392185" lon="11.816236335574164"><ele>1003.9999999999999</ele><time>2026-04-06T13:03:05.951Z</time></trkpt><trkpt lat="45.85591433022603" lon="11.816132626163387"><ele>1004.0</ele><time>2026-04-06T13:03:14.951Z</time></trkpt><trkpt lat="45.8559612920091" lon="11.816067043933499"><ele>1003.9999999999999</ele><time>2026-04-06T13:03:18.95Z</time></trkpt><trkpt lat="45.85600736803814" lon="11.815993581806335"><ele>1003.9999999999999</ele><time>2026-04-06T13:03:21.95Z</time></trkpt><trkpt lat="45.85603147901019" lon="11.815908833403089"><ele>1004.0</ele><time>2026-04-06T13:03:25.95Z</time></trkpt><trkpt lat="45.85603628052699" lon="11.815812853773727"><ele>1003.9999999999999</ele><time>2026-04-06T13:03:31.95Z</time></trkpt><trkpt lat="45.856013900963696" lon="11.815898475642078"><ele>1003.9999999999999</ele><time>2026-04-06T13:03:41.95Z</time></trkpt><trkpt lat="45.85597823122424" lon="11.815980296617527"><ele>991.8571428571427</ele><time>2026-04-06T13:03:47.95Z</time></trkpt><trkpt lat="45.85592616304719" lon="11.816042734869463"><ele>979.7142857142857</ele><time>2026-04-06T13:03:55.95Z</time></trkpt><trkpt lat="45.85587173860091" lon="11.816101287535323"><ele>967.5714285714284</ele><time>2026-04-06T13:04:01.95Z</time></trkpt><trkpt lat="45.85581669193599" lon="11.81615216743658"><ele>955.4285714285713</ele><time>2026-04-06T13:04:07.95Z</time></trkpt><trkpt lat="45.85578417056244" lon="11.816235257906248"><ele>943.2857142857142</ele><time>2026-04-06T13:04:15.95Z</time></trkpt><trkpt lat="45.85580311105448" lon="11.816328287051647"><ele>931.1428571428571</ele><time>2026-04-06T13:04:23.95Z</time></trkpt><trkpt lat="45.85583982619202" lon="11.816423710268019"><ele>919.0</ele><time>2026-04-06T13:04:29.949Z</time></trkpt><trkpt lat="45.85584750389498" lon="11.816517444082658"><ele>919.0</ele><time>2026-04-06T13:04:36.949Z</time></trkpt><trkpt lat="45.855861596692165" lon="11.816612892824509"><ele>918.9999999999999</ele><time>2026-04-06T13:04:42.949Z</time></trkpt><trkpt lat="45.8558087691639" lon="11.81667744968308"><ele>919.0</ele><time>2026-04-06T13:04:56.949Z</time></trkpt><trkpt lat="45.855748605263614" lon="11.816648956214044"><ele>919.0</ele><time>2026-04-06T13:05:04.949Z</time></trkpt><trkpt lat="45.85573001518012" lon="11.816550869963972"><ele>918.9999999999999</ele><time>2026-04-06T13:05:10.949Z</time></trkpt><trkpt lat="45.855718870910934" lon="11.81645324472319"><ele>919.0</ele><time>2026-04-06T13:05:18.949Z</time></trkpt><trkpt lat="45.855686014914156" lon="11.816360610078416"><ele>919.0</ele><time>2026-04-06T13:05:25.949Z</time></trkpt><trkpt lat="45.855667027459575" lon="11.816454921952037"><ele>919.0</ele><time>2026-04-06T13:05:39.949Z</time></trkpt><trkpt lat="45.855689873114244" lon="11.81654605094982"><ele>918.9999999999999</ele><time>2026-04-06T13:05:46.949Z</time></trkpt><trkpt lat="45.8557165705574" lon="11.816630521974766"><ele>919.0</ele><time>2026-04-06T13:05:52.949Z</time></trkpt><trkpt lat="45.85575899896565" lon="11.81670967793582"><ele>919.0</ele><time>2026-04-06T13:05:58.949Z</time></trkpt><trkpt lat="45.8556865179053" lon="11.816697189626062"><ele>918.9999999999999</ele><time>2026-04-06T13:06:13.949Z</time></trkpt><trkpt lat="45.85565603536592" lon="11.816605785954932"><ele>919.0</ele><time>2026-04-06T13:06:19.949Z</time></trkpt><trkpt lat="45.85562599849675" lon="11.816515092170976"><ele>919.0</ele><time>2026-04-06T13:06:27.948Z</time></trkpt><trkpt lat="45.8555932259166" lon="11.816426085575467"><ele>919.0</ele><time>2026-04-06T13:06:34.948Z</time></trkpt><trkpt lat="45.85555172421118" lon="11.816494085623123"><ele>918.9999999999999</ele><time>2026-04-06T13:06:46.948Z</time></trkpt><trkpt lat="45.855566577412915" lon="11.816603436032025"><ele>919.0</ele><time>2026-04-06T13:06:53.948Z</time></trkpt><trkpt lat="45.855591337114625" lon="11.8166958196088"><ele>919.0</ele><time>2026-04-06T13:07:01.948Z</time></trkpt><trkpt lat="45.855627232187395" lon="11.816788308395472"><ele>918.9999999999999</ele><time>2026-04-06T13:07:08.948Z</time></trkpt><trkpt lat="45.85565417128929" lon="11.81687256351155"><ele>919.0</ele><time>2026-04-06T13:07:15.948Z</time></trkpt><trkpt lat="45.855591759631224" lon="11.816833427265916"><ele>919.0</ele><time>2026-04-06T13:07:31.948Z</time></trkpt><trkpt lat="45.85554073939008" lon="11.816776833059098"><ele>919.0</ele><time>2026-04-06T13:07:37.948Z</time></trkpt><trkpt lat="45.85550409589204" lon="11.816693383015888"><ele>918.9999999999999</ele><time>2026-04-06T13:07:43.948Z</time></trkpt><trkpt lat="45.855488412823895" lon="11.81660193276616"><ele>919.0</ele><time>2026-04-06T13:07:49.948Z</time></trkpt><trkpt lat="45.85546881113683" lon="11.816510373517172"><ele>919.0</ele><time>2026-04-06T13:07:55.948Z</time></trkpt><trkpt lat="45.85542609403925" lon="11.816432139087707"><ele>918.9999999999999</ele><time>2026-04-06T13:08:03.948Z</time></trkpt><trkpt lat="45.85544634410966" lon="11.816522742146418"><ele>919.0</ele><time>2026-04-06T13:08:10.948Z</time></trkpt><trkpt lat="45.85547757455731" lon="11.816614578199154"><ele>919.0</ele><time>2026-04-06T13:08:17.948Z</time></trkpt><trkpt lat="45.855507904149455" lon="11.8167073087135"><ele>919.0</ele><time>2026-04-06T13:08:25.948Z</time></trkpt><trkpt lat="45.85552293106638" lon="11.816795538341578"><ele>918.9999999999999</ele><time>2026-04-06T13:08:30.948Z</time></trkpt><trkpt lat="45.855565256990246" lon="11.816897871030806"><ele>919.0</ele><time>2026-04-06T13:08:39.947Z</time></trkpt><trkpt lat="45.85557539570433" lon="11.81700165513397"><ele>919.0</ele><time>2026-04-06T13:08:44.947Z</time></trkpt><trkpt lat="45.85554532590814" lon="11.817089244879721"><ele>918.9999999999999</ele><time>2026-04-06T13:08:53.946Z</time></trkpt><trkpt lat="45.855532597767834" lon="11.817189150312515"><ele>919.0</ele><time>2026-04-06T13:08:56.946Z</time></trkpt><trkpt lat="45.85552678103993" lon="11.817294778169213"><ele>919.0</ele><time>2026-04-06T13:09:00.946Z</time></trkpt><trkpt lat="45.855556990351815" lon="11.817386626702474"><ele>917.5714285714286</ele><time>2026-04-06T13:09:06.946Z</time></trkpt><trkpt lat="45.85559174871359" lon="11.817478151191292"><ele>916.1428571428571</ele><time>2026-04-06T13:09:13.946Z</time></trkpt><trkpt lat="45.85560044756169" lon="11.81757434826919"><ele>914.7142857142857</ele><time>2026-04-06T13:09:19.946Z</time></trkpt><trkpt lat="45.85558008406214" lon="11.817675035157455"><ele>913.2857142857142</ele><time>2026-04-06T13:09:24.946Z</time></trkpt><trkpt lat="45.85561061749464" lon="11.817769017117243"><ele>911.8571428571429</ele><time>2026-04-06T13:09:30.946Z</time></trkpt><trkpt lat="45.85565270847503" lon="11.817836371617473"><ele>910.4285714285713</ele><time>2026-04-06T13:09:39.946Z</time></trkpt><trkpt lat="45.855700603350336" lon="11.81791449237052"><ele>909.0</ele><time>2026-04-06T13:09:46.946Z</time></trkpt><trkpt lat="45.85570123022509" lon="11.81803059017578"><ele>907.8571428571429</ele><time>2026-04-06T13:09:52.946Z</time></trkpt><trkpt lat="45.85567453246138" lon="11.818122920631502"><ele>906.7142857142858</ele><time>2026-04-06T13:09:59.946Z</time></trkpt><trkpt lat="45.855625015008286" lon="11.81817972238415"><ele>905.5714285714287</ele><time>2026-04-06T13:10:04.946Z</time></trkpt><trkpt lat="45.85557281801654" lon="11.818233281170926"><ele>904.4285714285714</ele><time>2026-04-06T13:10:11.946Z</time></trkpt><trkpt lat="45.85554898973462" lon="11.818330658262022"><ele>903.2857142857144</ele><time>2026-04-06T13:10:15.946Z</time></trkpt><trkpt lat="45.85554249768718" lon="11.818422565802921"><ele>902.1428571428572</ele><time>2026-04-06T13:10:21.946Z</time></trkpt><trkpt lat="45.85552748315407" lon="11.81852123722787"><ele>901.0</ele><time>2026-04-06T13:10:29.946Z</time></trkpt><trkpt lat="45.85554122219988" lon="11.81862216654127"><ele>900.9999999999999</ele><time>2026-04-06T13:10:35.946Z</time></trkpt><trkpt lat="45.85552064172927" lon="11.818712858700954"><ele>901.0</ele><time>2026-04-06T13:10:41.946Z</time></trkpt><trkpt lat="45.855509024672564" lon="11.818817970187439"><ele>901.0</ele><time>2026-04-06T13:10:50.946Z</time></trkpt><trkpt lat="45.85549876383533" lon="11.818924584022117"><ele>901.0</ele><time>2026-04-06T13:10:58.945Z</time></trkpt><trkpt lat="45.855516604372006" lon="11.81903750438399"><ele>900.9999999999999</ele><time>2026-04-06T13:11:02.945Z</time></trkpt><trkpt lat="45.85551144653338" lon="11.819143856435515"><ele>901.0</ele><time>2026-04-06T13:11:07.945Z</time></trkpt><trkpt lat="45.855463712856405" lon="11.819235786699165"><ele>901.0</ele><time>2026-04-06T13:11:12.945Z</time></trkpt><trkpt lat="45.85540374677985" lon="11.81928216273614"><ele>901.0000000000001</ele><time>2026-04-06T13:11:18.945Z</time></trkpt><trkpt lat="45.85534216444033" lon="11.819317777183333"><ele>901.0</ele><time>2026-04-06T13:11:23.944Z</time></trkpt><trkpt lat="45.85528711372625" lon="11.819367263586933"><ele>901.0</ele><time>2026-04-06T13:11:28.942Z</time></trkpt><trkpt lat="45.85522932310439" lon="11.81941867250168"><ele>901.0000000000001</ele><time>2026-04-06T13:11:34.94Z</time></trkpt><trkpt lat="45.85516204287693" lon="11.819494234342077"><ele>901.0</ele><time>2026-04-06T13:11:40.939Z</time></trkpt><trkpt lat="45.85514650604657" lon="11.819587056840806"><ele>901.0</ele><time>2026-04-06T13:11:45.938Z</time></trkpt><trkpt lat="45.85512706371637" lon="11.819685025952543"><ele>901.7142857142858</ele><time>2026-04-06T13:11:51.937Z</time></trkpt><trkpt lat="45.85510692561202" lon="11.819780598764842"><ele>902.4285714285716</ele><time>2026-04-06T13:11:58.937Z</time></trkpt><trkpt lat="45.85508014482528" lon="11.81986755093808"><ele>903.1428571428571</ele><time>2026-04-06T13:12:04.937Z</time></trkpt><trkpt lat="45.85505146232949" lon="11.819965900857703"><ele>903.8571428571429</ele><time>2026-04-06T13:12:11.936Z</time></trkpt><trkpt lat="45.85507843803853" lon="11.82005773767622"><ele>904.5714285714286</ele><time>2026-04-06T13:12:19.936Z</time></trkpt><trkpt lat="45.855130786256005" lon="11.820108049910125"><ele>905.2857142857142</ele><time>2026-04-06T13:12:25.936Z</time></trkpt><trkpt lat="45.85518932733967" lon="11.820200317050473"><ele>905.9999999999999</ele><time>2026-04-06T13:12:32.936Z</time></trkpt><trkpt lat="45.85522362579247" lon="11.820278263133266"><ele>901.7142857142856</ele><time>2026-04-06T13:12:37.936Z</time></trkpt><trkpt lat="45.85524479387287" lon="11.820367325685064"><ele>897.4285714285713</ele><time>2026-04-06T13:12:42.936Z</time></trkpt><trkpt lat="45.85528042270241" lon="11.8204579652066"><ele>893.1428571428571</ele><time>2026-04-06T13:12:46.935Z</time></trkpt><trkpt lat="45.85521797746083" lon="11.820401302296519"><ele>888.8571428571428</ele><time>2026-04-06T13:13:10.936Z</time></trkpt><trkpt lat="45.855163893073325" lon="11.820331771699529"><ele>884.5714285714284</ele><time>2026-04-06T13:13:18.936Z</time></trkpt><trkpt lat="45.85509436007219" lon="11.820295836908139"><ele>880.2857142857143</ele><time>2026-04-06T13:13:24.936Z</time></trkpt><trkpt lat="45.855031975045605" lon="11.820237963322263"><ele>876.0</ele><time>2026-04-06T13:13:30.936Z</time></trkpt><trkpt lat="45.85497321826341" lon="11.820205300750226"><ele>871.7142857142858</ele><time>2026-04-06T13:13:35.936Z</time></trkpt><trkpt lat="45.85491201879993" lon="11.820158109817577"><ele>867.4285714285713</ele><time>2026-04-06T13:13:41.935Z</time></trkpt><trkpt lat="45.85487186100407" lon="11.820083290838351"><ele>863.1428571428571</ele><time>2026-04-06T13:13:47.935Z</time></trkpt><trkpt lat="45.85485379421284" lon="11.819983549889418"><ele>858.8571428571429</ele><time>2026-04-06T13:13:53.935Z</time></trkpt><trkpt lat="45.85484468342088" lon="11.819880974881817"><ele>854.5714285714287</ele><time>2026-04-06T13:14:00.935Z</time></trkpt><trkpt lat="45.854843738584094" lon="11.81978289813094"><ele>850.2857142857142</ele><time>2026-04-06T13:14:06.935Z</time></trkpt><trkpt lat="45.8548387855933" lon="11.819675048216913"><ele>846.0</ele><time>2026-04-06T13:14:12.935Z</time></trkpt><trkpt lat="45.854834148046336" lon="11.819577578581317"><ele>846.0</ele><time>2026-04-06T13:14:18.935Z</time></trkpt><trkpt lat="45.85485123309799" lon="11.819480600864207"><ele>846.0</ele><time>2026-04-06T13:14:24.935Z</time></trkpt><trkpt lat="45.85485549678508" lon="11.819388367673971"><ele>846.0</ele><time>2026-04-06T13:14:29.935Z</time></trkpt><trkpt lat="45.85487971710653" lon="11.819291485431279"><ele>846.0</ele><time>2026-04-06T13:14:34.935Z</time></trkpt><trkpt lat="45.85491852527943" lon="11.819192809194258"><ele>846.0</ele><time>2026-04-06T13:14:40.935Z</time></trkpt><trkpt lat="45.85495660937398" lon="11.819116435330669"><ele>846.0</ele><time>2026-04-06T13:14:46.935Z</time></trkpt><trkpt lat="45.85499253240609" lon="11.819041064052982"><ele>846.0</ele><time>2026-04-06T13:14:52.934Z</time></trkpt><trkpt lat="45.85493277246243" lon="11.819089677147069"><ele>846.0</ele><time>2026-04-06T13:15:05.934Z</time></trkpt><trkpt lat="45.85488277039575" lon="11.81914783064156"><ele>846.0</ele><time>2026-04-06T13:15:11.934Z</time></trkpt><trkpt lat="45.854834221470725" lon="11.819213271075345"><ele>846.0</ele><time>2026-04-06T13:15:18.934Z</time></trkpt><trkpt lat="45.85478682217711" lon="11.819279690262082"><ele>846.0</ele><time>2026-04-06T13:15:24.934Z</time></trkpt><trkpt lat="45.854740933827216" lon="11.819344351052258"><ele>846.0</ele><time>2026-04-06T13:15:30.934Z</time></trkpt><trkpt lat="45.85469517723951" lon="11.819412174826153"><ele>846.0</ele><time>2026-04-06T13:15:37.934Z</time></trkpt><trkpt lat="45.85464542049456" lon="11.819488373423654"><ele>846.0</ele><time>2026-04-06T13:15:43.934Z</time></trkpt><trkpt lat="45.854607154796845" lon="11.819560643479115"><ele>846.0</ele><time>2026-04-06T13:15:49.934Z</time></trkpt><trkpt lat="45.854572563532436" lon="11.819641752976796"><ele>846.0</ele><time>2026-04-06T13:15:59.934Z</time></trkpt><trkpt lat="45.85455276554458" lon="11.81974472134161"><ele>846.0</ele><time>2026-04-06T13:16:07.933Z</time></trkpt><trkpt lat="45.854531205955624" lon="11.819840553777109"><ele>846.0</ele><time>2026-04-06T13:16:14.933Z</time></trkpt><trkpt lat="45.85454226669881" lon="11.81993231601606"><ele>846.0</ele><time>2026-04-06T13:16:21.933Z</time></trkpt><trkpt lat="45.85459388819292" lon="11.82004723315388"><ele>846.0</ele><time>2026-04-06T13:16:34.933Z</time></trkpt><trkpt lat="45.85462775833868" lon="11.82014055307852"><ele>846.0</ele><time>2026-04-06T13:16:42.933Z</time></trkpt><trkpt lat="45.85463782312843" lon="11.820235895140453"><ele>842.8571428571428</ele><time>2026-04-06T13:16:47.933Z</time></trkpt><trkpt lat="45.85466457171205" lon="11.820344182259337"><ele>839.7142857142858</ele><time>2026-04-06T13:16:54.933Z</time></trkpt><trkpt lat="45.85468434597516" lon="11.820444119095326"><ele>836.5714285714286</ele><time>2026-04-06T13:17:03.932Z</time></trkpt><trkpt lat="45.854709427304115" lon="11.820553024141299"><ele>833.4285714285713</ele><time>2026-04-06T13:17:10.933Z</time></trkpt><trkpt lat="45.85475560953829" lon="11.8206309801138"><ele>830.2857142857142</ele><time>2026-04-06T13:17:20.932Z</time></trkpt><trkpt lat="45.854785236044535" lon="11.820717544612647"><ele>827.1428571428571</ele><time>2026-04-06T13:17:29.932Z</time></trkpt><trkpt lat="45.854819794109694" lon="11.820800100205007"><ele>824.0</ele><time>2026-04-06T13:17:35.932Z</time></trkpt><trkpt lat="45.854856257411186" lon="11.820879073379466"><ele>823.9999999999999</ele><time>2026-04-06T13:17:41.932Z</time></trkpt><trkpt lat="45.85488783686032" lon="11.820972700600809"><ele>824.0</ele><time>2026-04-06T13:17:45.932Z</time></trkpt><trkpt lat="45.85491747341732" lon="11.821070508409441"><ele>824.0</ele><time>2026-04-06T13:17:49.932Z</time></trkpt><trkpt lat="45.85496396573357" lon="11.821133332718839"><ele>824.0</ele><time>2026-04-06T13:17:55.932Z</time></trkpt><trkpt lat="45.85497837163506" lon="11.821225894523673"><ele>824.0</ele><time>2026-04-06T13:18:01.932Z</time></trkpt><trkpt lat="45.855025202071054" lon="11.821297934037014"><ele>823.9999999999999</ele><time>2026-04-06T13:18:08.932Z</time></trkpt><trkpt lat="45.85501066597477" lon="11.821404072071209"><ele>824.0</ele><time>2026-04-06T13:18:12.932Z</time></trkpt><trkpt lat="45.85498107610901" lon="11.821494143582349"><ele>822.1428571428571</ele><time>2026-04-06T13:18:18.932Z</time></trkpt><trkpt lat="45.854946508880374" lon="11.82157364672536"><ele>820.2857142857142</ele><time>2026-04-06T13:18:26.932Z</time></trkpt><trkpt lat="45.854918710856175" lon="11.821659951483692"><ele>818.4285714285713</ele><time>2026-04-06T13:18:37.932Z</time></trkpt><trkpt lat="45.854866719608275" lon="11.82171583975417"><ele>816.5714285714286</ele><time>2026-04-06T13:18:43.932Z</time></trkpt><trkpt lat="45.854810522820486" lon="11.821766128577247"><ele>814.7142857142858</ele><time>2026-04-06T13:18:52.932Z</time></trkpt><trkpt lat="45.85474617923653" lon="11.821741151309096"><ele>812.8571428571428</ele><time>2026-04-06T13:19:09.931Z</time></trkpt><trkpt lat="45.85467083394566" lon="11.82177358395326"><ele>811.0</ele><time>2026-04-06T13:19:17.93Z</time></trkpt><trkpt lat="45.85461632110106" lon="11.821840304240641"><ele>811.0</ele><time>2026-04-06T13:19:27.93Z</time></trkpt><trkpt lat="45.854558779841724" lon="11.821901783110132"><ele>811.0</ele><time>2026-04-06T13:19:34.93Z</time></trkpt><trkpt lat="45.8544938466209" lon="11.821910610545936"><ele>811.0</ele><time>2026-04-06T13:19:39.93Z</time></trkpt><trkpt lat="45.854431582961936" lon="11.821889296883143"><ele>811.0</ele><time>2026-04-06T13:19:45.93Z</time></trkpt><trkpt lat="45.85437207424696" lon="11.821848777390517"><ele>811.0</ele><time>2026-04-06T13:19:49.93Z</time></trkpt><trkpt lat="45.85431178882855" lon="11.821797572080346"><ele>811.0</ele><time>2026-04-06T13:19:55.93Z</time></trkpt><trkpt lat="45.854241620378126" lon="11.821773541422886"><ele>811.0</ele><time>2026-04-06T13:20:02.93Z</time></trkpt><trkpt lat="45.8541753429255" lon="11.821737579787488"><ele>809.4285714285714</ele><time>2026-04-06T13:20:07.93Z</time></trkpt><trkpt lat="45.8541038649565" lon="11.821720905123108"><ele>807.8571428571429</ele><time>2026-04-06T13:20:14.93Z</time></trkpt><trkpt lat="45.85404037924717" lon="11.821751766624303"><ele>806.2857142857143</ele><time>2026-04-06T13:20:24.93Z</time></trkpt><trkpt lat="45.853997164128266" lon="11.821820441033744"><ele>804.7142857142858</ele><time>2026-04-06T13:20:31.93Z</time></trkpt><trkpt lat="45.85393371599258" lon="11.821855012344457"><ele>803.1428571428571</ele><time>2026-04-06T13:20:38.93Z</time></trkpt><trkpt lat="45.85387214393185" lon="11.821894608876084"><ele>801.5714285714287</ele><time>2026-04-06T13:20:43.93Z</time></trkpt><trkpt lat="45.85383328168108" lon="11.821990423781916"><ele>800.0</ele><time>2026-04-06T13:20:48.93Z</time></trkpt><trkpt lat="45.853785025600835" lon="11.822060211786992"><ele>800.0000000000001</ele><time>2026-04-06T13:20:54.93Z</time></trkpt><trkpt lat="45.853733289671105" lon="11.822142207509682"><ele>800.0</ele><time>2026-04-06T13:21:01.93Z</time></trkpt><trkpt lat="45.85368826541386" lon="11.822237874957874"><ele>800.0</ele><time>2026-04-06T13:21:07.93Z</time></trkpt><trkpt lat="45.8536461203531" lon="11.822316478287528"><ele>800.0</ele><time>2026-04-06T13:21:13.929Z</time></trkpt><trkpt lat="45.853595050118294" lon="11.8223932182392"><ele>800.0</ele><time>2026-04-06T13:21:20.929Z</time></trkpt><trkpt lat="45.853534807968664" lon="11.822453283073823"><ele>800.0000000000001</ele><time>2026-04-06T13:21:27.93Z</time></trkpt><trkpt lat="45.853498307520965" lon="11.82237524155106"><ele>800.0</ele><time>2026-04-06T13:21:34.93Z</time></trkpt><trkpt lat="45.85353410114057" lon="11.822290560782378"><ele>800.0000000000001</ele><time>2026-04-06T13:21:40.93Z</time></trkpt><trkpt lat="45.85353830155516" lon="11.822188667289538"><ele>800.0</ele><time>2026-04-06T13:21:47.93Z</time></trkpt><trkpt lat="45.85355286384214" lon="11.822084987520453"><ele>800.0</ele><time>2026-04-06T13:21:54.93Z</time></trkpt><trkpt lat="45.85357577789728" lon="11.821975101952951"><ele>800.0</ele><time>2026-04-06T13:22:01.929Z</time></trkpt><trkpt lat="45.85361557818169" lon="11.821900758482073"><ele>800.0</ele><time>2026-04-06T13:22:07.929Z</time></trkpt><trkpt lat="45.853646007395426" lon="11.821812442008195"><ele>800.0000000000001</ele><time>2026-04-06T13:22:12.929Z</time></trkpt><trkpt lat="45.85367028951379" lon="11.821720187854662"><ele>800.0</ele><time>2026-04-06T13:22:18.929Z</time></trkpt><trkpt lat="45.853698131216824" lon="11.821623462985274"><ele>800.0000000000001</ele><time>2026-04-06T13:22:23.929Z</time></trkpt><trkpt lat="45.85371551386678" lon="11.821525046201254"><ele>800.0</ele><time>2026-04-06T13:22:30.929Z</time></trkpt><trkpt lat="45.85365092274875" lon="11.82156682993399"><ele>800.0</ele><time>2026-04-06T13:22:42.929Z</time></trkpt><trkpt lat="45.853600498290724" lon="11.821622296982842"><ele>800.0</ele><time>2026-04-06T13:22:49.929Z</time></trkpt><trkpt lat="45.85354772813352" lon="11.821689727295986"><ele>800.0</ele><time>2026-04-06T13:22:56.929Z</time></trkpt><trkpt lat="45.85351733490948" lon="11.821776178931712"><ele>800.0000000000001</ele><time>2026-04-06T13:23:03.929Z</time></trkpt><trkpt lat="45.85346837257464" lon="11.821856136208138"><ele>800.0</ele><time>2026-04-06T13:23:08.929Z</time></trkpt><trkpt lat="45.85341362091416" lon="11.821918045890122"><ele>794.5714285714287</ele><time>2026-04-06T13:23:14.929Z</time></trkpt><trkpt lat="45.85331879101332" lon="11.8219317236582"><ele>789.1428571428571</ele><time>2026-04-06T13:23:18.928Z</time></trkpt><trkpt lat="45.853284338200254" lon="11.822023134065823"><ele>783.7142857142858</ele><time>2026-04-06T13:23:24.928Z</time></trkpt><trkpt lat="45.85325167495778" lon="11.8221083908737"><ele>778.2857142857143</ele><time>2026-04-06T13:23:31.928Z</time></trkpt><trkpt lat="45.853219832568094" lon="11.822193082273907"><ele>772.8571428571429</ele><time>2026-04-06T13:23:37.928Z</time></trkpt><trkpt lat="45.85318109557415" lon="11.822274224949242"><ele>767.4285714285714</ele><time>2026-04-06T13:23:43.928Z</time></trkpt><trkpt lat="45.85312224181571" lon="11.822326772307974"><ele>762.0</ele><time>2026-04-06T13:23:50.928Z</time></trkpt><trkpt lat="45.853086905538156" lon="11.822412059285293"><ele>762.0</ele><time>2026-04-06T13:23:56.928Z</time></trkpt><trkpt lat="45.853033805450686" lon="11.82247875026718"><ele>762.0</ele><time>2026-04-06T13:24:02.928Z</time></trkpt><trkpt lat="45.852973849806204" lon="11.822526580839826"><ele>762.0</ele><time>2026-04-06T13:24:09.928Z</time></trkpt><trkpt lat="45.85291871580213" lon="11.822575326056892"><ele>762.0</ele><time>2026-04-06T13:24:15.928Z</time></trkpt><trkpt lat="45.852851701555295" lon="11.822645597618441"><ele>762.0</ele><time>2026-04-06T13:24:20.928Z</time></trkpt><trkpt lat="45.85279997824134" lon="11.822709211087506"><ele>762.0</ele><time>2026-04-06T13:24:27.928Z</time></trkpt><trkpt lat="45.85273875360635" lon="11.822753855386026"><ele>762.0</ele><time>2026-04-06T13:24:32.928Z</time></trkpt><trkpt lat="45.85269224398862" lon="11.822818537634214"><ele>762.0</ele><time>2026-04-06T13:24:37.928Z</time></trkpt><trkpt lat="45.852645811424885" lon="11.82275688177229"><ele>762.0</ele><time>2026-04-06T13:24:47.928Z</time></trkpt><trkpt lat="45.852696925672525" lon="11.822689560759848"><ele>762.0</ele><time>2026-04-06T13:24:53.928Z</time></trkpt><trkpt lat="45.85274828134383" lon="11.822610101730982"><ele>762.0</ele><time>2026-04-06T13:24:59.927Z</time></trkpt><trkpt lat="45.85279455791683" lon="11.822513365036407"><ele>762.0</ele><time>2026-04-06T13:25:06.927Z</time></trkpt><trkpt lat="45.852843405076875" lon="11.822427767152021"><ele>762.0</ele><time>2026-04-06T13:25:15.927Z</time></trkpt><trkpt lat="45.85290287786609" lon="11.82237887140921"><ele>762.0</ele><time>2026-04-06T13:25:22.927Z</time></trkpt><trkpt lat="45.852934970017415" lon="11.822286807917436"><ele>762.0</ele><time>2026-04-06T13:25:27.926Z</time></trkpt><trkpt lat="45.85294436483065" lon="11.822183366738212"><ele>762.0</ele><time>2026-04-06T13:25:33.926Z</time></trkpt><trkpt lat="45.852943744593105" lon="11.82208841604903"><ele>762.0</ele><time>2026-04-06T13:25:39.926Z</time></trkpt><trkpt lat="45.85290414493591" lon="11.82197658568859"><ele>762.0</ele><time>2026-04-06T13:25:46.926Z</time></trkpt><trkpt lat="45.85287689711126" lon="11.821891846177206"><ele>762.0</ele><time>2026-04-06T13:25:51.926Z</time></trkpt><trkpt lat="45.852862172595934" lon="11.821791200403993"><ele>762.0</ele><time>2026-04-06T13:25:58.926Z</time></trkpt><trkpt lat="45.85286122104431" lon="11.821698336716487"><ele>762.0</ele><time>2026-04-06T13:26:03.926Z</time></trkpt><trkpt lat="45.85287591647572" lon="11.821593766287199"><ele>760.4285714285714</ele><time>2026-04-06T13:26:08.926Z</time></trkpt><trkpt lat="45.85288244507445" lon="11.821498385850328"><ele>758.8571428571429</ele><time>2026-04-06T13:26:13.926Z</time></trkpt><trkpt lat="45.85288475338233" lon="11.82140593331035"><ele>757.2857142857143</ele><time>2026-04-06T13:26:20.926Z</time></trkpt><trkpt lat="45.85285178020394" lon="11.821322418280559"><ele>755.7142857142858</ele><time>2026-04-06T13:26:26.926Z</time></trkpt><trkpt lat="45.85281256207925" lon="11.821397810232366"><ele>754.1428571428571</ele><time>2026-04-06T13:26:43.925Z</time></trkpt><trkpt lat="45.85279464195768" lon="11.821506429196603"><ele>752.5714285714287</ele><time>2026-04-06T13:26:48.925Z</time></trkpt><trkpt lat="45.852781507516426" lon="11.821597751732554"><ele>751.0</ele><time>2026-04-06T13:26:55.925Z</time></trkpt><trkpt lat="45.852734404819834" lon="11.821665865636962"><ele>751.0000000000001</ele><time>2026-04-06T13:27:02.925Z</time></trkpt><trkpt lat="45.85269853610695" lon="11.82175302858958"><ele>751.0</ele><time>2026-04-06T13:27:09.925Z</time></trkpt><trkpt lat="45.85270355891478" lon="11.821850047429956"><ele>751.0</ele><time>2026-04-06T13:27:16.925Z</time></trkpt><trkpt lat="45.85270331180564" lon="11.821961138408824"><ele>751.0</ele><time>2026-04-06T13:27:23.925Z</time></trkpt><trkpt lat="45.852696897148334" lon="11.822057985367557"><ele>751.0</ele><time>2026-04-06T13:27:30.925Z</time></trkpt><trkpt lat="45.85264477036867" lon="11.822115323548724"><ele>751.0000000000001</ele><time>2026-04-06T13:27:37.925Z</time></trkpt><trkpt lat="45.85257657465107" lon="11.822134390225148"><ele>751.0</ele><time>2026-04-06T13:27:43.925Z</time></trkpt><trkpt lat="45.85251727802978" lon="11.822185568101672"><ele>748.5714285714287</ele><time>2026-04-06T13:27:48.925Z</time></trkpt><trkpt lat="45.85245357713463" lon="11.822252895861936"><ele>746.1428571428571</ele><time>2026-04-06T13:27:54.925Z</time></trkpt><trkpt lat="45.85240174261955" lon="11.82231111263443"><ele>743.7142857142858</ele><time>2026-04-06T13:28:00.925Z</time></trkpt><trkpt lat="45.85234300395681" lon="11.822359086694608"><ele>741.2857142857143</ele><time>2026-04-06T13:28:08.925Z</time></trkpt><trkpt lat="45.85229262799444" lon="11.822420310019595"><ele>738.8571428571429</ele><time>2026-04-06T13:28:14.925Z</time></trkpt><trkpt lat="45.85226492485812" lon="11.822509341385352"><ele>736.4285714285714</ele><time>2026-04-06T13:28:19.924Z</time></trkpt><trkpt lat="45.85222663469784" lon="11.822606816763512"><ele>734.0</ele><time>2026-04-06T13:28:25.924Z</time></trkpt><trkpt lat="45.852183912391524" lon="11.822684607523856"><ele>734.0</ele><time>2026-04-06T13:28:32.924Z</time></trkpt><trkpt lat="45.85213221977176" lon="11.822751957681886"><ele>734.0</ele><time>2026-04-06T13:28:39.924Z</time></trkpt><trkpt lat="45.85208990219891" lon="11.822829341306656"><ele>734.0</ele><time>2026-04-06T13:28:46.924Z</time></trkpt><trkpt lat="45.85205922666445" lon="11.822922638254697"><ele>734.0</ele><time>2026-04-06T13:28:51.924Z</time></trkpt><trkpt lat="45.85204218206884" lon="11.823010330955407"><ele>734.0</ele><time>2026-04-06T13:28:57.924Z</time></trkpt><trkpt lat="45.8520392421066" lon="11.8231270081173"><ele>734.0</ele><time>2026-04-06T13:29:07.924Z</time></trkpt><trkpt lat="45.85201843018248" lon="11.823237523863789"><ele>734.0</ele><time>2026-04-06T13:29:16.924Z</time></trkpt><trkpt lat="45.852003573741364" lon="11.823344459859074"><ele>734.0</ele><time>2026-04-06T13:29:22.924Z</time></trkpt><trkpt lat="45.85200011639072" lon="11.823438745267927"><ele>734.0</ele><time>2026-04-06T13:29:27.924Z</time></trkpt><trkpt lat="45.851978241183005" lon="11.823531040212776"><ele>734.0</ele><time>2026-04-06T13:29:33.923Z</time></trkpt><trkpt lat="45.85197910282198" lon="11.82362471331121"><ele>734.0</ele><time>2026-04-06T13:29:39.93Z</time></trkpt><trkpt lat="45.85197677781379" lon="11.823725171300199"><ele>734.0</ele><time>2026-04-06T13:29:44.935Z</time></trkpt><trkpt lat="45.8519610238583" lon="11.823829163724342"><ele>734.0</ele><time>2026-04-06T13:29:53.941Z</time></trkpt><trkpt lat="45.851944077219756" lon="11.823917421872434"><ele>734.0</ele><time>2026-04-06T13:30:01.944Z</time></trkpt><trkpt lat="45.85192338983676" lon="11.824005238279021"><ele>733.7142857142857</ele><time>2026-04-06T13:30:07.945Z</time></trkpt><trkpt lat="45.85189590066297" lon="11.824088087255689"><ele>733.4285714285714</ele><time>2026-04-06T13:30:12.946Z</time></trkpt><trkpt lat="45.851866780753504" lon="11.824169001883643"><ele>733.1428571428571</ele><time>2026-04-06T13:30:18.947Z</time></trkpt><trkpt lat="45.851897621855755" lon="11.824256112924614"><ele>732.8571428571429</ele><time>2026-04-06T13:30:26.948Z</time></trkpt><trkpt lat="45.851908555694855" lon="11.824345195257717"><ele>732.5714285714287</ele><time>2026-04-06T13:30:30.948Z</time></trkpt><trkpt lat="45.851871541864234" lon="11.824433142572799"><ele>732.2857142857143</ele><time>2026-04-06T13:30:35.948Z</time></trkpt><trkpt lat="45.851806537313685" lon="11.824411217540666"><ele>732.0</ele><time>2026-04-06T13:30:41.948Z</time></trkpt><trkpt lat="45.85181036019892" lon="11.824282529208046"><ele>732.0</ele><time>2026-04-06T13:30:49.948Z</time></trkpt><trkpt lat="45.85180112671349" lon="11.824186192990787"><ele>732.0</ele><time>2026-04-06T13:30:54.948Z</time></trkpt><trkpt lat="45.85179754366097" lon="11.82408200788681"><ele>732.0</ele><time>2026-04-06T13:31:01.948Z</time></trkpt><trkpt lat="45.85180650078269" lon="11.823973951533588"><ele>732.0</ele><time>2026-04-06T13:31:07.948Z</time></trkpt><trkpt lat="45.85180897346191" lon="11.823833198485051"><ele>732.0</ele><time>2026-04-06T13:31:17.948Z</time></trkpt><trkpt lat="45.85182597042931" lon="11.823738401419048"><ele>732.0</ele><time>2026-04-06T13:31:22.948Z</time></trkpt><trkpt lat="45.85184004548918" lon="11.823645676623048"><ele>732.0</ele><time>2026-04-06T13:31:29.948Z</time></trkpt><trkpt lat="45.85185343323807" lon="11.823555820567973"><ele>732.3333333333334</ele><time>2026-04-06T13:31:34.948Z</time></trkpt><trkpt lat="45.851864077935" lon="11.823458307123015"><ele>732.6666666666666</ele><time>2026-04-06T13:31:40.947Z</time></trkpt><trkpt lat="45.85186394842911" lon="11.823356956687674"><ele>733.0</ele><time>2026-04-06T13:31:47.948Z</time></trkpt><trkpt lat="45.8518788720212" lon="11.823257432821952"><ele>733.3333333333333</ele><time>2026-04-06T13:31:53.948Z</time></trkpt><trkpt lat="45.85188590260132" lon="11.823145973624298"><ele>733.6666666666666</ele><time>2026-04-06T13:31:59.948Z</time></trkpt><trkpt lat="45.851857895374344" lon="11.82303757929131"><ele>734.0</ele><time>2026-04-06T13:32:04.948Z</time></trkpt><trkpt lat="45.851772023647335" lon="11.822984202656952"><ele>726.8571428571428</ele><time>2026-04-06T13:32:07.948Z</time></trkpt><trkpt lat="45.85167564718076" lon="11.822992448055583"><ele>719.7142857142858</ele><time>2026-04-06T13:32:10.948Z</time></trkpt><trkpt lat="45.85164666827227" lon="11.823075479977188"><ele>712.5714285714286</ele><time>2026-04-06T13:32:19.948Z</time></trkpt><trkpt lat="45.851611462115685" lon="11.82316179008538"><ele>705.4285714285713</ele><time>2026-04-06T13:32:25.948Z</time></trkpt><trkpt lat="45.85160372492936" lon="11.823268557045932"><ele>698.2857142857142</ele><time>2026-04-06T13:32:31.948Z</time></trkpt><trkpt lat="45.85159725200893" lon="11.823369126483684"><ele>691.1428571428571</ele><time>2026-04-06T13:32:36.948Z</time></trkpt><trkpt lat="45.851583145163794" lon="11.823467469945516"><ele>684.0</ele><time>2026-04-06T13:32:42.948Z</time></trkpt><trkpt lat="45.851559137351266" lon="11.82356752182054"><ele>683.9999999999999</ele><time>2026-04-06T13:32:47.948Z</time></trkpt><trkpt lat="45.8515506486048" lon="11.823659247108248"><ele>684.0</ele><time>2026-04-06T13:32:51.948Z</time></trkpt><trkpt lat="45.85151461703477" lon="11.823760807881003"><ele>684.0</ele><time>2026-04-06T13:32:57.948Z</time></trkpt><trkpt lat="45.85148787118338" lon="11.823859920426882"><ele>684.0</ele><time>2026-04-06T13:33:02.948Z</time></trkpt><trkpt lat="45.85144436494904" lon="11.823938564115375"><ele>684.0</ele><time>2026-04-06T13:33:06.948Z</time></trkpt><trkpt lat="45.85138787323135" lon="11.823991741546962"><ele>683.9999999999999</ele><time>2026-04-06T13:33:12.948Z</time></trkpt><trkpt lat="45.851329169211255" lon="11.82403003313641"><ele>684.0</ele><time>2026-04-06T13:33:16.948Z</time></trkpt><trkpt lat="45.85127964087594" lon="11.82409489445737"><ele>683.9999999999999</ele><time>2026-04-06T13:33:22.948Z</time></trkpt><trkpt lat="45.85124601790886" lon="11.824192475267893"><ele>684.0</ele><time>2026-04-06T13:33:28.948Z</time></trkpt><trkpt lat="45.851194896295965" lon="11.824287045245933"><ele>684.0</ele><time>2026-04-06T13:33:34.948Z</time></trkpt><trkpt lat="45.85116472314068" lon="11.824372738622769"><ele>684.0</ele><time>2026-04-06T13:33:41.948Z</time></trkpt><trkpt lat="45.851141219385475" lon="11.824456871745356"><ele>684.0</ele><time>2026-04-06T13:33:46.947Z</time></trkpt><trkpt lat="45.85112068043526" lon="11.824554081316276"><ele>683.9999999999999</ele><time>2026-04-06T13:33:51.947Z</time></trkpt><trkpt lat="45.85115019318951" lon="11.824664554206908"><ele>684.0</ele><time>2026-04-06T13:33:57.946Z</time></trkpt><trkpt lat="45.85114329632702" lon="11.824755110610083"><ele>683.9999999999999</ele><time>2026-04-06T13:34:03.947Z</time></trkpt><trkpt lat="45.85110197177411" lon="11.824829328908029"><ele>684.0</ele><time>2026-04-06T13:34:12.947Z</time></trkpt><trkpt lat="45.85106072589219" lon="11.824757440964202"><ele>684.0</ele><time>2026-04-06T13:34:18.947Z</time></trkpt><trkpt lat="45.85101034188168" lon="11.824698130141854"><ele>684.0</ele><time>2026-04-06T13:34:24.947Z</time></trkpt><trkpt lat="45.85094576162835" lon="11.824685396199586"><ele>684.0</ele><time>2026-04-06T13:34:29.947Z</time></trkpt><trkpt lat="45.85089003123244" lon="11.824734263935332"><ele>683.9999999999999</ele><time>2026-04-06T13:34:38.947Z</time></trkpt><trkpt lat="45.85089149167139" lon="11.82482849429712"><ele>684.0</ele><time>2026-04-06T13:34:44.947Z</time></trkpt><trkpt lat="45.85091340553869" lon="11.824920504232356"><ele>678.1428571428571</ele><time>2026-04-06T13:34:50.947Z</time></trkpt><trkpt lat="45.85090266519942" lon="11.82501535201475"><ele>672.2857142857142</ele><time>2026-04-06T13:34:56.947Z</time></trkpt><trkpt lat="45.850875714973" lon="11.825109873802411"><ele>666.4285714285713</ele><time>2026-04-06T13:35:02.947Z</time></trkpt><trkpt lat="45.85081670458782" lon="11.825153915463346"><ele>660.5714285714286</ele><time>2026-04-06T13:35:08.947Z</time></trkpt><trkpt lat="45.85075028272405" lon="11.825169989400944"><ele>654.7142857142858</ele><time>2026-04-06T13:35:14.947Z</time></trkpt><trkpt lat="45.850691390767594" lon="11.8251241767601"><ele>648.8571428571428</ele><time>2026-04-06T13:35:22.947Z</time></trkpt><trkpt lat="45.85065959390318" lon="11.825043589358025"><ele>643.0</ele><time>2026-04-06T13:35:28.947Z</time></trkpt><trkpt lat="45.85062720823052" lon="11.824964949929349"><ele>643.0</ele><time>2026-04-06T13:35:33.947Z</time></trkpt><trkpt lat="45.85058568160506" lon="11.824848020695308"><ele>643.0</ele><time>2026-04-06T13:35:40.947Z</time></trkpt><trkpt lat="45.85055228358182" lon="11.824759516735554"><ele>643.0</ele><time>2026-04-06T13:35:46.947Z</time></trkpt><trkpt lat="45.85051278883799" lon="11.824675465020004"><ele>643.0</ele><time>2026-04-06T13:35:51.946Z</time></trkpt><trkpt lat="45.85047262124876" lon="11.824594485222503"><ele>643.0</ele><time>2026-04-06T13:35:56.946Z</time></trkpt><trkpt lat="45.850430462988975" lon="11.82450977841412"><ele>643.0</ele><time>2026-04-06T13:36:01.946Z</time></trkpt><trkpt lat="45.85039767005733" lon="11.824423295603792"><ele>643.0</ele><time>2026-04-06T13:36:07.945Z</time></trkpt><trkpt lat="45.850365637531546" lon="11.824345029712878"><ele>643.7142857142857</ele><time>2026-04-06T13:36:13.945Z</time></trkpt><trkpt lat="45.85031673372103" lon="11.8242783508052"><ele>644.4285714285714</ele><time>2026-04-06T13:36:18.945Z</time></trkpt><trkpt lat="45.85025567888362" lon="11.824220048694729"><ele>645.1428571428571</ele><time>2026-04-06T13:36:24.945Z</time></trkpt><trkpt lat="45.850187262406344" lon="11.824193390490331"><ele>645.8571428571429</ele><time>2026-04-06T13:36:31.945Z</time></trkpt><trkpt lat="45.85011239607375" lon="11.824198686074364"><ele>646.5714285714286</ele><time>2026-04-06T13:36:37.945Z</time></trkpt><trkpt lat="45.850045478014444" lon="11.82422909080056"><ele>647.2857142857143</ele><time>2026-04-06T13:36:44.945Z</time></trkpt><trkpt lat="45.84998422317745" lon="11.824252913931302"><ele>648.0</ele><time>2026-04-06T13:36:50.945Z</time></trkpt><trkpt lat="45.84996347438004" lon="11.824338562912235"><ele>623.0</ele><time>2026-04-06T13:37:11.945Z</time></trkpt></trkseg></trk></gpx>